[[{"header":{"parameterUnit":"m.s-1","parameterCategory":1,"la1":31.0,"la2":29.5877,"lo1":-88.7671,"lo2":-86.6584,"dy":0.0162,"dx":0.0185,"nx":115,"ny":88,"refTime":"2026-03-17T00:00:00:Z","depth":0,"parameterNumber":2,"parameterNumberName":"U-component_of_WINDS"},"data":[0.0,0.0,0.0,0.0,0.0,0.0,0.0,0.0,0.0,0.0,0.0,0.0,0.0,0.0,0.0,0.0,0.0,0.0,0.0,0.0,0.0,0.0,0.0,0.0,0.0,0.0,0.0,0.0,0.0,0.0,0.0,0.0,0.0,0.0,0.0,0.0,0.0,0.0,0.0,0.0,0.0,0.0,0.0,0.0,0.0,0.0,0.0,0.0,0.0,0.0,0.0,0.0,0.0,0.0,0.0,0.0,0.0,0.0,0.0,0.0,0.0,0.0,0.0,0.0,0.0,0.0,0.0,0.0,0.0,0.0,0.0,0.0,0.0,0.0,0.0,0.0,0.0,0.0,0.0,0.0,0.0,0.0,0.0,0.0,0.0,0.0,0.0,0.0,0.0,0.0,0.0,0.0,0.0,0.0,0.0,0.0,0.0,0.0,0.0,0.0,0.0,0.0,0.0,0.0,0.0,0.0,0.0,0.0,0.0,0.0,0.0,0.0,0.0,0.0,0.0,0.0,0.0,0.0,0.0,0.0,0.0,0.0,0.0,0.0,0.0,0.0,0.0,0.0,0.0,0.0,0.0,0.0,0.0,0.0,0.0,0.0,0.0,0.0,0.0,0.0,0.0,0.0,0.0,0.0,0.0,0.0,0.0,0.0,0.0,0.0,0.0,0.0,0.0,0.0,0.0,0.0,0.0,0.0,0.0,0.0,0.0,0.0,0.0,0.0,0.0,0.0,0.0,0.0,0.0,0.0,0.0,0.0,0.0,0.0,0.0,0.0,0.0,0.0,0.0,0.0,0.0,0.0,0.0,0.0,0.0,0.0,0.0,0.0,0.0,0.0,0.0,0.0,0.0,0.0,0.0,0.0,0.0,0.0,0.0,0.0,0.0,0.0,0.0,0.0,0.0,0.0,0.0,0.0,0.0,0.0,0.0,0.0,0.0,0.0,0.0,0.0,0.0,0.0,0.0,0.0,0.0,0.0,0.0,0.0,0.0,0.0,0.0,0.0,0.0,0.0,0.0,0.0,0.0,0.0,0.0,0.0,0.0,0.0,0.0,0.0,0.0,0.0,0.0,0.0,0.0,0.0,0.0,0.0,0.0,0.0,0.0,0.0,0.0,0.0,0.0,0.0,0.0,0.0,0.0,0.0,0.0,0.0,0.0,0.0,0.0,0.0,0.0,0.0,0.0,0.0,0.0,0.0,0.0,0.0,0.0,0.0,0.0,0.0,0.0,0.0,0.0,0.0,0.0,0.0,0.0,0.0,0.0,0.0,0.0,0.0,0.0,0.0,0.0,0.0,0.0,0.0,0.0,0.0,0.0,0.0,0.0,0.0,0.0,0.0,0.0,0.0,0.0,0.0,0.0,0.0,0.0,0.0,0.0,0.0,0.0,0.0,0.0,0.0,0.0,0.0,0.0,0.0,0.0,0.0,0.0,0.0,0.0,0.0,0.0,0.0,0.0,0.0,0.0,0.0,0.0,0.0,0.0,0.0,0.0,0.0,0.0,0.0,0.0,0.0,0.0,0.0,0.0,0.0,0.0,0.0,0.0,0.0,0.0,0.0,0.0,0.0,0.0,0.0,0.0,0.0,0.0,0.0,0.0,0.0,0.0,0.0,0.0,0.0,0.0,0.0,0.0,0.0,0.0,0.0,0.0,0.0,0.0,0.0,0.0,0.0,0.0,0.0,0.0,0.0,0.0,0.0,0.0,0.0,0.0,0.0,0.0,0.0,0.0,0.0,0.0,0.0,0.0,0.0,0.0,0.0,0.0,0.0,0.0,0.0,0.0,0.0,0.0,0.0,0.0,0.0,0.0,0.0,0.0,0.0,0.0,0.0,0.0,0.0,0.0,0.0,0.0,0.0,0.0,0.0,0.0,0.0,0.0,0.0,0.0,0.0,0.0,0.0,0.0,0.0,0.0,0.0,0.0,0.0,0.0,0.0,0.0,0.0,0.0,0.0,0.0,0.0,0.0,0.0,0.0,0.0,0.0,0.0,0.0,0.0,0.0,0.0,0.0,0.0,0.0,0.0,0.0,0.0,0.0,0.0,0.0,0.0,0.0,0.0,0.0,0.0,0.0,0.0,0.0,0.0,0.0,0.0,0.0,0.0,0.0,0.0,0.0,0.0,0.0,0.0,0.0,0.0,0.0,0.0,0.0,0.0,0.0,0.0,0.0,0.0,0.0,0.0,0.0,0.0,0.0,0.0,0.0,0.0,0.0,0.0,0.0,0.0,0.0,0.0,0.0,0.0,0.0,0.0,0.0,0.0,0.0,0.0,0.0,0.0,0.0,0.0,0.0,0.0,0.0,0.0,0.0,0.0,0.0,0.0,0.0,0.0,0.0,0.0,0.0,0.0,0.0,0.0,0.0,0.0,0.0,0.0,0.0,0.0,0.0,0.0,0.0,0.0,0.0,0.0,0.0,0.0,0.0,0.0,0.0,0.0,0.0,0.0,0.0,0.0,0.0,0.0,0.0,0.0,0.0,0.0,0.0,0.0,0.0,0.0,0.0,0.0,0.0,0.0,0.0,0.0,0.0,0.0,0.0,0.0,0.0,0.0,0.0,0.0,0.0,0.0,0.0,0.0,0.0,0.0,0.0,0.0,0.0,0.0,0.0,0.0,0.0,0.0,0.0,0.0,0.0,0.0,0.0,0.0,0.0,0.0,0.0,0.0,0.0,0.0,0.0,0.0,0.0,0.0,0.0,0.0,0.0,0.0,0.0,0.0,0.0,0.0,0.0,0.0,0.0,0.0,0.0,0.0,0.0,0.0,0.0,0.0,0.0,0.0,0.0,0.0,0.0,0.0,0.0,0.0,0.0,0.0,0.0,0.0,0.0,0.0,0.0,0.0,0.0,0.0,0.0,0.0,0.0,0.0,0.0,0.0,0.0,0.0,0.0,0.0,0.0,0.0,0.0,0.0,0.0,0.0,0.0,0.0,0.0,0.0,0.0,0.0,0.0,0.0,0.0,0.0,0.0,0.0,0.0,0.0,0.0,0.0,0.0,0.0,0.0,0.0,0.0,0.0,0.0,0.0,0.0,0.0,0.0,0.0,0.0,0.0,0.0,0.0,0.0,0.0,0.0,0.0,0.0,0.0,0.0,0.0,0.0,0.0,0.0,0.0,0.0,0.0,0.0,0.0,0.0,0.0,0.0,0.0,0.0,0.0,0.0,0.0,0.0,0.0,0.0,0.0,0.0,0.0,0.0,0.0,0.0,0.0,0.0,0.0,0.0,0.0,0.0,0.0,0.0,0.0,0.0,0.0,0.0,0.0,0.0,0.0,0.0,0.0,0.0,0.0,0.0,0.0,0.0,0.0,0.0,0.0,0.0,0.0,0.0,0.0,0.0,0.0,0.0,0.0,0.0,0.0,0.0,0.0,0.0,0.0,0.0,0.0,0.0,0.0,0.0,0.0,0.0,0.0,0.0,0.0,0.0,0.0,0.0,0.0,0.0,0.0,0.0,0.0,0.0,0.0,0.0,0.0,0.0,0.0,0.0,0.0,0.0,0.0,0.0,0.0,0.0,0.0,0.0,0.0,0.0,0.0,0.0,0.0,0.0,0.0,0.0,0.0,0.0,0.0,0.0,0.0,0.0,0.0,0.0,0.0,0.0,0.0,0.0,0.0,0.0,0.0,0.0,0.0,0.0,0.0,0.0,0.0,0.0,0.0,0.0,0.0,0.0,0.0,0.0,0.0,0.0,0.0,0.0,0.0,0.0,0.0,0.0,0.0,0.0,0.0,0.0,0.0,0.0,0.0,0.0,0.0,0.0,0.0,0.0,0.0,0.0,0.0,0.0,0.0,0.0,0.0,0.0,0.0,0.0,0.0,0.0,0.0,0.0,0.0,0.0,0.0,0.0,0.0,0.0,0.0,0.0,0.0,0.0,0.0,0.0,0.0,0.0,0.0,0.0,0.0,0.0,0.0,0.0,0.0,0.0,0.0,0.0,0.0,0.0,0.0,0.0,0.0,0.0,0.0,0.0,0.0,0.0,0.0,0.0,0.0,0.0,0.0,0.0,0.0,0.0,0.0,0.0,0.0,0.0,0.0,0.0,0.0,0.0,0.0,0.0,0.0,0.0,0.0,0.0,0.0,0.0,0.0,0.0,0.0,0.0,0.0,0.0,0.0,0.0,0.0,0.0,0.0,0.0,0.0,0.0,0.0,0.0,0.0,0.0,0.0,0.0,0.0,0.0,0.0,0.0,0.0,0.0,0.0,0.0,0.0,0.0,0.0,0.0,0.0,0.0,0.0,0.0,0.0,-1.6194,0.0,0.0,0.0,0.0,0.0,0.0,0.0,0.0,0.0,0.0,0.0,0.0,0.0,0.0,0.0,0.0,0.0,0.0,0.0,0.0,0.0,0.0,0.0,0.0,0.0,0.0,0.0,0.0,0.0,0.0,0.0,0.0,0.0,0.0,0.0,0.0,0.0,0.0,0.0,0.0,0.0,0.0,0.0,0.0,0.0,0.0,0.0,0.0,0.0,0.0,0.0,0.0,0.0,0.0,0.0,0.0,0.0,0.0,0.0,0.0,0.0,0.0,0.0,0.0,0.0,0.0,0.0,0.0,0.0,0.0,0.0,0.0,0.0,0.0,0.0,0.0,0.0,0.0,0.0,0.0,0.0,0.0,0.0,0.0,0.0,0.0,0.0,0.0,0.0,0.0,0.0,0.0,0.0,0.0,0.0,0.0,0.0,0.0,0.0,0.0,0.0,0.0,0.0,0.0,0.0,0.0,0.0,0.0,0.0,0.0,-1.6194,-1.6194,-1.6194,-1.6194,-1.6194,0.0,0.0,0.0,0.0,0.0,0.0,0.0,0.0,0.0,0.0,0.0,0.0,0.0,0.0,0.0,0.0,0.0,0.0,0.0,0.0,0.0,0.0,0.0,0.0,0.0,0.0,0.0,0.0,0.0,0.0,0.0,0.0,0.0,0.0,0.0,0.0,0.0,0.0,0.0,0.0,0.0,0.0,0.0,0.0,0.0,0.0,0.0,0.0,0.0,0.0,0.0,0.0,0.0,0.0,0.0,0.0,0.0,0.0,0.0,0.0,0.0,0.0,0.0,0.0,0.0,0.0,0.0,0.0,0.0,0.0,0.0,0.0,0.0,0.0,0.0,0.0,0.0,0.0,0.0,0.0,0.0,0.0,0.0,0.0,0.0,0.0,0.0,0.0,0.0,0.0,0.0,0.0,0.0,0.0,0.0,0.0,0.0,0.0,0.0,0.0,0.0,0.0,0.0,0.0,0.0,0.0,0.0,0.0,0.0,0.0,0.0,0.0,-1.664,-1.6655,-1.6655,0.0,0.0,0.0,0.0,0.0,0.0,0.0,0.0,0.0,0.0,0.0,0.0,0.0,0.0,0.0,0.0,0.0,0.0,0.0,0.0,0.0,0.0,0.0,0.0,0.0,0.0,0.0,0.0,0.0,0.0,0.0,0.0,0.0,0.0,0.0,0.0,0.0,0.0,0.0,0.0,0.0,0.0,0.0,0.0,0.0,0.0,0.0,0.0,0.0,0.0,0.0,0.0,0.0,0.0,0.0,0.0,0.0,0.0,0.0,0.0,0.0,0.0,0.0,0.0,0.0,0.0,0.0,0.0,0.0,0.0,0.0,0.0,0.0,0.0,0.0,0.0,0.0,0.0,0.0,0.0,0.0,0.0,0.0,0.0,0.0,0.0,0.0,0.0,0.0,0.0,0.0,0.0,0.0,0.0,0.0,0.0,0.0,0.0,0.0,0.0,0.0,0.0,0.0,0.0,0.0,0.0,0.0,0.0,0.0,0.0,-1.6778,-1.7976,-1.8007,0.0,-1.8023,0.0,0.0,0.0,0.0,0.0,0.0,0.0,0.0,0.0,0.0,0.0,0.0,0.0,0.0,0.0,0.0,0.0,0.0,0.0,0.0,0.0,0.0,0.0,0.0,0.0,0.0,0.0,0.0,0.0,0.0,0.0,0.0,0.0,0.0,0.0,0.0,0.0,0.0,0.0,0.0,0.0,0.0,0.0,0.0,0.0,0.0,0.0,0.0,0.0,0.0,0.0,0.0,0.0,0.0,0.0,0.0,0.0,0.0,0.0,0.0,0.0,0.0,0.0,0.0,0.0,0.0,0.0,0.0,0.0,0.0,0.0,0.0,0.0,0.0,0.0,0.0,0.0,0.0,0.0,0.0,0.0,0.0,0.0,0.0,0.0,0.0,0.0,0.0,0.0,0.0,0.0,0.0,0.0,0.0,0.0,0.0,0.0,0.0,0.0,0.0,0.0,0.0,0.0,0.0,0.0,0.0,0.0,0.0,0.0,0.0,0.0,-1.8192,-1.8176,-1.8176,0.0,0.0,0.0,0.0,0.0,0.0,0.0,0.0,0.0,0.0,0.0,0.0,0.0,0.0,0.0,0.0,0.0,0.0,0.0,0.0,0.0,0.0,0.0,0.0,0.0,0.0,0.0,0.0,0.0,0.0,0.0,0.0,0.0,0.0,0.0,0.0,0.0,0.0,0.0,0.0,0.0,0.0,0.0,0.0,0.0,0.0,0.0,0.0,0.0,0.0,0.0,0.0,0.0,0.0,0.0,0.0,0.0,0.0,0.0,0.0,0.0,0.0,0.0,0.0,0.0,0.0,0.0,0.0,0.0,0.0,0.0,0.0,0.0,0.0,0.0,0.0,0.0,0.0,0.0,0.0,0.0,0.0,0.0,0.0,0.0,0.0,0.0,0.0,0.0,0.0,0.0,0.0,0.0,0.0,0.0,0.0,0.0,0.0,0.0,0.0,0.0,0.0,0.0,0.0,0.0,0.0,0.0,0.0,0.0,0.0,-1.7915,0.0,-1.8745,-1.876,-1.8514,-1.7961,0.0,0.0,0.0,0.0,0.0,0.0,0.0,0.0,0.0,0.0,0.0,0.0,0.0,0.0,0.0,0.0,0.0,0.0,0.0,0.0,0.0,0.0,0.0,0.0,0.0,0.0,0.0,0.0,0.0,0.0,0.0,0.0,0.0,0.0,0.0,0.0,0.0,0.0,0.0,0.0,0.0,0.0,0.0,0.0,0.0,0.0,0.0,0.0,0.0,0.0,0.0,0.0,0.0,0.0,0.0,0.0,0.0,0.0,0.0,0.0,0.0,0.0,0.0,0.0,0.0,0.0,0.0,0.0,0.0,0.0,0.0,0.0,0.0,0.0,0.0,0.0,0.0,0.0,0.0,0.0,0.0,0.0,0.0,0.0,0.0,0.0,0.0,0.0,0.0,0.0,0.0,0.0,0.0,0.0,0.0,0.0,0.0,0.0,0.0,0.0,0.0,0.0,0.0,0.0,0.0,0.0,0.0,0.0,0.0,-1.8854,-1.8822,-2.0165,-2.0212,-1.9269,0.0,0.0,0.0,0.0,0.0,0.0,0.0,0.0,0.0,0.0,0.0,0.0,0.0,0.0,0.0,0.0,0.0,0.0,0.0,0.0,0.0,0.0,0.0,0.0,0.0,0.0,0.0,0.0,0.0,0.0,0.0,0.0,0.0,0.0,0.0,0.0,0.0,0.0,0.0,0.0,0.0,0.0,0.0,0.0,0.0,0.0,0.0,0.0,0.0,0.0,0.0,0.0,0.0,0.0,0.0,0.0,0.0,0.0,0.0,0.0,0.0,0.0,0.0,0.0,0.0,0.0,0.0,0.0,0.0,0.0,0.0,0.0,0.0,0.0,0.0,0.0,0.0,0.0,0.0,0.0,0.0,0.0,0.0,0.0,0.0,0.0,0.0,0.0,0.0,0.0,0.0,0.0,0.0,0.0,0.0,0.0,0.0,0.0,0.0,0.0,0.0,0.0,0.0,0.0,0.0,0.0,0.0,0.0,0.0,-1.7622,-1.8007,-1.9282,-2.1378,-1.9469,-1.8377,0.0,0.0,0.0,0.0,0.0,0.0,0.0,0.0,0.0,0.0,0.0,0.0,0.0,0.0,0.0,0.0,0.0,0.0,0.0,0.0,0.0,0.0,0.0,0.0,0.0,0.0,0.0,0.0,0.0,0.0,0.0,0.0,0.0,0.0,0.0,0.0,0.0,0.0,0.0,0.0,0.0,0.0,0.0,0.0,0.0,0.0,0.0,0.0,0.0,0.0,0.0,0.0,0.0,0.0,0.0,0.0,0.0,0.0,0.0,0.0,0.0,0.0,0.0,0.0,0.0,0.0,0.0,0.0,0.0,0.0,0.0,0.0,0.0,0.0,0.0,0.0,0.0,0.0,0.0,0.0,0.0,0.0,0.0,0.0,0.0,0.0,0.0,0.0,0.0,0.0,0.0,0.0,0.0,0.0,0.0,0.0,0.0,0.0,0.0,0.0,0.0,0.0,0.0,0.0,0.0,0.0,0.0,0.0,0.0,-1.753,0.0,-2.0224,0.0,-1.9423,-1.8007,0.0,0.0,0.0,0.0,0.0,0.0,0.0,0.0,0.0,0.0,0.0,0.0,0.0,0.0,0.0,0.0,0.0,0.0,0.0,0.0,0.0,0.0,0.0,0.0,0.0,0.0,0.0,0.0,0.0,0.0,0.0,0.0,0.0,0.0,0.0,0.0,0.0,0.0,0.0,0.0,0.0,0.0,0.0,0.0,0.0,0.0,0.0,0.0,0.0,0.0,0.0,0.0,0.0,0.0,0.0,0.0,0.0,0.0,0.0,0.0,0.0,0.0,0.0,0.0,0.0,0.0,0.0,0.0,0.0,0.0,0.0,0.0,0.0,0.0,0.0,0.0,0.0,0.0,0.0,0.0,0.0,0.0,0.0,0.0,0.0,0.0,0.0,0.0,0.0,0.0,0.0,0.0,0.0,0.0,0.0,0.0,0.0,0.0,0.0,0.0,0.0,0.0,0.0,0.0,0.0,0.0,0.0,0.0,-1.7516,-2.01,-2.1424,-2.1501,-2.0412,-2.0147,-1.8206,0.0,0.0,0.0,0.0,0.0,0.0,0.0,0.0,0.0,0.0,0.0,0.0,0.0,0.0,0.0,0.0,0.0,0.0,0.0,0.0,0.0,0.0,0.0,0.0,0.0,0.0,0.0,0.0,0.0,0.0,0.0,0.0,0.0,0.0,0.0,0.0,0.0,0.0,0.0,0.0,0.0,0.0,0.0,0.0,0.0,0.0,0.0,0.0,0.0,0.0,0.0,0.0,0.0,0.0,0.0,0.0,0.0,0.0,0.0,0.0,0.0,0.0,0.0,0.0,0.0,0.0,0.0,0.0,0.0,0.0,0.0,0.0,0.0,0.0,0.0,0.0,0.0,0.0,0.0,0.0,0.0,0.0,0.0,0.0,0.0,0.0,0.0,0.0,0.0,0.0,0.0,0.0,0.0,0.0,0.0,0.0,0.0,0.0,0.0,0.0,0.0,0.0,0.0,0.0,0.0,0.0,0.0,0.0,0.0,-1.8576,-1.9679,-2.0921,-2.2178,-1.8949,-1.7393,0.0,0.0,0.0,0.0,0.0,0.0,0.0,0.0,0.0,0.0,0.0,0.0,0.0,0.0,0.0,0.0,0.0,0.0,0.0,0.0,0.0,0.0,0.0,0.0,0.0,0.0,0.0,0.0,0.0,0.0,0.0,0.0,0.0,0.0,0.0,0.0,0.0,0.0,0.0,0.0,0.0,0.0,0.0,0.0,0.0,0.0,0.0,0.0,0.0,0.0,0.0,0.0,0.0,0.0,0.0,0.0,0.0,0.0,0.0,0.0,0.0,0.0,0.0,0.0,0.0,0.0,0.0,0.0,0.0,0.0,0.0,0.0,0.0,0.0,0.0,0.0,0.0,0.0,0.0,0.0,0.0,0.0,0.0,0.0,0.0,0.0,0.0,0.0,0.0,0.0,0.0,0.0,0.0,0.0,0.0,0.0,0.0,0.0,0.0,0.0,0.0,0.0,0.0,0.0,0.0,0.0,0.0,0.0,0.0,-1.9723,-2.0543,-2.1503,-2.2701,-1.9173,-1.7615,-1.817,0.0,0.0,0.0,0.0,0.0,0.0,0.0,0.0,0.0,0.0,0.0,0.0,0.0,0.0,0.0,0.0,0.0,0.0,0.0,0.0,0.0,0.0,0.0,0.0,0.0,0.0,0.0,0.0,0.0,0.0,0.0,0.0,0.0,0.0,0.0,0.0,0.0,0.0,0.0,0.0,0.0,0.0,0.0,0.0,0.0,0.0,0.0,0.0,0.0,0.0,0.0,0.0,0.0,0.0,0.0,0.0,0.0,0.0,0.0,0.0,0.0,0.0,0.0,0.0,0.0,0.0,0.0,0.0,0.0,0.0,0.0,0.0,0.0,0.0,0.0,0.0,0.0,0.0,0.0,0.0,0.0,0.0,0.0,0.0,0.0,0.0,0.0,0.0,0.0,0.0,0.0,0.0,0.0,0.0,0.0,0.0,0.0,0.0,0.0,0.0,0.0,0.0,0.0,0.0,0.0,0.0,0.0,0.0,-2.2886,-2.3548,-2.3273,-2.2018,-2.0619,-1.8702,0.0,0.0,0.0,0.0,0.0,0.0,0.0,0.0,0.0,0.0,0.0,0.0,0.0,0.0,0.0,0.0,0.0,0.0,0.0,0.0,0.0,0.0,0.0,0.0,0.0,0.0,0.0,0.0,0.0,0.0,0.0,0.0,0.0,0.0,0.0,0.0,0.0,0.0,0.0,0.0,0.0,0.0,0.0,0.0,0.0,0.0,0.0,0.0,0.0,0.0,0.0,0.0,0.0,0.0,0.0,0.0,0.0,0.0,0.0,0.0,0.0,0.0,0.0,0.0,0.0,0.0,0.0,0.0,0.0,0.0,0.0,0.0,0.0,0.0,0.0,0.0,0.0,0.0,0.0,0.0,0.0,0.0,0.0,0.0,0.0,0.0,0.0,0.0,0.0,0.0,0.0,0.0,0.0,0.0,0.0,0.0,0.0,0.0,0.0,0.0,0.0,0.0,0.0,0.0,0.0,0.0,0.0,0.0,0.0,-2.3041,-2.4557,-2.5152,-2.4606,-2.1355,-1.9228,0.0,0.0,0.0,0.0,0.0,0.0,0.0,0.0,0.0,0.0,0.0,0.0,0.0,0.0,0.0,0.0,0.0,0.0,0.0,0.0,0.0,0.0,0.0,0.0,0.0,0.0,0.0,0.0,0.0,0.0,0.0,0.0,0.0,0.0,0.0,0.0,0.0,0.0,0.0,0.0,0.0,0.0,0.0,0.0,0.0,0.0,0.0,0.0,0.0,0.0,0.0,0.0,0.0,0.0,0.0,0.0,0.0,0.0,0.0,0.0,0.0,0.0,0.0,0.0,0.0,0.0,0.0,0.0,0.0,0.0,0.0,0.0,0.0,0.0,0.0,0.0,0.0,0.0,0.0,0.0,0.0,0.0,0.0,0.0,0.0,0.0,0.0,0.0,0.0,0.0,0.0,0.0,0.0,0.0,0.0,0.0,0.0,0.0,0.0,0.0,0.0,0.0,0.0,0.0,0.0,0.0,0.0,0.0,-2.167,-2.4188,-2.5608,-2.6233,-2.6173,-2.3047,-2.0771,0.0,0.0,0.0,0.0,0.0,0.0,0.0,0.0,0.0,0.0,0.0,0.0,0.0,0.0,0.0,0.0,0.0,0.0,0.0,0.0,0.0,0.0,0.0,0.0,0.0,0.0,0.0,0.0,0.0,0.0,0.0,0.0,0.0,0.0,0.0,0.0,0.0,0.0,0.0,0.0,0.0,0.0,0.0,0.0,0.0,0.0,0.0,0.0,0.0,0.0,0.0,0.0,0.0,0.0,0.0,0.0,0.0,0.0,0.0,0.0,0.0,0.0,0.0,0.0,0.0,0.0,0.0,0.0,0.0,0.0,0.0,0.0,0.0,0.0,0.0,0.0,0.0,0.0,0.0,0.0,0.0,0.0,0.0,0.0,0.0,0.0,0.0,0.0,0.0,0.0,0.0,0.0,0.0,0.0,0.0,0.0,0.0,0.0,0.0,0.0,0.0,0.0,0.0,0.0,0.0,0.0,0.0,0.0,-2.2916,-2.5674,-2.6572,-2.6986,-2.6864,-2.5046,-2.2634,0.0,0.0,0.0,0.0,0.0,0.0,0.0,0.0,0.0,0.0,0.0,0.0,0.0,0.0,0.0,0.0,0.0,0.0,0.0,0.0,0.0,0.0,0.0,0.0,0.0,0.0,0.0,0.0,0.0,0.0,0.0,0.0,0.0,0.0,0.0,0.0,0.0,0.0,0.0,0.0,0.0,0.0,0.0,0.0,0.0,0.0,0.0,0.0,0.0,0.0,0.0,0.0,0.0,0.0,0.0,0.0,0.0,0.0,0.0,0.0,0.0,0.0,0.0,0.0,0.0,0.0,0.0,0.0,0.0,0.0,0.0,0.0,0.0,0.0,0.0,0.0,0.0,0.0,0.0,0.0,0.0,0.0,0.0,0.0,0.0,0.0,0.0,0.0,0.0,0.0,0.0,0.0,0.0,0.0,0.0,0.0,0.0,0.0,0.0,0.0,0.0,0.0,0.0,0.0,0.0,0.0,0.0,0.0,-2.3824,-2.583,-2.74,-2.799,-2.7528,-2.4813,-2.238,0.0,0.0,0.0,0.0,0.0,0.0,0.0,0.0,0.0,0.0,0.0,0.0,0.0,0.0,0.0,0.0,0.0,0.0,0.0,0.0,0.0,0.0,0.0,0.0,0.0,0.0,0.0,0.0,0.0,0.0,0.0,0.0,0.0,0.0,0.0,0.0,0.0,0.0,0.0,0.0,0.0,0.0,0.0,0.0,0.0,0.0,0.0,0.0,-1.0902,0.0,0.0,0.0,0.0,0.0,0.0,0.0,0.0,0.0,0.0,0.0,0.0,0.0,0.0,0.0,0.0,0.0,0.0,0.0,0.0,0.0,0.0,0.0,0.0,0.0,0.0,0.0,0.0,0.0,0.0,0.0,0.0,0.0,0.0,0.0,0.0,0.0,0.0,0.0,0.0,0.0,0.0,0.0,0.0,0.0,0.0,0.0,0.0,0.0,0.0,0.0,0.0,0.0,0.0,0.0,0.0,0.0,0.0,0.0,-2.4448,-2.6161,-2.7751,-2.8373,-2.7904,-2.5635,-2.3366,0.0,0.0,0.0,0.0,0.0,0.0,0.0,0.0,0.0,0.0,0.0,0.0,0.0,0.0,0.0,0.0,0.0,0.0,0.0,0.0,0.0,0.0,0.0,0.0,0.0,0.0,0.0,0.0,0.0,0.0,0.0,0.0,0.0,0.0,0.0,0.0,0.0,0.0,0.0,0.0,0.0,0.0,0.0,0.0,0.0,0.0,0.0,0.0,0.0,0.0,0.0,0.0,0.0,0.0,0.0,0.0,0.0,0.0,0.0,0.0,0.0,0.0,0.0,0.0,0.0,0.0,0.0,0.0,0.0,0.0,0.0,0.0,0.0,0.0,0.0,0.0,0.0,0.0,0.0,0.0,0.0,0.0,0.0,0.0,0.0,0.0,0.0,0.0,0.0,0.0,0.0,0.0,0.0,0.0,0.0,0.0,0.0,0.0,0.0,0.0,0.0,0.0,0.0,0.0,0.0,0.0,0.0,-2.2504,-2.4824,-2.6606,-2.7877,-2.8444,-2.826,-2.6593,-2.452,-2.2163,0.0,0.0,0.0,0.0,0.0,0.0,0.0,0.0,0.0,0.0,0.0,0.0,0.0,0.0,0.0,0.0,0.0,0.0,0.0,0.0,0.0,0.0,0.0,0.0,0.0,0.0,0.0,0.0,0.0,0.0,0.0,0.0,0.0,0.0,0.0,0.0,0.0,0.0,-1.2043,-1.2551,0.0,0.0,0.0,0.0,0.0,0.0,0.0,0.0,-1.1271,0.0,0.0,0.0,0.0,0.0,0.0,0.0,0.0,0.0,0.0,0.0,0.0,0.0,0.0,0.0,0.0,0.0,0.0,0.0,0.0,0.0,0.0,0.0,0.0,0.0,0.0,0.0,0.0,0.0,0.0,0.0,0.0,0.0,0.0,0.0,0.0,0.0,0.0,0.0,0.0,0.0,0.0,0.0,0.0,0.0,0.0,0.0,0.0,0.0,0.0,0.0,0.0,0.0,0.0,0.0,0.0,-2.1419,-2.2667,-2.4565,-2.7198,-2.7937,-2.8365,-2.8233,-2.647,-2.4492,-2.2552,0.0,0.0,0.0,0.0,0.0,0.0,0.0,0.0,0.0,0.0,0.0,0.0,0.0,0.0,0.0,0.0,0.0,0.0,0.0,0.0,0.0,0.0,0.0,0.0,0.0,0.0,0.0,0.0,0.0,0.0,0.0,0.0,0.0,0.0,0.0,0.0,0.0,0.0,0.0,-1.3703,-1.3837,0.0,0.0,0.0,0.0,0.0,0.0,0.0,0.0,-1.066,0.0,0.0,0.0,0.0,0.0,0.0,0.0,0.0,0.0,0.0,0.0,0.0,0.0,0.0,0.0,0.0,0.0,0.0,0.0,0.0,0.0,0.0,0.0,0.0,0.0,0.0,0.0,0.0,0.0,0.0,0.0,0.0,0.0,0.0,0.0,0.0,0.0,0.0,0.0,0.0,0.0,0.0,0.0,0.0,0.0,0.0,0.0,0.0,0.0,0.0,0.0,0.0,0.0,0.0,0.0,-2.1316,-2.3298,-2.5427,-2.7675,-2.7728,-2.7715,-2.7546,-2.5555,-2.3675,0.0,0.0,0.0,0.0,0.0,0.0,0.0,0.0,0.0,0.0,0.0,0.0,0.0,0.0,0.0,0.0,0.0,0.0,0.0,0.0,0.0,0.0,0.0,0.0,0.0,0.0,0.0,0.0,0.0,0.0,0.0,0.0,0.0,0.0,0.0,0.0,0.0,0.0,0.0,0.0,-1.3885,-1.3905,-1.402,0.0,0.0,0.0,0.0,0.0,0.0,-1.1871,-1.1437,0.0,0.0,0.0,0.0,0.0,0.0,0.0,0.0,0.0,0.0,0.0,0.0,0.0,0.0,0.0,0.0,0.0,0.0,0.0,0.0,0.0,0.0,0.0,0.0,0.0,0.0,0.0,0.0,0.0,0.0,0.0,0.0,0.0,0.0,0.0,0.0,0.0,0.0,0.0,0.0,0.0,0.0,0.0,0.0,0.0,0.0,0.0,0.0,0.0,0.0,0.0,0.0,0.0,0.0,0.0,-2.0861,-2.3586,-2.594,-2.7721,-2.7546,-2.7165,-2.6892,-2.4899,-2.306,0.0,0.0,0.0,0.0,0.0,0.0,0.0,0.0,0.0,0.0,0.0,0.0,0.0,0.0,0.0,0.0,0.0,0.0,0.0,0.0,0.0,0.0,0.0,0.0,0.0,0.0,0.0,0.0,0.0,0.0,0.0,0.0,0.0,0.0,0.0,0.0,0.0,0.0,0.0,0.0,0.0,-1.4304,-1.4314,-1.4148,0.0,0.0,0.0,0.0,-1.3476,-1.3186,0.0,0.0,0.0,0.0,0.0,0.0,0.0,0.0,0.0,0.0,0.0,0.0,0.0,0.0,0.0,0.0,0.0,0.0,0.0,0.0,0.0,0.0,0.0,0.0,0.0,0.0,0.0,0.0,0.0,0.0,0.0,0.0,0.0,0.0,0.0,0.0,0.0,0.0,0.0,0.0,0.0,0.0,0.0,0.0,0.0,0.0,0.0,0.0,0.0,0.0,0.0,0.0,0.0,0.0,0.0,0.0,-2.0646,-2.2722,-2.4826,-2.6918,-2.7524,-2.7511,-2.6931,-2.5555,-2.3804,0.0,0.0,0.0,0.0,0.0,0.0,0.0,0.0,0.0,0.0,0.0,0.0,0.0,0.0,0.0,0.0,0.0,0.0,0.0,0.0,0.0,0.0,0.0,0.0,0.0,0.0,0.0,0.0,0.0,0.0,0.0,0.0,0.0,0.0,0.0,0.0,0.0,0.0,0.0,0.0,0.0,-1.6073,-1.4521,-1.4966,-1.5266,0.0,0.0,-1.4904,-1.5308,-1.5328,0.0,0.0,0.0,0.0,0.0,0.0,0.0,0.0,0.0,0.0,0.0,0.0,0.0,0.0,0.0,0.0,0.0,0.0,0.0,0.0,0.0,0.0,0.0,0.0,0.0,0.0,0.0,0.0,0.0,0.0,0.0,0.0,0.0,0.0,0.0,0.0,0.0,0.0,0.0,0.0,0.0,0.0,0.0,0.0,0.0,0.0,0.0,0.0,0.0,0.0,0.0,0.0,0.0,0.0,0.0,-1.87,-2.131,-2.3598,-2.5621,-2.734,-2.7275,-2.6895,-2.6317,-2.4498,-2.2557,0.0,0.0,0.0,0.0,0.0,0.0,0.0,0.0,0.0,0.0,0.0,0.0,0.0,0.0,0.0,0.0,0.0,0.0,0.0,0.0,0.0,0.0,0.0,0.0,0.0,0.0,0.0,0.0,0.0,0.0,0.0,0.0,0.0,0.0,0.0,0.0,0.0,0.0,0.0,0.0,0.0,0.0,-1.5194,-1.5877,0.0,0.0,0.0,-1.6042,-1.6736,0.0,0.0,0.0,0.0,0.0,0.0,0.0,0.0,0.0,0.0,0.0,0.0,0.0,0.0,0.0,0.0,0.0,0.0,0.0,0.0,0.0,0.0,0.0,0.0,0.0,0.0,0.0,0.0,0.0,0.0,0.0,0.0,0.0,0.0,0.0,0.0,0.0,0.0,0.0,0.0,0.0,0.0,0.0,0.0,0.0,0.0,0.0,0.0,0.0,0.0,0.0,0.0,0.0,0.0,0.0,0.0,0.0,-2.1693,-2.4406,-2.6371,-2.7459,-2.7092,-2.6543,-2.5824,-2.3851,0.0,0.0,0.0,0.0,0.0,0.0,0.0,0.0,0.0,0.0,0.0,0.0,0.0,0.0,0.0,0.0,0.0,0.0,0.0,0.0,0.0,0.0,0.0,0.0,0.0,0.0,0.0,0.0,0.0,0.0,0.0,0.0,0.0,0.0,0.0,0.0,0.0,0.0,0.0,0.0,0.0,0.0,-1.6125,-1.5898,-1.6829,-1.7264,0.0,0.0,-1.7253,-1.7812,-1.6943,-1.6073,0.0,0.0,0.0,0.0,0.0,0.0,0.0,0.0,0.0,0.0,0.0,0.0,0.0,0.0,0.0,0.0,0.0,0.0,0.0,0.0,0.0,0.0,0.0,0.0,0.0,0.0,0.0,0.0,0.0,0.0,0.0,0.0,0.0,0.0,0.0,0.0,0.0,0.0,0.0,0.0,0.0,0.0,0.0,0.0,0.0,0.0,0.0,0.0,0.0,0.0,0.0,0.0,0.0,0.0,0.0,-2.1511,-2.4347,-2.6125,-2.6791,-2.7223,-2.6948,-2.585,-2.4648,-2.2662,0.0,0.0,0.0,0.0,0.0,0.0,0.0,0.0,0.0,0.0,0.0,0.0,0.0,0.0,0.0,0.0,0.0,0.0,0.0,0.0,0.0,0.0,0.0,0.0,0.0,0.0,0.0,0.0,0.0,0.0,0.0,0.0,0.0,0.0,0.0,0.0,0.0,0.0,0.0,0.0,0.0,-1.7284,-1.6456,-1.7823,-1.8754,0.0,0.0,-1.8764,-1.8392,-1.8951,-1.8653,-1.6094,0.0,0.0,0.0,0.0,0.0,0.0,0.0,0.0,0.0,0.0,0.0,0.0,0.0,0.0,0.0,0.0,0.0,0.0,0.0,0.0,0.0,0.0,0.0,0.0,0.0,0.0,0.0,0.0,0.0,0.0,0.0,0.0,0.0,0.0,0.0,0.0,0.0,0.0,0.0,0.0,0.0,0.0,0.0,0.0,0.0,0.0,0.0,0.0,0.0,0.0,0.0,0.0,0.0,-1.9028,-2.2008,-2.453,-2.6269,-2.7157,-2.7419,-2.6974,-2.5837,-2.4713,-2.2766,0.0,0.0,0.0,0.0,0.0,0.0,0.0,0.0,0.0,0.0,0.0,0.0,0.0,0.0,0.0,0.0,0.0,0.0,0.0,0.0,0.0,0.0,0.0,0.0,0.0,0.0,0.0,0.0,-1.1724,-1.1619,-1.0638,0.0,0.0,0.0,0.0,0.0,0.0,0.0,0.0,0.0,0.0,-1.7698,-1.7626,-1.8692,0.0,0.0,-1.8723,-1.8878,-1.9541,-1.8764,-1.7916,-1.7419,-1.5804,0.0,0.0,0.0,0.0,0.0,0.0,0.0,0.0,0.0,0.0,0.0,0.0,0.0,0.0,0.0,0.0,0.0,0.0,0.0,0.0,0.0,0.0,0.0,0.0,0.0,0.0,0.0,0.0,0.0,0.0,0.0,0.0,0.0,0.0,0.0,0.0,0.0,0.0,0.0,0.0,0.0,0.0,0.0,0.0,0.0,0.0,0.0,0.0,0.0,0.0,0.0,0.0,-1.9081,-2.2389,-2.4635,-2.6373,-2.7443,-2.7469,-2.7066,-2.6099,-2.4962,-2.3093,0.0,0.0,0.0,0.0,0.0,0.0,0.0,0.0,0.0,0.0,0.0,0.0,0.0,0.0,0.0,0.0,0.0,0.0,0.0,0.0,0.0,0.0,0.0,0.0,0.0,0.0,0.0,0.0,-1.2009,-1.1688,-1.0647,0.0,0.0,0.0,0.0,0.0,0.0,0.0,0.0,0.0,0.0,-1.7936,-1.8516,-1.9261,-1.9696,-1.9499,-1.8971,-1.893,-1.9872,-1.8796,-1.7854,-1.7792,0.0,0.0,0.0,0.0,0.0,0.0,0.0,0.0,0.0,0.0,0.0,0.0,0.0,0.0,0.0,0.0,0.0,0.0,0.0,0.0,0.0,0.0,0.0,0.0,0.0,0.0,0.0,0.0,0.0,0.0,-1.5652,0.0,0.0,0.0,0.0,0.0,0.0,0.0,0.0,0.0,0.0,0.0,0.0,0.0,0.0,0.0,0.0,0.0,0.0,0.0,0.0,0.0,0.0,-1.9486,-2.2389,-2.4661,-2.6309,-2.7417,-2.7469,-2.7249,-2.6648,-2.5537,-2.3838,-2.1485,0.0,0.0,0.0,0.0,0.0,0.0,0.0,0.0,0.0,0.0,0.0,0.0,0.0,0.0,0.0,0.0,0.0,0.0,0.0,0.0,0.0,0.0,0.0,0.0,0.0,0.0,-1.077,-0.9917,-0.9384,0.0,0.0,0.0,0.0,0.0,0.0,0.0,0.0,0.0,0.0,-1.6581,-1.8071,-1.8951,-1.9536,-1.9924,-2.0327,-1.9644,-1.9152,-1.9147,-1.9417,-1.8951,0.0,0.0,0.0,0.0,0.0,0.0,0.0,0.0,0.0,0.0,0.0,0.0,0.0,0.0,0.0,0.0,0.0,0.0,0.0,0.0,0.0,0.0,0.0,0.0,0.0,0.0,0.0,-2.0302,-2.0092,0.0,0.0,0.0,0.0,0.0,0.0,0.0,0.0,0.0,0.0,0.0,-2.3034,-2.3355,0.0,0.0,0.0,0.0,0.0,0.0,0.0,0.0,0.0,0.0,0.0,0.0,-1.9695,-2.2844,-2.4844,-2.6386,-2.7417,-2.7469,-2.7262,-2.6674,-2.5625,-2.3511,-2.0466,0.0,0.0,0.0,0.0,0.0,0.0,0.0,0.0,0.0,0.0,0.0,0.0,0.0,0.0,0.0,0.0,0.0,0.0,0.0,0.0,0.0,0.0,0.0,0.0,0.0,-1.215,0.0,0.0,0.0,0.0,0.0,0.0,0.0,0.0,0.0,0.0,0.0,-1.419,-1.5711,-1.7471,-1.8951,-1.9841,-2.01,-2.0358,0.0,0.0,0.0,0.0,0.0,0.0,0.0,0.0,0.0,0.0,0.0,0.0,0.0,0.0,-1.6668,-1.354,-1.2449,-1.2236,-1.2939,0.0,0.0,0.0,0.0,0.0,0.0,0.0,0.0,0.0,0.0,0.0,0.0,0.0,0.0,-2.2678,0.0,-2.189,0.0,0.0,0.0,0.0,0.0,0.0,0.0,0.0,-2.3444,-2.4669,-2.5686,-2.6205,-2.5981,0.0,-2.4337,-2.2247,0.0,0.0,0.0,0.0,0.0,0.0,0.0,0.0,-2.0597,-2.3171,-2.5132,-2.6582,-2.7484,-2.7469,-2.7353,-2.6961,-2.5667,-2.3629,-2.0806,-1.9224,-1.7787,0.0,0.0,0.0,0.0,0.0,0.0,0.0,0.0,0.0,0.0,0.0,0.0,0.0,0.0,0.0,0.0,0.0,0.0,0.0,0.0,0.0,0.0,0.0,-1.2609,0.0,0.0,0.0,0.0,0.0,0.0,0.0,0.0,0.0,-1.2523,-1.3838,-1.5411,-1.7088,-1.833,-1.9458,-2.0514,0.0,0.0,0.0,0.0,0.0,0.0,0.0,-1.9551,-1.9588,-1.9065,-1.8668,-1.8781,-1.9365,-1.9555,-1.8946,0.0,0.0,-1.5861,-1.4749,-1.4463,-1.5156,-1.4615,-1.4067,-1.4285,-1.3857,-1.3337,0.0,0.0,0.0,0.0,0.0,0.0,0.0,0.0,-2.3799,-2.4179,0.0,-2.3929,0.0,0.0,0.0,0.0,0.0,-2.3316,0.0,0.0,-2.7367,-2.8158,-2.7183,-2.8075,-2.7996,-2.6974,-2.7525,-2.6564,-2.406,-1.9734,0.0,0.0,0.0,0.0,0.0,0.0,-2.2126,-2.3393,-2.5576,-2.6987,-2.7482,-2.7562,-2.7536,-2.7445,-2.5903,-2.423,-2.2518,-2.1328,-1.9467,-1.6689,-1.648,0.0,0.0,0.0,0.0,0.0,0.0,0.0,0.0,0.0,0.0,0.0,0.0,0.0,0.0,0.0,0.0,0.0,0.0,0.0,0.0,-1.3056,0.0,0.0,0.0,0.0,0.0,0.0,0.0,0.0,0.0,0.0,-1.4469,-1.5235,-1.6591,-1.8785,0.0,0.0,0.0,0.0,-2.0803,-2.1725,-2.1466,-2.1031,-2.0586,-2.1217,-2.1186,-1.9499,0.0,0.0,-1.9959,-2.0524,-2.0627,-1.8794,-1.9424,-1.9968,-1.9917,-1.8656,-1.8018,-1.8348,-1.7192,-1.6455,-1.6784,-1.574,-1.4719,-2.8753,0.0,0.0,0.0,0.0,-2.6521,-2.7627,-2.8375,-2.9065,-2.8872,-2.7994,-2.7249,0.0,0.0,0.0,0.0,0.0,0.0,-2.6737,-2.7904,-2.9136,-2.9974,-3.0446,-3.1254,-3.129,-3.0566,-2.9895,-2.8897,-2.7328,-2.5061,-2.2217,-1.8898,0.0,0.0,0.0,0.0,-2.3289,-2.5589,-2.6739,-2.7562,-2.8124,-2.8137,-2.7745,-2.6935,-2.6452,-2.538,-2.3681,-2.2884,-2.1538,-1.9572,-1.827,0.0,0.0,0.0,0.0,0.0,0.0,0.0,0.0,0.0,0.0,0.0,0.0,0.0,0.0,0.0,0.0,0.0,0.0,0.0,-1.338,-1.3778,-1.3531,0.0,0.0,0.0,0.0,0.0,0.0,0.0,0.0,0.0,-1.7088,-1.744,-1.8092,0.0,0.0,-2.042,-2.1466,-2.1497,-2.1735,-2.2646,0.0,0.0,0.0,-2.1849,-2.1745,-2.1538,-2.2232,-2.2656,-2.2273,-2.2418,-2.2381,-2.1572,-2.1676,-2.1689,-2.1431,-1.9807,-1.8711,-1.8913,-1.8458,-1.8063,-1.8455,-1.7678,-1.6826,-3.4069,-3.0984,-2.8749,-2.8014,-2.8475,-2.9859,-3.0817,-3.1472,-3.2215,-3.2071,-3.1261,-3.0438,-2.8882,-2.6778,-2.5733,0.0,0.0,0.0,-2.8856,-3.032,-3.0882,-3.1509,-3.2202,-3.2922,-3.2896,-3.2292,-3.1399,-3.048,-2.9631,-2.8559,-2.6295,-2.2949,0.0,0.0,-2.2441,-2.3555,-2.504,-2.6935,-2.7824,-2.8386,-2.8726,-2.8503,-2.7941,-2.7066,-2.6791,-2.6073,-2.4831,-2.4008,-2.2884,-2.1446,-1.9965,-1.8388,0.0,0.0,0.0,0.0,0.0,0.0,0.0,0.0,0.0,0.0,0.0,-1.2054,0.0,0.0,0.0,0.0,-1.2932,-1.3906,-1.4967,-1.4971,0.0,0.0,0.0,0.0,0.0,0.0,0.0,-1.6343,-1.7222,-1.8164,-1.9303,-1.9624,-1.9944,-2.0503,-2.0959,-2.1518,-2.2252,0.0,-2.2553,-2.3111,-2.3339,-2.3298,-2.2853,-2.2687,-2.2729,-2.2998,-2.3267,-2.3453,-2.3463,-2.3453,-2.3309,-2.2808,-2.2594,-2.2359,-2.2122,-2.0869,-1.999,-2.0254,-1.9474,-1.8995,-1.957,-1.8465,-1.7311,-3.8899,-3.7924,-3.3469,-3.158,-3.1605,-3.3264,-3.3953,-3.3875,-3.3914,-3.4136,-3.4384,-3.3365,-3.2267,-3.1091,-2.9523,0.0,-2.9706,-3.0281,-3.1143,-3.2202,-3.2725,-3.2934,-3.2921,-3.347,-3.3417,-3.2816,-3.2254,-3.1718,-3.1182,-3.0607,-2.9483,-2.7798,-2.6229,-2.5428,-2.5236,-2.6242,-2.7118,-2.7745,-2.8791,-2.934,-2.934,-2.8712,-2.8124,-2.7602,-2.6987,-2.6412,-2.5824,-2.4766,-2.3642,-2.2533,-2.1393,-1.9782,-1.7604,0.0,0.0,0.0,0.0,0.0,0.0,0.0,0.0,0.0,0.0,0.0,0.0,0.0,0.0,0.0,-1.5179,0.0,-1.7194,-1.6356,0.0,0.0,0.0,-1.508,-1.4718,-1.6187,-1.7317,-1.7843,0.0,0.0,-2.1062,0.0,-2.1973,-2.1973,-2.2304,-2.2718,-2.3184,-2.3225,-2.3256,-2.3329,-2.366,-2.3774,-2.3422,-2.3629,-2.3846,-2.3867,-2.3929,-2.3929,-2.3929,-2.3929,-2.3577,-2.2837,-2.2633,-2.2489,-2.2075,-2.1953,-2.1982,-2.1943,-2.0521,-1.9571,-2.0174,-1.8523,-1.7032,-3.9786,-3.921,-3.8056,-3.7066,-3.6337,-3.7104,-3.6998,-3.6253,-3.6684,-3.6201,-3.5077,-3.4789,-3.4045,-3.2947,-3.2542,-3.2659,-3.3208,-3.3796,-3.4437,-3.5077,-3.5221,-3.5064,-3.4698,-3.4829,-3.458,-3.3979,-3.343,-3.3104,-3.2947,-3.2372,-3.1431,-3.0202,-2.9745,-2.8673,-2.7013,-2.7615,-2.8477,-2.9438,-2.9797,-2.9928,-2.9902,-2.8922,-2.832,-2.8177,-2.721,-2.6412,-2.5837,-2.5145,-2.423,-2.3067,-2.1917,-2.0858,-1.9913,-1.7555,0.0,0.0,0.0,0.0,0.0,0.0,0.0,0.0,0.0,-1.5119,-1.252,0.0,-1.5224,0.0,-1.5935,-1.6598,-1.7213,-1.6655,0.0,0.0,-1.7002,-1.7305,-1.7874,-1.8319,-1.8764,-1.922,-2.0172,-2.101,-2.158,-2.2656,-2.3381,-2.3381,-2.3174,-2.3194,-2.3639,-2.3712,-2.3836,-2.4136,-2.4291,-2.4343,-2.4219,-2.4302,-2.4374,-2.4385,-2.4385,-2.4385,-2.4385,-2.4214,-2.4002,-2.3549,-2.3358,-2.3186,-2.2812,-2.2842,-2.2822,-2.2736,-2.1614,-2.0694,-2.0875,-1.9415,-1.8268,-4.0867,-4.037,-4.0383,-4.0004,-3.9416,-3.9207,-3.8749,-3.82,-3.8514,-3.8122,-3.7194,-3.6684,-3.5809,-3.4737,-3.4711,-3.4881,-3.5168,-3.5508,-3.5822,-3.6096,-3.6109,-3.594,-3.5665,-3.5652,-3.5351,-3.4789,-3.4502,-3.4084,-3.3587,-3.326,-3.262,-3.1771,-3.1744,-3.0973,-2.951,-2.9261,-2.9614,-3.049,-3.0516,-3.0398,-3.0124,-2.9235,-2.8543,-2.8007,-2.7379,-2.6543,-2.5484,-2.5145,-2.4426,-2.3263,-2.2126,-2.125,-2.0712,-1.8708,-1.7277,0.0,0.0,0.0,0.0,0.0,0.0,0.0,0.0,0.0,0.0,0.0,-1.6635,0.0,-1.7284,-1.771,-1.8565,-1.8174,-1.8027,-1.8268,-1.8692,-1.9137,-1.9624,-2.0038,-2.0462,-2.0928,-2.16,-2.2211,-2.2687,-2.3401,-2.395,-2.4136,-2.395,-2.3888,-2.4105,-2.4178,-2.4271,-2.4498,-2.455,-2.455,-2.455,-2.455,-2.455,-2.455,-2.455,-2.455,-2.455,-2.4368,-2.4196,-2.3927,-2.3667,-2.3493,-2.3135,-2.3144,-2.3144,-2.2931,-2.2155,-2.1295,-2.074,-1.9381,-1.8149,-4.1938,-4.1428,-4.1415,-4.1389,-4.1246,-4.0239,-3.9782,-3.9716,-3.9716,-3.9677,-3.9547,-3.8553,-3.7534,-3.6567,-3.6475,-3.6436,-3.6436,-3.6371,-3.6332,-3.6332,-3.6332,-3.6292,-3.6214,-3.6227,-3.594,-3.5417,-3.5338,-3.4789,-3.3822,-3.3744,-3.3391,-3.2829,-3.2803,-3.2529,-3.1927,-3.0947,-3.0634,-3.0973,-3.0986,-3.0738,-3.0181,-2.9693,-2.8869,-2.7824,-2.7536,-2.6648,-2.5053,-2.4896,-2.4347,-2.3263,-2.2269,-2.1472,-2.0935,-1.976,-1.861,0.0,-1.6977,0.0,0.0,0.0,0.0,0.0,0.0,0.0,0.0,-1.767,-1.844,-1.9094,-1.8805,-1.912,-2.0296,-2.0092,-1.9758,-1.963,-2.0213,-2.071,-2.0803,-2.1497,-2.2139,-2.2542,-2.2987,-2.3443,-2.3774,-2.3919,-2.4126,-2.454,-2.4612,-2.4643,-2.4695,-2.4602,-2.4519,-2.455,-2.455,-2.455,-2.455,-2.455,-2.455,-2.455,-2.455,-2.455,-2.455,-2.4454,-2.4272,-2.3927,-2.3754,-2.358,-2.3135,-2.3144,-2.3144,-2.3057,-2.2217,-2.1212,-2.0567,-1.9214,-1.7692,-4.2526,-4.2017,-4.2004,-4.1742,-4.1298,-4.1089,-4.071,-4.0265,-4.0265,-4.003,-3.9599,-3.9377,-3.9155,-3.8906,-3.8423,-3.8214,-3.8187,-3.7756,-3.756,-3.7573,-3.756,-3.7299,-3.6841,-3.6828,-3.6528,-3.5953,-3.5508,-3.5195,-3.4959,-3.4476,-3.3966,-3.343,-3.343,-3.3117,-3.2555,0.0,0.0,0.0,-3.0986,-3.0934,-3.0817,-3.0268,-2.9653,-2.8948,-2.7575,0.0,-2.5101,-2.453,-2.3942,-2.3263,-2.3001,0.0,0.0,0.0,0.0,0.0,0.0,0.0,0.0,0.0,0.0,0.0,-2.1655,-2.0823,-1.8469,-1.9621,-2.0342,-1.9851,-1.9765,-2.0063,-2.0978,-2.0603,-2.0721,-2.1725,-2.1994,-2.2242,-2.2615,-2.2822,-2.2967,-2.3049,-2.3463,-2.3784,-2.3908,-2.4188,-2.4581,-2.5026,-2.5099,-2.5254,-2.5554,-2.5016,-2.4581,-2.455,-2.4612,-2.4571,-2.455,-2.4581,-2.4592,-2.455,-2.455,-2.455,-2.4464,-2.4186,-2.3937,-2.3754,-2.3493,-2.3222,-2.3135,-2.3144,-2.3144,-2.3144,-2.1774,-2.0692,-2.1239,-2.0503,-1.9422,-4.2247,0.0,-4.2372,-4.2422,0.0,-4.186,-4.1559,-4.1259,-4.0984,-4.054,-4.0004,-4.0004,-3.9873,-3.9586,-3.9285,-3.9155,-3.9128,-3.8566,-3.8292,-3.8292,-3.8031,-3.7743,-3.7442,-3.7442,-3.7142,-3.6541,-3.6266,-3.5848,-3.5299,-3.4999,-3.4554,-3.4005,-3.3979,-3.3705,-3.3143,-3.2842,-3.2267,-3.1405,-3.1405,-3.1261,-3.0986,-3.0424,-2.9719,-2.8856,0.0,0.0,0.0,0.0,0.0,0.0,0.0,0.0,0.0,0.0,0.0,-2.1498,-2.1485,-2.1485,-2.1498,-2.2034,-2.2622,-2.3197,-2.382,-2.3354,-2.114,-2.1916,-2.2258,-2.176,-2.1845,-2.2001,-2.2334,-2.2018,-2.2066,-2.2749,-2.2832,-2.3018,-2.3443,-2.3536,-2.3608,-2.3836,-2.4064,-2.4281,-2.4519,-2.4726,-2.5047,-2.5471,-2.5554,-2.5637,-2.5802,-2.5502,-2.5213,-2.5202,-2.5202,-2.5202,-2.5171,-2.5006,-2.4881,-2.4784,-2.4695,-2.456,-2.455,-2.4196,-2.3937,-2.3841,-2.3493,-2.3232,-2.3144,-2.3144,-2.3144,-2.3047,-2.2325,-2.1596,-2.1695,-2.015,-1.8696,-4.2169,-4.1739,-4.2734,-4.3114,-4.2984,-4.2513,-4.2317,-4.2265,0.0,0.0,0.0,-4.0566,-4.0331,-3.9899,-3.9795,-3.9756,-3.9703,-3.9141,-3.8867,-3.8841,-3.8305,-3.8044,-3.8044,-3.7952,-3.7639,-3.7168,-3.6946,-3.6371,-3.5456,-3.5247,-3.4894,-3.445,-3.4397,-3.4175,-3.3731,-3.3247,-3.2712,-3.2176,-3.2045,-3.1718,-3.1143,-3.0673,-2.9876,-2.8726,-2.8595,-2.7785,-2.619,-2.5576,-2.5001,-2.4426,-2.3524,-2.3171,-2.3511,-2.3629,-2.3851,-2.423,-2.4465,-2.457,-2.4583,-2.4753,-2.4922,-2.5014,-2.5561,-2.5461,-2.4251,-2.4165,-2.4034,-2.3708,-2.3841,-2.3831,-2.3584,-2.3381,-2.335,-2.3412,-2.3422,-2.3588,-2.3939,-2.4074,-2.4271,-2.4592,-2.4736,-2.4912,-2.5275,-2.5337,-2.5502,-2.5885,-2.6009,-2.6051,-2.6082,-2.5968,-2.5802,-2.5802,-2.5761,-2.5844,-2.5813,-2.5482,-2.5264,-2.5181,-2.4743,-2.456,-2.4454,-2.4282,-2.4024,-2.3841,-2.359,-2.3319,-2.3144,-2.3144,-2.3047,-2.2872,-2.2687,-2.2325,-2.1418,-1.9231,-1.7512,-4.3594,-4.3529,-4.3742,-4.3467,-4.3023,-4.2931,-4.2892,-4.2814,-4.1781,-4.1272,-4.1193,-4.118,-4.1154,-4.1036,-4.054,-4.0292,-4.0265,-3.973,-3.9481,0.0,-3.8867,-3.8593,-3.8566,-3.8122,-3.7861,-3.7704,-3.6737,-3.6149,-3.59,-3.5012,-3.4476,-3.4424,-3.4397,-3.4358,-3.428,-3.4201,-3.3888,-3.3352,-3.2842,-3.2293,-3.1731,-3.1563,-3.1052,-2.9941,-2.9405,-2.8569,-2.7327,-2.6739,-2.6164,-2.5615,-2.5432,-2.5158,-2.4779,-2.5197,-2.5275,-2.4936,-2.5772,-2.6308,-2.6334,-2.7223,-2.8007,-2.8503,-2.8547,-2.7838,-2.6392,-2.5958,-2.5427,-2.4468,-2.4415,-2.4248,-2.3855,-2.3836,-2.396,-2.4302,-2.4353,-2.4385,-2.4488,-2.4799,-2.5047,-2.513,-2.5471,-2.5668,-2.5761,-2.5792,-2.5958,-2.6351,-2.6475,-2.6599,-2.6775,-2.6372,-2.5937,-2.5885,-2.5885,-2.5885,-2.5885,-2.5523,-2.5295,-2.5233,-2.485,-2.455,-2.455,-2.4186,-2.3927,-2.3841,-2.3493,-2.3232,-2.3144,-2.3144,-2.2862,-2.2236,-2.1606,-2.0863,-2.0593,-1.8964,-1.7699,-4.2409,-4.2516,-4.3178,-4.3441,-4.348,-4.348,-4.331,-4.2984,-4.2474,-4.2056,-4.1755,-4.1455,-4.1311,-4.1285,-4.1023,-4.0906,-4.088,-4.0305,-4.0043,-3.9978,-3.9128,-3.871,-3.8658,-3.8148,-3.773,-3.739,-3.6867,-3.6279,-3.5678,-3.5417,-3.5168,-3.4907,-3.4881,-3.4724,-3.4424,-3.4397,-3.4267,-3.4018,-3.347,-3.2894,-3.2333,-3.2306,-3.1757,-3.0634,-3.032,-2.9666,-2.8516,-2.7915,-2.7471,-2.7223,-2.6922,-2.6778,-2.6831,-2.7066,-2.7236,-2.7314,-2.7798,-2.8085,-2.8085,-2.8569,-2.9118,-2.9693,-2.9443,-2.9305,-2.9189,-2.7889,-2.6652,-2.5554,-2.5322,-2.5063,-2.4636,-2.4612,-2.4799,-2.5223,-2.5264,-2.5264,-2.5285,-2.544,-2.5585,-2.5595,-2.5751,-2.5968,-2.6216,-2.6258,-2.6423,-2.6848,-2.6931,-2.7024,-2.721,-2.6993,-2.662,-2.663,-2.663,-2.6506,-2.6289,-2.5875,-2.5533,-2.5285,-2.4763,-2.4581,-2.4464,-2.4196,-2.4024,-2.3851,-2.3493,-2.3319,-2.3144,-2.3144,-2.2872,-2.2599,-2.1695,-2.115,-2.0782,-1.9869,-1.8964,-4.1473,-4.1694,-4.2578,-4.3363,-4.3859,-4.3872,-4.3689,-4.3389,-4.3141,-4.2775,-4.2317,-4.1755,-4.1363,-4.1128,-4.1259,-4.1232,-4.1076,-4.0775,-4.0631,-4.0514,-3.9573,-3.9037,-3.8867,-3.8357,-3.7717,-3.705,-3.6867,-3.6345,-3.56,-3.5783,-3.5796,-3.5508,-3.5469,-3.5182,-3.4607,-3.4593,-3.4528,-3.4384,-3.3992,-3.3483,-3.2921,-3.2894,-3.2398,-3.147,-3.1365,-3.0895,-2.9915,-2.9287,-2.8908,-2.8765,-2.8229,-2.8137,-2.8543,-2.8712,-2.8974,-2.9418,-2.9588,-2.9719,-2.9836,-2.9862,-3.0098,-3.066,-3.0338,-3.056,-3.111,-2.9642,-2.8095,-2.7278,-2.7031,-2.6576,-2.5879,-2.5711,-2.5779,-2.5934,-2.5885,-2.5834,-2.5875,-2.5958,-2.603,-2.6041,-2.603,-2.6185,-2.6455,-2.6475,-2.6506,-2.6775,-2.6951,-2.6951,-2.6951,-2.6941,-2.6962,-2.7096,-2.7179,-2.7024,-2.6641,-2.6165,-2.572,-2.5306,-2.485,-2.4602,-2.4464,-2.4378,-2.411,-2.3851,-2.3677,-2.3406,-2.3144,-2.3144,-2.296,-2.2608,-2.1784,-2.115,-2.0782,-2.0512,-1.9877,-4.232,-4.2762,-4.2866,-4.335,-4.3807,-4.3846,-4.4081,-4.433,-4.348,-4.301,-4.2827,-4.233,-4.1481,-4.0657,-4.1063,-4.1036,-4.0605,-4.1023,-4.1219,-4.1141,-4.0553,-4.0004,-3.9468,-3.8906,-3.8057,-3.705,-3.6502,-3.6201,-3.5979,-3.5626,-3.5639,-3.5979,-3.6031,-3.5757,-3.5273,-3.5195,-3.4946,-3.441,-3.4345,-3.4058,-3.3548,-3.3509,-3.3208,-3.2568,-3.2529,-3.2241,-3.1561,-3.1052,-3.0503,-2.9993,-2.9457,-2.9157,-2.9274,-2.9693,-3.0006,-3.0098,-3.0542,-3.1052,-3.1522,-3.1614,-3.1797,-3.2385,-3.2136,-3.1963,-3.1983,-3.086,-3.0046,-2.9702,-2.9666,-2.8738,-2.736,-2.714,-2.6751,-2.6069,-2.5978,-2.5885,-2.5958,-2.6248,-2.6506,-2.6506,-2.6392,-2.6517,-2.6465,-2.6216,-2.602,-2.6134,-2.6185,-2.6175,-2.6165,-2.6154,-2.6268,-2.6599,-2.6951,-2.6982,-2.6589,-2.6175,-2.5699,-2.5275,-2.484,-2.4602,-2.4464,-2.4378,-2.412,-2.3841,-2.3677,-2.3416,-2.3232,-2.3047,-2.2775,-2.2334,-2.1418,-2.024,-1.9513,-1.9695,-1.9778,-4.0824,-4.1041,-4.1684,-4.233,-4.2866,-4.3219,-4.3493,-4.3637,-4.3232,-4.284,-4.2513,-4.2265,-4.152,-4.0474,-4.105,-4.0984,-4.0474,-4.1036,-4.1311,-4.1259,-4.0697,-4.0135,-3.9586,-3.8985,-3.8109,-3.7077,-3.675,-3.6449,-3.6175,-3.624,-3.6423,-3.6619,-3.6632,-3.6345,-3.5796,-3.5456,-3.5182,-3.492,-3.458,-3.428,-3.4097,-3.4058,-3.3796,-3.33,-3.3221,-3.2947,-3.2398,-3.211,-3.1888,-3.1653,-3.1431,-3.13,-3.13,-3.1522,-3.1653,-3.1653,-3.1862,-3.2097,-3.2319,-3.2346,-3.2437,-3.2672,-3.254,-3.2442,-3.2547,-3.1518,-3.0858,-3.0843,-2.9972,-2.8844,-2.791,-2.7798,-2.7457,-2.6888,-2.6693,-2.6589,-2.632,-2.6444,-2.6486,-2.6216,-2.6154,-2.6165,-2.6134,-2.5999,-2.5896,-2.5885,-2.5875,-2.5834,-2.5865,-2.5885,-2.5958,-2.6123,-2.6341,-2.6361,-2.6175,-2.603,-2.5585,-2.5026,-2.4685,-2.455,-2.4454,-2.4454,-2.4282,-2.3841,-2.3754,-2.3493,-2.3135,-2.3135,-2.296,-2.2236,-2.1695,-2.0782,-1.9869,-1.996,-1.9968,-3.9609,-3.9815,-4.0782,-4.1638,-4.2186,-4.2605,-4.2879,-4.2997,-4.2866,-4.2552,-4.2173,-4.2004,-4.1376,-4.0592,-4.105,-4.0984,-4.054,-4.1036,-4.1311,-4.1272,-4.0853,-4.0292,-3.9612,-3.9168,-3.8266,-3.7207,-3.7181,-3.7024,-3.6671,-3.7011,-3.7246,-3.7246,-3.7246,-3.6946,-3.6371,-3.594,-3.56,-3.5286,-3.4842,-3.4567,-3.4424,-3.4397,-3.4214,-3.3849,-3.3809,-3.3535,-3.2973,-3.2934,-3.2855,-3.2698,-3.2672,-3.2672,-3.2672,-3.2672,-3.2672,-3.2672,-3.2672,-3.2764,-3.2921,-3.2934,-3.2999,-3.3062,-3.2833,-3.2864,-3.2784,-3.1919,-3.1378,-3.138,-3.0109,-2.8999,-2.8294,-2.8189,-2.7903,-2.741,-2.7272,-2.7076,-2.663,-2.6579,-2.6392,-2.5958,-2.5792,-2.5637,-2.5544,-2.5482,-2.5451,-2.5451,-2.5482,-2.5513,-2.5513,-2.5492,-2.5513,-2.5668,-2.5709,-2.5709,-2.5699,-2.5668,-2.5316,-2.4871,-2.455,-2.455,-2.455,-2.455,-2.4368,-2.3927,-2.3841,-2.3667,-2.3222,-2.3135,-2.2775,-2.2325,-2.1686,-2.0872,-1.9778,-1.996,-2.0051,-3.9609,-3.9815,-4.0782,-4.1625,-4.216,-4.22,-4.25,-4.2866,-4.2422,-4.2173,-4.2056,-4.1598,-4.1023,-4.0501,-4.1063,-4.0997,-4.0553,-4.1076,-4.1311,-4.1259,-4.1219,-4.0657,-3.9664,-3.956,-3.8671,-3.7286,-3.7639,-3.7835,-3.7795,-3.7835,-3.7861,-3.7848,-3.7808,-3.7547,-3.7037,-3.6867,-3.6371,-3.5508,-3.5273,-3.4986,-3.4489,-3.4424,-3.4384,-3.4332,-3.4345,-3.4071,-3.3626,-3.3548,-3.33,-3.2751,-3.2764,-3.2738,-3.2725,-3.2738,-3.2764,-3.2751,-3.2738,-3.2973,-3.347,-3.3548,-3.3662,-3.3926,-3.3688,-3.3526,-3.3259,-3.2216,-3.1553,-3.1524,-3.0504,-2.9579,-2.8718,-2.85,-2.8172,-2.7421,-2.7336,-2.7013,-2.6589,-2.6455,-2.6341,-2.5875,-2.5471,-2.514,-2.464,-2.4602,-2.4695,-2.4705,-2.4654,-2.4685,-2.4747,-2.4609,-2.4861,-2.514,-2.5254,-2.5254,-2.5254,-2.5357,-2.5119,-2.4726,-2.455,-2.455,-2.455,-2.4464,-2.4196,-2.4013,-2.3841,-2.3667,-2.3232,-2.2775,-2.2236,-2.1596,-2.0953,-2.0141,-1.9687,-1.9877,-1.9869,-4.0032,-4.0668,-4.111,-4.1442,-4.1611,-4.1625,-4.1742,-4.1899,-4.1729,-4.1625,-4.1585,-4.1402,-4.118,-4.101,-4.1219,-4.0984,-4.054,-4.1415,-4.1468,-4.0814,-4.0749,-4.0135,-3.9128,-3.9037,-3.8776,-3.824,-3.8318,-3.841,-3.8423,-3.8423,-3.824,-3.7939,-3.79,-3.7782,-3.756,-3.7181,-3.6776,-3.6358,-3.5691,-3.5182,-3.4959,-3.4593,-3.4397,-3.4397,-3.4397,-3.4306,-3.4123,-3.411,-3.4005,-3.3783,-3.3796,-3.3783,-3.3783,-3.3783,-3.3783,-3.3783,-3.3783,-3.3888,-3.4071,-3.411,-3.4105,-3.4121,-3.3992,-3.3751,-3.3313,-3.2426,-3.1536,-3.0734,-2.9818,-2.8817,-2.8175,-2.8362,-2.8351,-2.7505,-2.6993,-2.6651,-2.6196,-2.5885,-2.5533,-2.513,-2.4861,-2.4716,-2.4612,-2.455,-2.455,-2.455,-2.455,-2.4581,-2.455,-2.455,-2.4674,-2.4736,-2.4788,-2.4788,-2.4788,-2.5088,-2.5109,-2.4757,-2.455,-2.455,-2.455,-2.455,-2.4282,-2.3927,-2.3841,-2.358,-2.3232,-2.3047,-2.2325,-2.1596,-2.0773,-2.0051,-1.9786,-1.9604,-1.9413,-4.0249,-4.1211,-4.1311,-4.1311,-4.1311,-4.1311,-4.1311,-4.1311,-4.1311,-4.1311,-4.1311,-4.1311,-4.1311,-4.1363,-4.1507,-4.1259,-4.0814,-4.152,-4.1455,-4.0736,-4.0501,-3.9913,-3.9128,-3.8998,-3.8893,-3.8776,-3.8919,-3.9076,-3.9181,-3.888,-3.8514,-3.8187,-3.8004,-3.79,-3.7821,-3.7482,-3.722,-3.6894,-3.624,-3.577,-3.5547,-3.5168,-3.4855,-3.4711,-3.4685,-3.458,-3.441,-3.4397,-3.4397,-3.4397,-3.4397,-3.4217,-3.3966,-3.3953,-3.3953,-3.3966,-3.4217,-3.4397,-3.4397,-3.4397,-3.4314,-3.4004,-3.4172,-3.4007,-3.3146,-3.239,-3.1384,-3.0271,-2.9091,-2.8116,-2.7809,-2.7999,-2.7998,-2.7389,-2.6848,-2.6382,-2.5927,-2.5502,-2.5068,-2.4705,-2.4592,-2.456,-2.4571,-2.4685,-2.4767,-2.4767,-2.4861,-2.4974,-2.4974,-2.4974,-2.4892,-2.4799,-2.483,-2.4757,-2.4685,-2.483,-2.4954,-2.4664,-2.455,-2.455,-2.455,-2.455,-2.4368,-2.3937,-2.3667,-2.3493,-2.3319,-2.3144,-2.2599,-2.1872,-2.0872,-2.0051,-1.9596,-1.9055,-1.9147,-4.0249,-4.1211,-4.1311,-4.1311,-4.1311,-4.1311,-4.1311,-4.1311,-4.1311,-4.1311,-4.1311,-4.1311,-4.1311,-4.1402,-4.1768,-4.1768,-4.1337,-4.1363,-4.1311,-4.1102,-4.0644,-4.0082,-3.9468,-3.9403,-3.922,-3.8854,-3.9377,-3.9886,-4.02,-3.9351,-3.8815,-3.8619,-3.8187,-3.7965,-3.79,-3.7821,-3.7573,-3.7155,-3.6907,-3.6632,-3.6188,-3.6018,-3.573,-3.5351,-3.5299,-3.5064,-3.4515,-3.4437,-3.4397,-3.4397,-3.4397,-3.3953,-3.3348,-3.3164,-3.3079,-3.3313,-3.392,-3.4256,-3.4405,-3.436,-3.4257,-3.3871,-3.4216,-3.3859,-3.2557,-3.1961,-3.1251,-3.013,-2.901,-2.8011,-2.7918,-2.7637,-2.7483,-2.722,-2.6848,-2.6392,-2.5978,-2.5523,-2.5088,-2.4757,-2.4609,-2.4506,-2.4674,-2.4974,-2.5213,-2.5285,-2.5502,-2.5699,-2.5668,-2.5658,-2.5616,-2.5357,-2.5223,-2.513,-2.484,-2.4581,-2.4602,-2.4495,-2.456,-2.455,-2.455,-2.4464,-2.4282,-2.3927,-2.357,-2.3396,-2.3232,-2.3047,-2.2784,-2.205,-2.1051,-2.0141,-1.9596,-1.9239,-1.9147,-4.0249,-4.1211,-4.1311,-4.1311,-4.1311,-4.1311,-4.1311,-4.1311,-4.1311,-4.1311,-4.1311,-4.1311,-4.1311,-4.1337,-4.152,-4.1494,-4.1324,-4.1298,-4.1102,-4.0736,-4.0514,-3.9926,-3.9181,-3.9024,-3.9102,-3.9455,-4.0331,-4.0631,-4.0383,-4.003,-3.952,-3.8815,-3.8566,-3.8253,-3.7939,-3.7887,-3.7782,-3.7612,-3.7207,-3.6907,-3.6684,-3.6319,-3.6031,-3.5874,-3.5848,-3.5744,-3.5547,-3.4816,-3.4424,-3.4424,-3.4397,-3.4217,-3.3882,-3.3348,-3.3169,-3.3408,-3.3107,-3.3495,-3.4376,-3.4489,-3.4275,-3.3958,-3.3928,-3.3266,-3.1996,-3.1688,-3.1157,-3.0285,-2.9634,-2.9072,-2.8171,-2.7821,-2.7572,-2.7378,-2.6858,-2.6517,-2.6279,-2.5916,-2.5658,-2.5513,-2.5461,-2.5461,-2.5461,-2.5637,-2.5668,-2.5678,-2.5834,-2.5947,-2.5927,-2.5989,-2.5865,-2.5689,-2.5647,-2.5595,-2.5337,-2.5099,-2.5016,-2.4861,-2.4716,-2.456,-2.455,-2.4464,-2.4196,-2.3927,-2.357,-2.3309,-2.3135,-2.3047,-2.2775,-2.2236,-2.123,-2.0503,-1.9869,-1.9422,-1.9147,-4.0032,-4.0668,-4.111,-4.1311,-4.1311,-4.1311,-4.1311,-4.1311,-4.1311,-4.1311,-4.1311,-4.1311,-4.1311,-4.1311,-4.1311,-4.1311,-4.1311,-4.1311,-4.1115,-4.0736,-4.0488,-3.9991,-3.939,-3.9351,-3.9507,-3.9991,-4.0853,-4.1115,-4.0749,-4.0501,-4.0043,-3.9429,-3.9141,-3.8762,-3.8253,-3.82,-3.8135,-3.7887,-3.7534,-3.7338,-3.7273,-3.6972,-3.6671,-3.6387,-3.6056,-3.5952,-3.5996,-3.5033,-3.4684,-3.4769,-3.4414,-3.3982,-3.3882,-3.3017,-3.2592,-3.2756,-3.2786,-3.3022,-3.3887,-3.385,-3.3717,-3.3349,-3.332,-3.2771,-3.1587,-3.1386,-3.1064,-3.0313,-2.9864,-2.9367,-2.8375,-2.7997,-2.7738,-2.7293,-2.6848,-2.6527,-2.633,-2.6061,-2.5896,-2.5834,-2.5844,-2.5885,-2.5885,-2.6072,-2.6113,-2.6134,-2.6279,-2.6392,-2.6392,-2.6423,-2.632,-2.6206,-2.6123,-2.602,-2.5854,-2.5668,-2.5492,-2.5213,-2.4933,-2.4705,-2.455,-2.4378,-2.4196,-2.3754,-2.3396,-2.3222,-2.3144,-2.3047,-2.2862,-2.2138,-2.132,-2.0331,-1.9513,-1.888,-1.8603,-3.9609,-3.9815,-4.0896,-4.1311,-4.1311,-4.1311,-4.1311,-4.1311,-4.1311,-4.1311,-4.1311,-4.1311,-4.1311,-4.1311,-4.1311,-4.1311,-4.1311,-4.1311,-4.1298,-4.1115,-4.0788,-4.0409,-4.0239,-4.0109,-4.0095,-4.0305,-4.0827,-4.1128,-4.1023,-4.0631,-4.0409,-4.0239,-3.9821,-3.9298,-3.8749,-3.859,-3.8303,-3.7952,-3.7769,-3.7638,-3.7835,-3.7835,-3.7599,-3.6987,-3.6171,-3.5785,-3.6158,-3.5456,-3.5162,-3.5732,-3.4332,-3.3594,-3.314,-3.2253,-3.17,-3.1898,-3.2477,-3.2806,-3.2899,-3.2948,-3.2712,-3.2499,-3.2622,-3.2161,-3.1041,-3.099,-3.0992,-3.0109,-2.9745,-2.9247,-2.869,-2.8276,-2.7821,-2.7303,-2.692,-2.6537,-2.6072,-2.6041,-2.6123,-2.6082,-2.5989,-2.5989,-2.6103,-2.6403,-2.6558,-2.6662,-2.69,-2.7024,-2.7086,-2.6972,-2.6972,-2.6827,-2.662,-2.6527,-2.6392,-2.6103,-2.5937,-2.5771,-2.5409,-2.5037,-2.4609,-2.4374,-2.412,-2.3667,-2.3319,-2.3144,-2.3135,-2.3047,-2.2687,-2.1961,-2.106,-1.9968,-1.9155,-1.8611,-1.8611,-3.9287,-4.0883,-4.1198,-4.1311,-4.1311,-4.1311,-4.1311,-4.1311,-4.1311,-4.1311,-4.1311,-4.1311,-4.1311,-4.1311,-4.1311,-4.1311,-4.1311,-4.1311,-4.1311,-4.1285,-4.118,-4.0801,-4.0396,-4.0017,-3.9847,-3.9803,-4.0024,-4.0252,-4.0618,-4.0304,-4.0298,-4.0409,-4.0129,-3.9568,-3.8773,-3.8023,-3.7728,-3.7794,-3.7108,-3.7201,-3.7795,-3.79,-3.7835,-3.7612,-3.6561,-3.6485,-3.7235,-3.637,-3.5925,-3.5986,-3.4945,-3.4222,-3.401,-3.2512,-3.1734,-3.1997,-3.1675,-3.2018,-3.2782,-3.2851,-3.2556,-3.237,-3.2128,-3.1581,-3.0305,-3.0307,-3.0297,-2.9973,-2.9849,-2.9611,-2.9156,-2.8669,-2.809,-2.7407,-2.7107,-2.6982,-2.6879,-2.69,-2.69,-2.69,-2.6858,-2.6817,-2.6837,-2.692,-2.7044,-2.7076,-2.7158,-2.7272,-2.7272,-2.7262,-2.7138,-2.7179,-2.7065,-2.7024,-2.69,-2.6599,-2.6392,-2.631,-2.5968,-2.5523,-2.4954,-2.4374,-2.3971,-2.3493,-2.3319,-2.3144,-2.3144,-2.3135,-2.2422,-2.1784,-2.0872,-1.9869,-1.8972,-1.8241,-1.8696,-3.9378,-4.0668,-4.1097,-4.1311,-4.1311,-4.1311,-4.1311,-4.1311,-4.1311,-4.1311,-4.1311,-4.1311,-4.1311,-4.1311,-4.1311,-4.1311,-4.1311,-4.1311,-4.1311,-4.1311,-4.1298,-4.0958,-4.0514,-4.0252,-3.9888,-3.9033,-3.9226,-3.906,-3.8791,-3.8968,-3.9168,-3.9325,-3.9578,-3.909,-3.8088,-3.7604,-3.7159,-3.7117,-3.6615,-3.6815,-3.7795,-3.79,-3.7598,-3.7201,-3.6225,-3.6048,-3.6427,-3.632,-3.6261,-3.5859,-3.4892,-3.405,-3.3849,-3.2522,-3.1791,-3.1961,-3.1494,-3.1627,-3.2028,-3.2117,-3.1812,-3.1575,-3.1278,-3.0785,-3.0183,-2.9994,-2.9994,-2.9994,-2.9994,-2.9766,-2.9311,-2.8721,-2.8038,-2.7407,-2.7272,-2.7272,-2.7272,-2.7231,-2.7262,-2.7272,-2.7272,-2.7272,-2.7272,-2.7272,-2.7272,-2.7262,-2.7231,-2.7272,-2.7272,-2.7272,-2.7272,-2.7272,-2.7272,-2.7189,-2.7148,-2.692,-2.6806,-2.6724,-2.629,-2.5838,-2.5278,-2.4573,-2.4057,-2.3643,-2.334,-2.3144,-2.3144,-2.2872,-2.2227,-2.1507,-2.0683,-1.9687,-1.8603,-1.7971,-1.8427,-3.9762,-3.9815,-4.0896,-4.1311,-4.1311,-4.1311,-4.1376,-4.1415,-4.135,-4.1376,-4.1415,-4.1363,-4.1311,-4.1311,-4.1311,-4.1311,-4.1311,-4.1311,-4.111,-4.0997,-4.0958,-4.0624,-3.9963,-4.0279,-3.9546,-3.8228,-3.8392,-3.7779,-3.7241,-3.7205,-3.755,-3.8178,-3.8554,-3.8176,-3.7409,-3.693,-3.663,-3.6445,-3.6256,-3.6685,-3.7539,-3.7803,-3.7411,-3.6493,-3.5659,-3.5078,-3.5199,-3.5451,-3.5866,-3.6106,-3.4276,-3.3395,-3.3132,-3.2174,-3.1677,-3.1655,-3.1553,-3.1381,-3.1219,-3.1127,-3.0713,-3.0599,-3.0297,-2.9994,-2.9994,-2.9994,-2.9994,-2.9994,-2.9994,-2.9725,-2.9187,-2.8462,-2.7883,-2.7417,-2.7272,-2.7272,-2.7272,-2.7272,-2.7272,-2.7272,-2.7272,-2.7272,-2.7272,-2.7272,-2.7272,-2.7272,-2.7272,-2.7272,-2.7272,-2.7272,-2.7272,-2.7272,-2.7272,-2.7272,-2.7251,-2.722,-2.7179,-2.7117,-2.6587,-2.6052,-2.5645,-2.4977,-2.4326,-2.381,-2.3516,-2.331,-2.3144,-2.2687,-2.2157,-2.123,-2.0413,-1.9147,-1.7963,-1.7699,-1.7878,-4.0554,-4.0997,-4.1211,-4.1311,-4.1311,-4.1324,-4.1572,-4.1925,-4.1507,-4.1585,-4.1808,-4.1533,-4.1337,-4.1311,-4.1311,-4.1311,-4.1311,-4.1211,-4.0896,-4.0032,-3.9917,-3.934,-3.8782,-3.8991,-3.8527,-3.7331,-3.6472,-3.6251,-3.6331,-3.6636,-3.7369,-3.7742,-3.763,-3.7789,-3.7005,-3.5572,-3.5415,-3.6007,-3.5915,-3.6209,-3.7132,-3.7627,-3.7305,-3.6269,-3.5581,-3.5172,-3.4664,-3.4178,-3.4276,-3.4581,-3.3895,-3.3101,-3.2901,-3.2117,-3.1618,-3.1527,-3.1424,-3.123,-3.1127,-3.0806,-3.0505,-3.0401,-3.0203,-2.9994,-2.9994,-2.9994,-2.9994,-2.9994,-2.9984,-2.9653,-2.8918,-2.8607,-2.8048,-2.75,-2.7272,-2.7272,-2.7272,-2.7272,-2.7272,-2.7272,-2.7272,-2.7272,-2.7272,-2.7272,-2.7272,-2.7272,-2.7272,-2.7272,-2.7272,-2.7272,-2.7272,-2.7272,-2.7272,-2.7272,-2.7272,-2.7272,-2.7272,-2.7272,-2.6812,-2.6405,-2.5903,-2.5415,-2.474,-2.4183,-2.375,-2.3545,-2.3359,-2.3037,-2.2606,-2.1374,-2.0141,-1.9147,-1.8234,-1.7785,-1.7785,-4.1699,-4.1729,-4.1716,-4.1559,-4.1337,-4.1324,-4.1638,-4.2043,-4.186,-4.1873,-4.2056,-4.1821,-4.1572,-4.1324,-4.1311,-4.1311,-4.1097,-4.0668,-4.0236,-3.9597,-3.9067,-3.8218,-3.7358,-3.7309,-3.7082,-3.6273,-3.5815,-3.528,-3.4795,-3.5121,-3.5242,-3.5728,-3.6045,-3.5665,-3.5355,-3.4252,-3.4603,-3.5502,-3.5178,-3.5641,-3.7133,-3.7159,-3.6944,-3.6213,-3.5544,-3.5076,-3.5098,-3.4158,-3.383,-3.3679,-3.3124,-3.242,-3.242,-3.1924,-3.1618,-3.1516,-3.1322,-3.1127,-3.092,-3.0599,-3.0297,-3.0193,-3.0099,-2.9994,-2.9994,-2.9994,-2.9994,-2.9994,-2.9922,-2.9632,-2.8752,-2.8607,-2.8173,-2.7521,-2.7272,-2.7272,-2.7272,-2.7272,-2.7272,-2.7272,-2.7272,-2.7272,-2.7272,-2.7272,-2.7272,-2.7272,-2.7272,-2.7272,-2.7272,-2.7272,-2.7272,-2.7272,-2.7272,-2.7272,-2.7272,-2.7272,-2.7272,-2.7177,-2.6935,-2.6683,-2.6275,-2.5794,-2.5224,-2.4756,-2.4189,-2.3867,-2.3672,-2.3338,-2.2682,-2.1105,-1.9968,-1.9239,-1.8696,-1.8241,-1.8511,-4.2658,-4.1969,-4.2241,-4.2056,-4.1533,-4.1677,-4.2069,-4.2409,-4.2226,-4.2186,-4.2213,-4.216,-4.1651,-4.1389,-4.1311,-4.1211,-4.0782,-4.0134,-3.9494,-3.8662,-3.8019,-3.6965,-3.6208,-3.5934,-3.5882,-3.5397,-3.5192,-3.4252,-3.3354,-3.3071,-3.3994,-3.366,-3.3763,-3.4229,-3.3669,-3.3275,-3.3931,-3.5129,-3.4859,-3.5184,-3.6852,-3.6579,-3.6252,-3.5479,-3.504,-3.4762,-3.4867,-3.4333,-3.3697,-3.3364,-3.2374,-3.1841,-3.1717,-3.164,-3.1527,-3.1527,-3.1219,-3.1023,-3.0713,-3.0505,-3.0193,-2.9994,-2.9994,-2.9994,-2.9994,-2.9994,-2.9994,-2.9994,-2.9922,-2.9622,-2.8763,-2.8618,-2.8162,-2.7521,-2.7272,-2.7272,-2.7272,-2.7272,-2.7272,-2.7272,-2.7272,-2.7272,-2.7272,-2.7272,-2.7272,-2.7272,-2.7272,-2.7272,-2.7272,-2.7272,-2.7272,-2.7272,-2.7272,-2.7272,-2.7272,-2.7272,-2.7272,-2.7167,-2.7071,-2.6784,-2.6496,-2.6028,-2.5444,-2.5104,-2.4668,-2.4336,-2.4004,-2.376,-2.2711,-2.0922,-1.9977,-1.9513,-1.9147,-1.8696,-1.918,-4.2564,-4.0736,-4.2747,-4.2984,-4.2252,-4.301,-4.3402,-4.3402,-4.2565,-4.2461,-4.2709,-4.1912,-4.1494,-4.1224,-4.1311,-4.0782,-3.9917,-3.9287,-3.8441,-3.7299,-3.6545,-3.5916,-3.5157,-3.4947,-3.488,-3.4637,-3.4373,-3.3911,-3.3645,-3.3709,-3.3704,-3.4108,-3.3982,-3.3811,-3.3844,-3.3724,-3.3611,-3.4866,-3.4819,-3.5271,-3.5888,-3.6049,-3.5657,-3.4753,-3.4289,-3.4437,-3.4484,-3.3964,-3.3521,-3.4107,-3.296,-3.2389,-3.2186,-3.1799,-3.1522,-3.1333,-3.1023,-3.0724,-3.0505,-3.0203,-3.0099,-2.9994,-2.9994,-2.9994,-2.9994,-2.9994,-2.9994,-2.9994,-2.9932,-2.9622,-2.8731,-2.8618,-2.8173,-2.7572,-2.7272,-2.7272,-2.7272,-2.7272,-2.7272,-2.7272,-2.7272,-2.7272,-2.7272,-2.7272,-2.7272,-2.7272,-2.7272,-2.7272,-2.7272,-2.7272,-2.7272,-2.7272,-2.7272,-2.7272,-2.7272,-2.7272,-2.7272,-2.7167,-2.6976,-2.6688,-2.64,-2.6024,-2.5643,-2.5283,-2.5059,-2.4795,-2.4453,-2.4111,-2.295,-2.1494,-2.0698,-2.0011,-1.9862,-1.9717,-1.9063,-4.3028,-4.1913,-4.3932,-4.3938,-4.2905,-4.3506,-4.3872,-4.3742,-4.2997,-4.2748,-4.2709,-4.2134,-4.1256,-4.0644,-4.0453,-3.9815,-3.8859,-3.8019,-3.718,-3.6231,-3.5598,-3.5168,-3.4524,-3.4524,-3.4524,-3.4458,-3.4272,-3.401,-3.3781,-3.3796,-3.381,-3.3347,-3.3261,-3.3202,-3.3358,-3.295,-3.3643,-3.4653,-3.4622,-3.486,-3.5603,-3.5606,-3.4968,-3.4977,-3.4439,-3.4545,-3.4785,-3.4066,-3.3623,-3.3582,-3.2926,-3.2637,-3.2434,-3.2165,-3.1715,-3.1266,-3.0859,-3.0527,-3.0401,-3.0193,-2.9994,-2.9994,-3.0015,-2.9994,-2.9994,-2.9994,-3.0046,-3.0005,-2.9963,-2.9622,-2.8731,-2.8649,-2.8162,-2.751,-2.7293,-2.7303,-2.7282,-2.7282,-2.7282,-2.7282,-2.7272,-2.7272,-2.7272,-2.7272,-2.7272,-2.7272,-2.7272,-2.7272,-2.7272,-2.7272,-2.7272,-2.7272,-2.7272,-2.7272,-2.7272,-2.7272,-2.7272,-2.7167,-2.6976,-2.6688,-2.64,-2.612,-2.5781,-2.5527,-2.5332,-2.5166,-2.4753,-2.4236,-2.3149,-2.2173,-2.1436,-2.0933,-2.0933,-2.0738,-2.0085,-4.3415,-4.3021,-4.5096,-4.4892,-4.348,-4.4081,-4.4186,-4.3807,-4.3258,-4.2697,-4.2437,-4.1789,-4.0722,-3.9581,-3.9171,-3.8638,-3.7571,-3.6654,-3.6231,-3.5697,-3.5058,-3.4524,-3.4524,-3.4524,-3.4524,-3.4524,-3.4491,-3.4316,-3.4032,-3.3868,-3.3366,-3.32,-3.2882,-3.2689,-3.2885,-3.3079,-3.4028,-3.4263,-3.4244,-3.4467,-3.5176,-3.5058,-3.4836,-3.5697,-3.4947,-3.4737,-3.4926,-3.436,-3.3781,-3.3519,-3.3085,-3.2771,-3.2642,-3.2361,-3.1859,-3.1358,-3.0895,-3.0674,-3.0601,-3.0537,-3.0419,-3.0439,-3.0325,-3.0305,-3.0325,-3.0419,-3.0315,-3.017,-3.0139,-2.9787,-2.9021,-2.8783,-2.838,-2.7862,-2.7603,-2.751,-2.7479,-2.7438,-2.7376,-2.7355,-2.7293,-2.7272,-2.7272,-2.7272,-2.7272,-2.7272,-2.7272,-2.7272,-2.7272,-2.7272,-2.7272,-2.7272,-2.7272,-2.7272,-2.7272,-2.7272,-2.7272,-2.7272,-2.6976,-2.6592,-2.641,-2.6217,-2.5868,-2.5644,-2.5635,-2.5372,-2.49,-2.4402,-2.353,-2.2749,-2.2099,-2.1691,-2.1449,-2.1423,-2.1105,-4.3186,-4.2524,-4.5723,-4.5833,-4.4173,-4.5388,-4.5205,-4.3872,-4.3166,-4.2085,-4.0812,-4.0115,-3.927,-3.8336,-3.8007,-3.737,-3.6654,-3.6122,-3.5587,-3.4947,-3.4624,-3.4524,-3.4524,-3.4524,-3.4524,-3.4524,-3.4524,-3.4502,-3.4305,-3.3999,-3.3977,-3.3879,-3.3355,-3.3322,-3.3781,-3.3551,-3.4032,-3.4538,-3.4449,-3.4471,-3.4681,-3.4602,-3.4635,-3.4747,-3.4624,-3.4591,-3.467,-3.4449,-3.4172,-3.3917,-3.3429,-3.3047,-3.2763,-3.2215,-3.1927,-3.1769,-3.1629,-3.1521,-3.1231,-3.1158,-3.104,-3.1029,-3.1091,-3.1184,-3.1071,-3.104,-3.0915,-3.0626,-3.0584,-3.017,-2.9435,-2.9218,-2.8918,-2.8587,-2.8255,-2.809,-2.7945,-2.7655,-2.7583,-2.7417,-2.7365,-2.7303,-2.7272,-2.7272,-2.7272,-2.7272,-2.7272,-2.7272,-2.7272,-2.7272,-2.7272,-2.7272,-2.7272,-2.7272,-2.7272,-2.7272,-2.7272,-2.7272,-2.6986,-2.6592,-2.6304,-2.612,-2.5927,-2.5713,-2.5732,-2.5732,-2.5354,-2.4746,-2.3932,-2.3419,-2.2943,-2.2258,-2.1553,-2.1683,-2.2092,-4.3559,-4.3398,-4.5779,-4.5898,-4.4591,-4.5558,-4.485,-4.3079,-4.2281,-4.1059,-3.966,-3.8895,-3.8019,-3.7073,-3.6329,-3.5685,-3.5279,-3.5279,-3.5058,-3.4624,-3.4524,-3.4524,-3.4524,-3.4524,-3.4524,-3.4524,-3.4524,-3.4524,-3.4436,-3.4338,-3.425,-3.4054,-3.3737,-3.3595,-3.4272,-3.3945,-3.4098,-3.436,-3.4491,-3.4371,-3.4261,-3.436,-3.4524,-3.4524,-3.4524,-3.4524,-3.4412,-3.43,-3.4199,-3.4,-3.3512,-3.3072,-3.2913,-3.25,-3.2148,-3.2361,-3.235,-3.1999,-3.1464,-3.1422,-3.1433,-3.1402,-3.1402,-3.134,-3.1381,-3.1402,-3.136,-3.1112,-3.0822,-3.0367,-2.9787,-2.9466,-2.9073,-2.8804,-2.8763,-2.8587,-2.8338,-2.8017,-2.78,-2.7614,-2.7448,-2.7427,-2.7396,-2.7355,-2.7334,-2.7272,-2.7272,-2.7272,-2.7272,-2.7272,-2.7272,-2.7272,-2.7272,-2.7272,-2.7272,-2.7272,-2.7177,-2.7081,-2.6794,-2.6506,-2.6207,-2.6014,-2.583,-2.5732,-2.5732,-2.5625,-2.5625,-2.5111,-2.4212,-2.404,-2.3809,-2.3247,-2.2716,-2.285,-2.2806,-4.3619,-4.3795,-4.5695,-4.5682,-4.4326,-4.4753,-4.3602,-4.1554,-4.0931,-3.9753,-3.8311,-3.7333,-3.6534,-3.5806,-3.5058,-3.4736,-3.4524,-3.4524,-3.4524,-3.4524,-3.4524,-3.4524,-3.4524,-3.4524,-3.4524,-3.4524,-3.4524,-3.4524,-3.4556,-3.4589,-3.4524,-3.4141,-3.4098,-3.4218,-3.4305,-3.4338,-3.4458,-3.4698,-3.46,-3.4371,-3.4174,-3.4371,-3.4491,-3.4524,-3.4423,-3.4423,-3.4412,-3.4076,-3.3974,-3.346,-3.3136,-3.2797,-3.2483,-3.2288,-3.2288,-3.2344,-3.2457,-3.2385,-3.2002,-3.1836,-3.1723,-3.1712,-3.1712,-3.1847,-3.1795,-3.1712,-3.1505,-3.1371,-3.1112,-3.0626,-3.0087,-2.9663,-2.9456,-2.9228,-2.9073,-2.8928,-2.8773,-2.8524,-2.8276,-2.81,-2.7914,-2.7676,-2.7614,-2.751,-2.7417,-2.7303,-2.7272,-2.7272,-2.7272,-2.7272,-2.7272,-2.7272,-2.7272,-2.7272,-2.7262,-2.7262,-2.7081,-2.689,-2.6602,-2.64,-2.611,-2.5917,-2.5732,-2.5732,-2.5732,-2.5732,-2.5625,-2.5109,-2.459,-2.438,-2.4217,-2.431,-2.4221,-2.3998,-2.3141,-4.301,-4.3159,-4.5477,-4.5059,-4.2997,-4.3159,-4.1904,-3.9744,-3.9274,-3.8034,-3.657,-3.5423,-3.5002,-3.4624,-3.4624,-3.4524,-3.4524,-3.4524,-3.4524,-3.4524,-3.4524,-3.4524,-3.4524,-3.4524,-3.4524,-3.4524,-3.4524,-3.4524,-3.4622,-3.4906,-3.5026,-3.507,-3.4742,-3.5113,-3.5277,-3.5157,-3.4971,-3.5015,-3.4786,-3.4578,-3.4436,-3.4491,-3.4513,-3.4423,-3.4311,-3.4097,-3.4086,-3.3808,-3.3423,-3.2849,-3.2485,-3.2248,-3.1954,-3.2069,-3.2114,-3.2209,-3.2561,-3.2571,-3.2447,-3.2416,-3.2561,-3.2613,-3.2551,-3.2406,-3.2271,-3.2489,-3.223,-3.1474,-3.1174,-3.0812,-3.0315,-2.9932,-2.9766,-2.9684,-2.9518,-2.9435,-2.9301,-2.9135,-2.8887,-2.8649,-2.838,-2.81,-2.7986,-2.7914,-2.75,-2.7355,-2.7272,-2.7272,-2.7272,-2.7272,-2.7272,-2.7272,-2.7272,-2.7262,-2.7262,-2.7167,-2.6986,-2.6688,-2.64,-2.6207,-2.61,-2.5917,-2.5732,-2.5732,-2.5732,-2.5732,-2.5635,-2.5323,-2.5011,-2.4609,-2.4501,-2.4609,-2.371,-2.2693,-2.1988,-4.158,-4.1923,-4.2809,-4.2621,-4.1736,-4.1531,-4.0298,-3.8683,-3.819,-3.715,-3.558,-3.5153,-3.4786,-3.46,-3.4524,-3.4524,-3.4524,-3.4524,-3.4524,-3.4524,-3.4524,-3.4524,-3.4524,-3.4524,-3.4524,-3.4524,-3.4524,-3.4524,-3.4578,-3.5037,-3.5419,-3.5474,-3.5441,-3.5594,-3.5769,-3.579,-3.5561,-3.5244,-3.5037,-3.4851,-3.4545,-3.4524,-3.4524,-3.4412,-3.4209,-3.4097,-3.3942,-3.3338,-3.2902,-3.2627,-3.2085,-3.1688,-3.1569,-3.1777,-3.1896,-3.2054,-3.2478,-3.2675,-3.2696,-3.2706,-3.2727,-3.2727,-3.2696,-3.2602,-3.2364,-3.2302,-3.2012,-3.1516,-3.1112,-3.0719,-3.0553,-3.017,-2.9953,-2.9984,-2.9953,-2.9849,-2.9725,-2.9528,-2.9373,-2.9083,-2.8763,-2.8462,-2.84,-2.8359,-2.7862,-2.7417,-2.7334,-2.7272,-2.7272,-2.7272,-2.7272,-2.7272,-2.7272,-2.7177,-2.7071,-2.6976,-2.6794,-2.6496,-2.6207,-2.611,-2.5907,-2.582,-2.5732,-2.5732,-2.5732,-2.5732,-2.5732,-2.5732,-2.543,-2.5118,-2.4815,-2.4716,-2.3402,-2.1591,-2.0885,-3.9801,-4.0148,-3.9825,-3.9907,-4.0278,-3.9777,-3.8707,-3.7485,-3.6939,-3.6329,-3.5201,-3.519,-3.4949,-3.4622,-3.4524,-3.4524,-3.4524,-3.4524,-3.4524,-3.4524,-3.4524,-3.4524,-3.4524,-3.4524,-3.4524,-3.4524,-3.4524,-3.4524,-3.4556,-3.5135,-3.5572,-3.5922,-3.6249,-3.6391,-3.6391,-3.6216,-3.5998,-3.5725,-3.5288,-3.5113,-3.4753,-3.4488,-3.4423,-3.43,-3.4086,-3.3974,-3.3695,-3.3279,-3.2706,-3.2317,-3.1797,-3.1395,-3.1469,-3.1657,-3.1829,-3.2012,-3.2406,-3.2654,-3.2571,-3.2664,-3.2644,-3.2509,-3.2478,-3.225,-3.1981,-3.1826,-3.1598,-3.1195,-3.0843,-3.0636,-3.0553,-3.016,-3.0005,-2.9994,-2.9994,-2.9922,-2.988,-2.9746,-2.9663,-2.9497,-2.9239,-2.9042,-2.8742,-2.8659,-2.8204,-2.7686,-2.7376,-2.7303,-2.7272,-2.7272,-2.7272,-2.7272,-2.7272,-2.7177,-2.6986,-2.6794,-2.6592,-2.6304,-2.611,-2.5927,-2.583,-2.5732,-2.5732,-2.5732,-2.5732,-2.5732,-2.5528,-2.5323,-2.543,-2.5625,-2.4922,-2.3809,-2.2601,-2.0885,-2.0181,-3.7931,-3.7901,-3.6912,-3.7392,-3.8506,-3.7781,-3.6965,-3.6241,-3.5483,-3.5206,-3.5174,-3.513,-3.4847,-3.4499,-3.4412,-3.4412,-3.4412,-3.4412,-3.4412,-3.4412,-3.4423,-3.4412,-3.4524,-3.4524,-3.4524,-3.4524,-3.4423,-3.4434,-3.4499,-3.5294,-3.5856,-3.6249,-3.673,-3.7134,-3.7265,-3.6894,-3.6675,-3.65,-3.567,-3.5196,-3.4934,-3.4404,-3.4119,-3.3974,-3.3738,-3.3636,-3.348,-3.3106,-3.2595,-3.1976,-3.1517,-3.1106,-3.0836,-3.121,-3.1474,-3.193,-3.2364,-3.2416,-3.2137,-3.2489,-3.2395,-3.2126,-3.2054,-3.1847,-3.1505,-3.135,-3.1195,-3.075,-3.0615,-3.0408,-3.0212,-3.0015,-3.0005,-2.9994,-2.9994,-2.9984,-2.9942,-2.9922,-2.9818,-2.9766,-2.9829,-2.9766,-2.9311,-2.8918,-2.8504,-2.8038,-2.7552,-2.7386,-2.7448,-2.7396,-2.7438,-2.7376,-2.7376,-2.7081,-2.689,-2.6699,-2.64,-2.611,-2.5917,-2.583,-2.5732,-2.5732,-2.5732,-2.5732,-2.5635,-2.5635,-2.5226,-2.4815,-2.452,-2.4115,-2.3302,-2.2291,-2.1183,-2.038,-1.9776,-3.5956,-3.6088,-3.594,-3.5972,-3.6005,-3.5819,-3.5691,-3.5649,-3.5391,-3.5356,-3.528,-3.4927,-3.4507,-3.4318,-3.4199,-3.4199,-3.4199,-3.4199,-3.4199,-3.4199,-3.4199,-3.4412,-3.4412,-3.4412,-3.4412,-3.4412,-3.4434,-3.4404,-3.4707,-3.545,-3.5906,-3.6318,-3.6905,-3.722,-3.7121,-3.7046,-3.7036,-3.6394,-3.568,-3.5204,-3.488,-3.4243,-3.3759,-3.3759,-3.3523,-3.3409,-3.3388,-3.288,-3.2389,-3.1902,-3.1475,-3.0919,-3.0608,-3.0878,-3.1153,-3.1495,-3.1836,-3.1774,-3.164,-3.1764,-3.1754,-3.1629,-3.1567,-3.1391,-3.0998,-3.0926,-3.0657,-3.0387,-3.0305,-3.0149,-3.0025,-3.0005,-2.9994,-2.9994,-2.9994,-2.9994,-2.9973,-2.9984,-2.9942,-2.9932,-2.9963,-2.9963,-2.9673,-2.9373,-2.898,-2.8783,-2.839,-2.8142,-2.8131,-2.7862,-2.7759,-2.7624,-2.7531,-2.7068,-2.6784,-2.6592,-2.6304,-2.5917,-2.582,-2.5732,-2.5732,-2.5732,-2.5732,-2.5732,-2.5635,-2.5538,-2.4618,-2.38,-2.3003,-2.2299,-2.1785,-2.1481,-2.0885,-2.0078,-1.9472,-3.4453,-3.4678,-3.4975,-3.4791,-3.4578,-3.4941,-3.5242,-3.5371,-3.5478,-3.5532,-3.5274,-3.4729,-3.4279,-3.4081,-3.4086,-3.3974,-3.3974,-3.4086,-3.3974,-3.3974,-3.4086,-3.4199,-3.4311,-3.43,-3.4188,-3.4188,-3.4129,-3.42,-3.4744,-3.524,-3.594,-3.6622,-3.7101,-3.711,-3.7143,-3.7078,-3.7122,-3.6513,-3.5984,-3.5499,-3.4825,-3.4157,-3.3682,-3.3462,-3.3296,-3.3193,-3.3109,-3.2755,-3.2288,-3.1939,-3.1391,-3.0888,-3.0829,-3.0712,-3.0957,-3.1215,-3.1205,-3.1184,-3.1153,-3.0915,-3.0895,-3.0853,-3.1019,-3.0895,-3.0563,-3.046,-3.0315,-3.0118,-3.0015,-2.9994,-2.9994,-2.9994,-2.9994,-2.9994,-2.9994,-2.9994,-2.9994,-2.9994,-2.9994,-2.9994,-2.9994,-2.9994,-2.9984,-2.9808,-2.9508,-2.9394,-2.927,-2.9021,-2.8731,-2.8411,-2.81,-2.7935,-2.7631,-2.7242,-2.679,-2.639,-2.611,-2.5732,-2.5732,-2.5732,-2.5732,-2.5732,-2.5732,-2.5732,-2.5635,-2.5128,-2.38,-2.2793,-2.1996,-2.1293,-2.0475,-2.038,-2.038,-1.9879,-1.9376,-3.3652,-3.3781,-3.3823,-3.3862,-3.4139,-3.4763,-3.5134,-3.5187,-3.5537,-3.5391,-3.4976,-3.4707,-3.4111,-3.3689,-3.3861,-3.3861,-3.3636,-3.3861,-3.3749,-3.3749,-3.3861,-3.3974,-3.3974,-3.3851,-3.3851,-3.3861,-3.3936,-3.4037,-3.4809,-3.5286,-3.6199,-3.7014,-3.722,-3.7154,-3.7032,-3.7143,-3.7099,-3.6652,-3.6057,-3.5446,-3.4859,-3.4096,-3.355,-3.3319,-3.3079,-3.3079,-3.3048,-3.2964,-3.2703,-3.2337,-3.1829,-3.1522,-3.1184,-3.0905,-3.106,-3.105,-3.0833,-3.0801,-3.0626,-3.0336,-3.0222,-3.0305,-3.0491,-3.0336,-3.0212,-3.0129,-3.0077,-3.0046,-2.9994,-2.9994,-2.9994,-2.9994,-2.9994,-2.9994,-2.9994,-2.9994,-2.9994,-2.9994,-2.9994,-2.9994,-2.9994,-2.9994,-2.9994,-2.9891,-2.9798,-2.9766,-2.9622,-2.9446,-2.9156,-2.8845,-2.8545,-2.8266,-2.793,-2.7329,-2.6962,-2.651,-2.6197,-2.5917,-2.5732,-2.5732,-2.5732,-2.5732,-2.5732,-2.5635,-2.5635,-2.4922,-2.38,-2.2492,-2.1191,-2.0483,-2.0483,-1.9776,-1.9983,-1.9783,-1.9272,-3.3256,-3.3048,-3.336,-3.3402,-3.3244,-3.4066,-3.4674,-3.5166,-3.5023,-3.476,-3.4623,-3.3707,-3.3443,-3.3306,-3.342,-3.3409,-3.342,-3.342,-3.342,-3.342,-3.3523,-3.3636,-3.3636,-3.3625,-3.3625,-3.3625,-3.3721,-3.3904,-3.4593,-3.5388,-3.6228,-3.6868,-3.7032,-3.7032,-3.7032,-3.7275,-3.69,-3.6539,-3.5933,-3.5357,-3.4644,-3.3926,-3.3382,-3.2955,-3.2799,-3.2799,-3.2841,-3.281,-3.256,-3.2218,-3.193,-3.165,-3.0864,-3.0739,-3.075,-3.0419,-3.047,-3.0584,-3.0253,-3.0077,-2.9994,-2.9994,-3.016,-3.0129,-3.0025,-2.9994,-2.9994,-2.9994,-2.9994,-2.9994,-2.9994,-2.9994,-2.9994,-2.9994,-2.9994,-2.9994,-2.9994,-2.9994,-2.9994,-2.9994,-2.9994,-2.9994,-2.9994,-2.9984,-2.9911,-2.9973,-2.9922,-2.9756,-2.958,-2.927,-2.897,-2.868,-2.8078,-2.7564,-2.7211,-2.6835,-2.6393,-2.611,-2.582,-2.5732,-2.5732,-2.5732,-2.5732,-2.5528,-2.5323,-2.4805,-2.3989,-2.2685,-2.1489,-2.1489,-2.1285,-2.0388,-1.9583,-1.948,-1.9272,-3.2851,-3.2768,-3.3006,-3.3058,-3.313,-3.3762,-3.4357,-3.4633,-3.4543,-3.4428,-3.4324,-3.3372,-3.2965,-3.2965,-3.3182,-3.3182,-3.2965,-3.3193,-3.3193,-3.3079,-3.31,-3.3306,-3.3409,-3.3285,-3.3285,-3.3285,-3.3422,-3.3634,-3.4557,-3.5749,-3.6678,-3.6911,-3.6921,-3.6789,-3.6789,-3.6656,-3.6534,-3.6131,-3.5702,-3.4998,-3.4365,-3.3578,-3.3006,-3.2747,-3.2602,-3.254,-3.2654,-3.2602,-3.2354,-3.2116,-3.2023,-3.1422,-3.0781,-3.0677,-3.0377,-3.0108,-3.0212,-3.0253,-3.0077,-3.0025,-2.9994,-2.9994,-2.9994,-3.0005,-3.0015,-2.9994,-2.9994,-2.9994,-2.9994,-2.9994,-2.9994,-2.9994,-2.9994,-2.9994,-2.9994,-2.9994,-2.9994,-2.9994,-2.9994,-2.9994,-2.9994,-2.9994,-2.9994,-2.9994,-2.9994,-2.9994,-2.9994,-2.9932,-2.9839,-2.9694,-2.9394,-2.9094,-2.8418,-2.7689,-2.7327,-2.6946,-2.6326,-2.5917,-2.583,-2.5732,-2.5732,-2.5732,-2.5732,-2.5323,-2.4805,-2.4393,-2.4196,-2.3194,-2.219,-2.219,-2.1887,-2.0885,-2.0086,-1.9576,-1.9472,-3.2841,-3.2727,-3.2727,-3.2965,-3.3348,-3.3782,-3.4,-3.4,-3.4035,-3.3958,-3.3921,-3.3351,-3.2965,-3.2851,-3.2955,-3.2965,-3.2903,-3.3049,-3.3049,-3.2758,-3.3111,-3.3205,-3.309,-3.2841,-3.2955,-3.2955,-3.3205,-3.3539,-3.4686,-3.5628,-3.6423,-3.6789,-3.6789,-3.6545,-3.6423,-3.63,-3.6156,-3.5806,-3.5402,-3.4823,-3.4028,-3.3234,-3.2654,-3.2571,-3.2344,-3.2157,-3.2395,-3.2364,-3.2168,-3.2012,-3.1723,-3.1112,-3.0853,-3.0522,-3.0129,-3.0025,-3.0077,-3.0056,-3.0025,-2.9994,-2.9994,-2.9994,-2.9994,-2.9994,-2.9994,-2.9994,-2.9994,-2.9994,-2.9994,-2.9994,-2.9994,-2.9994,-2.9994,-2.9994,-2.9994,-2.9994,-2.9994,-2.9994,-2.9994,-2.9994,-2.9994,-2.9994,-2.9994,-2.9994,-2.9994,-2.9994,-2.9994,-2.9994,-2.9973,-2.9932,-2.9746,-2.9425,-2.8654,-2.7872,-2.7489,-2.6891,-2.6142,-2.583,-2.5732,-2.5732,-2.5732,-2.5732,-2.5732,-2.5421,-2.5118,-2.4707,-2.4304,-2.3701,-2.3194,-2.2785,-2.2291,-2.1285,-2.0585,-1.9872,-1.9472,-3.3491,-3.2737,-3.2727,-3.2799,-3.2934,-3.3348,-3.3524,-3.3503,-3.3182,-3.3223,-3.3389,-3.31,-3.282,-3.2675,-3.283,-3.2727,-3.2778,-3.3038,-3.2965,-3.2934,-3.309,-3.3017,-3.2882,-3.2727,-3.2727,-3.2851,-3.3101,-3.3571,-3.4547,-3.5355,-3.5911,-3.6167,-3.6167,-3.6167,-3.6055,-3.6055,-3.5879,-3.5446,-3.4669,-3.419,-3.3443,-3.2737,-3.2188,-3.2075,-3.1857,-3.1805,-3.1909,-3.1805,-3.165,-3.1526,-3.1433,-3.1122,-3.0833,-3.0294,-3.0046,-2.9994,-2.9994,-2.9994,-2.9994,-2.9994,-2.9994,-2.9994,-2.9994,-2.9994,-2.9994,-2.9994,-2.9994,-2.9994,-2.9994,-2.9994,-2.9994,-2.9994,-2.9994,-2.9994,-2.9994,-2.9994,-2.9994,-2.9994,-2.9994,-2.9994,-2.9994,-2.9994,-2.9994,-2.9994,-2.9994,-2.9994,-2.9994,-2.9994,-2.9994,-2.9973,-2.9953,-2.9518,-2.8686,-2.8035,-2.7551,-2.6913,-2.6153,-2.5859,-2.5732,-2.5732,-2.5732,-2.5732,-2.5732,-2.5635,-2.543,-2.5118,-2.502,-2.5118,-2.4609,-2.3592,-2.2383,-2.1387,-2.068,-1.9975,-1.9576,-3.3275,-3.2727,-3.2727,-3.2727,-3.2737,-3.2778,-3.2778,-3.2696,-3.2323,-3.2261,-3.2499,-3.2437,-3.2426,-3.2499,-3.2623,-3.2737,-3.2778,-3.2954,-3.2892,-3.2871,-3.2985,-3.2882,-3.2799,-3.2737,-3.2727,-3.2747,-3.3111,-3.3663,-3.4449,-3.5035,-3.5505,-3.5869,-3.5921,-3.5788,-3.5798,-3.5767,-3.5558,-3.4766,-3.3893,-3.3121,-3.2613,-3.1899,-3.1619,-3.1505,-3.1433,-3.1391,-3.1433,-3.136,-3.1278,-3.1215,-3.1164,-3.0781,-3.046,-3.0139,-3.0015,-2.9994,-2.9994,-2.9994,-2.9994,-2.9994,-2.9994,-2.9994,-2.9994,-2.9994,-2.9994,-2.9994,-2.9994,-2.9994,-2.9994,-2.9994,-2.9994,-2.9994,-2.9994,-2.9994,-2.9994,-2.9994,-2.9994,-2.9994,-2.9994,-2.9994,-2.9994,-2.9994,-2.9994,-2.9994,-2.9994,-2.9994,-2.9994,-2.9994,-2.9994,-2.9889,-2.9889,-2.9651,-2.885,-2.8066,-2.7573,-2.6884,-2.6251,-2.5996,-2.5839,-2.5732,-2.5732,-2.5732,-2.5732,-2.5635,-2.5635,-2.5635,-2.5625,-2.5421,-2.5011,-2.3989,-2.2685,-2.1489,-2.0783,-1.9975,-1.9576,-3.2882,-3.2727,-3.2727,-3.2727,-3.2664,-3.225,-3.2085,-3.1992,-3.1536,-3.1309,-3.1412,-3.1712,-3.1888,-3.2188,-3.2426,-3.2644,-3.2892,-3.3182,-3.3037,-3.3016,-3.3047,-3.3058,-3.2954,-3.2778,-3.2747,-3.2882,-3.3246,-3.3789,-3.4439,-3.4962,-3.5269,-3.5715,-3.5788,-3.5654,-3.5489,-3.5231,-3.4952,-3.4072,-3.3225,-3.225,-3.1557,-3.0895,-3.0988,-3.0977,-3.0915,-3.0884,-3.0998,-3.0977,-3.0905,-3.0853,-3.077,-3.047,-3.0232,-3.0036,-3.0025,-2.9994,-2.9994,-2.9994,-2.9994,-2.9994,-2.9994,-2.9994,-2.9994,-2.9994,-2.9994,-2.9994,-2.9994,-2.9994,-2.9994,-2.9994,-2.9994,-2.9994,-2.9994,-2.9994,-2.9994,-2.9994,-2.9994,-2.9994,-2.9994,-2.9994,-2.9994,-2.9994,-2.9994,-2.9994,-2.9994,-2.9994,-2.9994,-2.9994,-2.9994,-2.9784,-2.9774,-2.9503,-2.8894,-2.8254,-2.76,-2.6942,-2.628,-2.5879,-2.5732,-2.5732,-2.5732,-2.5732,-2.5732,-2.5732,-2.5732,-2.5528,-2.5216,-2.4805,-2.4393,-2.3683,-2.2492,-2.1089,-2.0388,-1.9776,-1.9472,-3.3253,-3.2727,-3.2727,-3.2727,-3.2654,-3.223,-3.2043,-3.1899,-3.1164,-3.0822,-3.0843,-3.0926,-3.1278,-3.2033,-3.2106,-3.2457,-3.3192,-3.3461,-3.3741,-3.3834,-3.3544,-3.343,-3.3192,-3.2809,-3.2747,-3.2923,-3.3223,-3.3744,-3.4403,-3.4831,-3.5095,-3.552,-3.552,-3.5365,-3.5043,-3.4755,-3.4414,-3.3492,-3.2696,-3.1888,-3.1278,-3.077,-3.0501,-3.0439,-3.0387,-3.0501,-3.0563,-3.0346,-3.0243,-3.0191,-3.0232,-3.0118,-3.0046,-2.9994,-2.9994,-2.9994,-2.9994,-2.9994,-2.9994,-2.9994,-2.9994,-2.9994,-2.9994,-2.9994,-2.9994,-2.9994,-2.9994,-2.9994,-2.9994,-2.9994,-2.9994,-2.9994,-2.9994,-2.9994,-2.9994,-2.9994,-2.9994,-2.9994,-2.9994,-2.9994,-2.9994,-2.9994,-2.9994,-2.9994,-2.9994,-2.9994,-2.9994,-2.9994,-2.9994,-2.9784,-2.9564,-2.9282,-2.8896,-2.8197,-2.7558,-2.695,-2.6328,-2.5986,-2.5732,-2.5732,-2.5732,-2.5732,-2.5732,-2.5732,-2.543,-2.5226,-2.4805,-2.4097,-2.3085,-2.2383,-2.1684,-2.079,-1.9983,-1.9583,-1.9376]},{"header":{"parameterUnit":"m.s-1","parameterCategory":1,"la1":31.0,"la2":29.5877,"lo1":-88.7671,"lo2":-86.6584,"dy":0.0162,"dx":0.0185,"nx":115,"ny":88,"refTime":"2026-03-17T00:00:00:Z","depth":0,"parameterNumber":3,"parameterNumberName":"V-component_of_WINDS"},"data":[0.0,0.0,0.0,0.0,0.0,0.0,0.0,0.0,0.0,0.0,0.0,0.0,0.0,0.0,0.0,0.0,0.0,0.0,0.0,0.0,0.0,0.0,0.0,0.0,0.0,0.0,0.0,0.0,0.0,0.0,0.0,0.0,0.0,0.0,0.0,0.0,0.0,0.0,0.0,0.0,0.0,0.0,0.0,0.0,0.0,0.0,0.0,0.0,0.0,0.0,0.0,0.0,0.0,0.0,0.0,0.0,0.0,0.0,0.0,0.0,0.0,0.0,0.0,0.0,0.0,0.0,0.0,0.0,0.0,0.0,0.0,0.0,0.0,0.0,0.0,0.0,0.0,0.0,0.0,0.0,0.0,0.0,0.0,0.0,0.0,0.0,0.0,0.0,0.0,0.0,0.0,0.0,0.0,0.0,0.0,0.0,0.0,0.0,0.0,0.0,0.0,0.0,0.0,0.0,0.0,0.0,0.0,0.0,0.0,0.0,0.0,0.0,0.0,0.0,0.0,0.0,0.0,0.0,0.0,0.0,0.0,0.0,0.0,0.0,0.0,0.0,0.0,0.0,0.0,0.0,0.0,0.0,0.0,0.0,0.0,0.0,0.0,0.0,0.0,0.0,0.0,0.0,0.0,0.0,0.0,0.0,0.0,0.0,0.0,0.0,0.0,0.0,0.0,0.0,0.0,0.0,0.0,0.0,0.0,0.0,0.0,0.0,0.0,0.0,0.0,0.0,0.0,0.0,0.0,0.0,0.0,0.0,0.0,0.0,0.0,0.0,0.0,0.0,0.0,0.0,0.0,0.0,0.0,0.0,0.0,0.0,0.0,0.0,0.0,0.0,0.0,0.0,0.0,0.0,0.0,0.0,0.0,0.0,0.0,0.0,0.0,0.0,0.0,0.0,0.0,0.0,0.0,0.0,0.0,0.0,0.0,0.0,0.0,0.0,0.0,0.0,0.0,0.0,0.0,0.0,0.0,0.0,0.0,0.0,0.0,0.0,0.0,0.0,0.0,0.0,0.0,0.0,0.0,0.0,0.0,0.0,0.0,0.0,0.0,0.0,0.0,0.0,0.0,0.0,0.0,0.0,0.0,0.0,0.0,0.0,0.0,0.0,0.0,0.0,0.0,0.0,0.0,0.0,0.0,0.0,0.0,0.0,0.0,0.0,0.0,0.0,0.0,0.0,0.0,0.0,0.0,0.0,0.0,0.0,0.0,0.0,0.0,0.0,0.0,0.0,0.0,0.0,0.0,0.0,0.0,0.0,0.0,0.0,0.0,0.0,0.0,0.0,0.0,0.0,0.0,0.0,0.0,0.0,0.0,0.0,0.0,0.0,0.0,0.0,0.0,0.0,0.0,0.0,0.0,0.0,0.0,0.0,0.0,0.0,0.0,0.0,0.0,0.0,0.0,0.0,0.0,0.0,0.0,0.0,0.0,0.0,0.0,0.0,0.0,0.0,0.0,0.0,0.0,0.0,0.0,0.0,0.0,0.0,0.0,0.0,0.0,0.0,0.0,0.0,0.0,0.0,0.0,0.0,0.0,0.0,0.0,0.0,0.0,0.0,0.0,0.0,0.0,0.0,0.0,0.0,0.0,0.0,0.0,0.0,0.0,0.0,0.0,0.0,0.0,0.0,0.0,0.0,0.0,0.0,0.0,0.0,0.0,0.0,0.0,0.0,0.0,0.0,0.0,0.0,0.0,0.0,0.0,0.0,0.0,0.0,0.0,0.0,0.0,0.0,0.0,0.0,0.0,0.0,0.0,0.0,0.0,0.0,0.0,0.0,0.0,0.0,0.0,0.0,0.0,0.0,0.0,0.0,0.0,0.0,0.0,0.0,0.0,0.0,0.0,0.0,0.0,0.0,0.0,0.0,0.0,0.0,0.0,0.0,0.0,0.0,0.0,0.0,0.0,0.0,0.0,0.0,0.0,0.0,0.0,0.0,0.0,0.0,0.0,0.0,0.0,0.0,0.0,0.0,0.0,0.0,0.0,0.0,0.0,0.0,0.0,0.0,0.0,0.0,0.0,0.0,0.0,0.0,0.0,0.0,0.0,0.0,0.0,0.0,0.0,0.0,0.0,0.0,0.0,0.0,0.0,0.0,0.0,0.0,0.0,0.0,0.0,0.0,0.0,0.0,0.0,0.0,0.0,0.0,0.0,0.0,0.0,0.0,0.0,0.0,0.0,0.0,0.0,0.0,0.0,0.0,0.0,0.0,0.0,0.0,0.0,0.0,0.0,0.0,0.0,0.0,0.0,0.0,0.0,0.0,0.0,0.0,0.0,0.0,0.0,0.0,0.0,0.0,0.0,0.0,0.0,0.0,0.0,0.0,0.0,0.0,0.0,0.0,0.0,0.0,0.0,0.0,0.0,0.0,0.0,0.0,0.0,0.0,0.0,0.0,0.0,0.0,0.0,0.0,0.0,0.0,0.0,0.0,0.0,0.0,0.0,0.0,0.0,0.0,0.0,0.0,0.0,0.0,0.0,0.0,0.0,0.0,0.0,0.0,0.0,0.0,0.0,0.0,0.0,0.0,0.0,0.0,0.0,0.0,0.0,0.0,0.0,0.0,0.0,0.0,0.0,0.0,0.0,0.0,0.0,0.0,0.0,0.0,0.0,0.0,0.0,0.0,0.0,0.0,0.0,0.0,0.0,0.0,0.0,0.0,0.0,0.0,0.0,0.0,0.0,0.0,0.0,0.0,0.0,0.0,0.0,0.0,0.0,0.0,0.0,0.0,0.0,0.0,0.0,0.0,0.0,0.0,0.0,0.0,0.0,0.0,0.0,0.0,0.0,0.0,0.0,0.0,0.0,0.0,0.0,0.0,0.0,0.0,0.0,0.0,0.0,0.0,0.0,0.0,0.0,0.0,0.0,0.0,0.0,0.0,0.0,0.0,0.0,0.0,0.0,0.0,0.0,0.0,0.0,0.0,0.0,0.0,0.0,0.0,0.0,0.0,0.0,0.0,0.0,0.0,0.0,0.0,0.0,0.0,0.0,0.0,0.0,0.0,0.0,0.0,0.0,0.0,0.0,0.0,0.0,0.0,0.0,0.0,0.0,0.0,0.0,0.0,0.0,0.0,0.0,0.0,0.0,0.0,0.0,0.0,0.0,0.0,0.0,0.0,0.0,0.0,0.0,0.0,0.0,0.0,0.0,0.0,0.0,0.0,0.0,0.0,0.0,0.0,0.0,0.0,0.0,0.0,0.0,0.0,0.0,0.0,0.0,0.0,0.0,0.0,0.0,0.0,0.0,0.0,0.0,0.0,0.0,0.0,0.0,0.0,0.0,0.0,0.0,0.0,0.0,0.0,0.0,0.0,0.0,0.0,0.0,0.0,0.0,0.0,0.0,0.0,0.0,0.0,0.0,0.0,0.0,0.0,0.0,0.0,0.0,0.0,0.0,0.0,0.0,0.0,0.0,0.0,0.0,0.0,0.0,0.0,0.0,0.0,0.0,0.0,0.0,0.0,0.0,0.0,0.0,0.0,0.0,0.0,0.0,0.0,0.0,0.0,0.0,0.0,0.0,0.0,0.0,0.0,0.0,0.0,0.0,0.0,0.0,0.0,0.0,0.0,0.0,0.0,0.0,0.0,0.0,0.0,0.0,0.0,0.0,0.0,0.0,0.0,0.0,0.0,0.0,0.0,0.0,0.0,0.0,0.0,0.0,0.0,0.0,0.0,0.0,0.0,0.0,0.0,0.0,0.0,0.0,0.0,0.0,0.0,0.0,0.0,0.0,0.0,0.0,0.0,0.0,0.0,0.0,0.0,0.0,0.0,0.0,0.0,0.0,0.0,0.0,0.0,0.0,0.0,0.0,0.0,0.0,0.0,0.0,0.0,0.0,0.0,0.0,0.0,0.0,0.0,0.0,0.0,0.0,0.0,0.0,0.0,0.0,0.0,0.0,0.0,0.0,0.0,0.0,0.0,0.0,0.0,0.0,0.0,0.0,0.0,0.0,0.0,0.0,0.0,0.0,0.0,0.0,0.0,0.0,0.0,0.0,0.0,0.0,0.0,0.0,0.0,0.0,0.0,0.0,0.0,0.0,0.0,0.0,0.0,0.0,0.0,0.0,0.0,0.0,0.0,0.0,0.0,0.0,0.0,0.0,0.0,0.0,0.0,0.0,0.0,0.0,0.0,0.0,0.0,0.0,0.0,0.0,0.0,0.0,0.0,0.0,0.0,0.0,0.0,0.0,0.0,0.0,0.0,0.0,0.0,0.0,0.0,0.0,0.0,0.0,0.0,0.0,0.0,0.0,0.0,-1.2709,0.0,0.0,0.0,0.0,0.0,0.0,0.0,0.0,0.0,0.0,0.0,0.0,0.0,0.0,0.0,0.0,0.0,0.0,0.0,0.0,0.0,0.0,0.0,0.0,0.0,0.0,0.0,0.0,0.0,0.0,0.0,0.0,0.0,0.0,0.0,0.0,0.0,0.0,0.0,0.0,0.0,0.0,0.0,0.0,0.0,0.0,0.0,0.0,0.0,0.0,0.0,0.0,0.0,0.0,0.0,0.0,0.0,0.0,0.0,0.0,0.0,0.0,0.0,0.0,0.0,0.0,0.0,0.0,0.0,0.0,0.0,0.0,0.0,0.0,0.0,0.0,0.0,0.0,0.0,0.0,0.0,0.0,0.0,0.0,0.0,0.0,0.0,0.0,0.0,0.0,0.0,0.0,0.0,0.0,0.0,0.0,0.0,0.0,0.0,0.0,0.0,0.0,0.0,0.0,0.0,0.0,0.0,0.0,0.0,0.0,-1.2709,-1.2709,-1.2709,-1.2709,-1.2709,0.0,0.0,0.0,0.0,0.0,0.0,0.0,0.0,0.0,0.0,0.0,0.0,0.0,0.0,0.0,0.0,0.0,0.0,0.0,0.0,0.0,0.0,0.0,0.0,0.0,0.0,0.0,0.0,0.0,0.0,0.0,0.0,0.0,0.0,0.0,0.0,0.0,0.0,0.0,0.0,0.0,0.0,0.0,0.0,0.0,0.0,0.0,0.0,0.0,0.0,0.0,0.0,0.0,0.0,0.0,0.0,0.0,0.0,0.0,0.0,0.0,0.0,0.0,0.0,0.0,0.0,0.0,0.0,0.0,0.0,0.0,0.0,0.0,0.0,0.0,0.0,0.0,0.0,0.0,0.0,0.0,0.0,0.0,0.0,0.0,0.0,0.0,0.0,0.0,0.0,0.0,0.0,0.0,0.0,0.0,0.0,0.0,0.0,0.0,0.0,0.0,0.0,0.0,0.0,0.0,0.0,0.0,0.0,0.0,0.0,0.0,0.0,-1.3059,-1.3071,-1.3071,0.0,0.0,0.0,0.0,0.0,0.0,0.0,0.0,0.0,0.0,0.0,0.0,0.0,0.0,0.0,0.0,0.0,0.0,0.0,0.0,0.0,0.0,0.0,0.0,0.0,0.0,0.0,0.0,0.0,0.0,0.0,0.0,0.0,0.0,0.0,0.0,0.0,0.0,0.0,0.0,0.0,0.0,0.0,0.0,0.0,0.0,0.0,0.0,0.0,0.0,0.0,0.0,0.0,0.0,0.0,0.0,0.0,0.0,0.0,0.0,0.0,0.0,0.0,0.0,0.0,0.0,0.0,0.0,0.0,0.0,0.0,0.0,0.0,0.0,0.0,0.0,0.0,0.0,0.0,0.0,0.0,0.0,0.0,0.0,0.0,0.0,0.0,0.0,0.0,0.0,0.0,0.0,0.0,0.0,0.0,0.0,0.0,0.0,0.0,0.0,0.0,0.0,0.0,0.0,0.0,0.0,0.0,0.0,0.0,0.0,-1.3168,-1.4108,-1.4132,0.0,-1.4144,0.0,0.0,0.0,0.0,0.0,0.0,0.0,0.0,0.0,0.0,0.0,0.0,0.0,0.0,0.0,0.0,0.0,0.0,0.0,0.0,0.0,0.0,0.0,0.0,0.0,0.0,0.0,0.0,0.0,0.0,0.0,0.0,0.0,0.0,0.0,0.0,0.0,0.0,0.0,0.0,0.0,0.0,0.0,0.0,0.0,0.0,0.0,0.0,0.0,0.0,0.0,0.0,0.0,0.0,0.0,0.0,0.0,0.0,0.0,0.0,0.0,0.0,0.0,0.0,0.0,0.0,0.0,0.0,0.0,0.0,0.0,0.0,0.0,0.0,0.0,0.0,0.0,0.0,0.0,0.0,0.0,0.0,0.0,0.0,0.0,0.0,0.0,0.0,0.0,0.0,0.0,0.0,0.0,0.0,0.0,0.0,0.0,0.0,0.0,0.0,0.0,0.0,0.0,0.0,0.0,0.0,0.0,0.0,0.0,0.0,0.0,-1.4277,-1.4329,-1.4329,0.0,0.0,0.0,0.0,0.0,0.0,0.0,0.0,0.0,0.0,0.0,0.0,0.0,0.0,0.0,0.0,0.0,0.0,0.0,0.0,0.0,0.0,0.0,0.0,0.0,0.0,0.0,0.0,0.0,0.0,0.0,0.0,0.0,0.0,0.0,0.0,0.0,0.0,0.0,0.0,0.0,0.0,0.0,0.0,0.0,0.0,0.0,0.0,0.0,0.0,0.0,0.0,0.0,0.0,0.0,0.0,0.0,0.0,0.0,0.0,0.0,0.0,0.0,0.0,0.0,0.0,0.0,0.0,0.0,0.0,0.0,0.0,0.0,0.0,0.0,0.0,0.0,0.0,0.0,0.0,0.0,0.0,0.0,0.0,0.0,0.0,0.0,0.0,0.0,0.0,0.0,0.0,0.0,0.0,0.0,0.0,0.0,0.0,0.0,0.0,0.0,0.0,0.0,0.0,0.0,0.0,0.0,0.0,0.0,0.0,-1.406,0.0,-1.4711,-1.4723,-1.453,-1.4096,0.0,0.0,0.0,0.0,0.0,0.0,0.0,0.0,0.0,0.0,0.0,0.0,0.0,0.0,0.0,0.0,0.0,0.0,0.0,0.0,0.0,0.0,0.0,0.0,0.0,0.0,0.0,0.0,0.0,0.0,0.0,0.0,0.0,0.0,0.0,0.0,0.0,0.0,0.0,0.0,0.0,0.0,0.0,0.0,0.0,0.0,0.0,0.0,0.0,0.0,0.0,0.0,0.0,0.0,0.0,0.0,0.0,0.0,0.0,0.0,0.0,0.0,0.0,0.0,0.0,0.0,0.0,0.0,0.0,0.0,0.0,0.0,0.0,0.0,0.0,0.0,0.0,0.0,0.0,0.0,0.0,0.0,0.0,0.0,0.0,0.0,0.0,0.0,0.0,0.0,0.0,0.0,0.0,0.0,0.0,0.0,0.0,0.0,0.0,0.0,0.0,0.0,0.0,0.0,0.0,0.0,0.0,0.0,0.0,-1.473,-1.4771,-1.5684,-1.572,-1.5055,0.0,0.0,0.0,0.0,0.0,0.0,0.0,0.0,0.0,0.0,0.0,0.0,0.0,0.0,0.0,0.0,0.0,0.0,0.0,0.0,0.0,0.0,0.0,0.0,0.0,0.0,0.0,0.0,0.0,0.0,0.0,0.0,0.0,0.0,0.0,0.0,0.0,0.0,0.0,0.0,0.0,0.0,0.0,0.0,0.0,0.0,0.0,0.0,0.0,0.0,0.0,0.0,0.0,0.0,0.0,0.0,0.0,0.0,0.0,0.0,0.0,0.0,0.0,0.0,0.0,0.0,0.0,0.0,0.0,0.0,0.0,0.0,0.0,0.0,0.0,0.0,0.0,0.0,0.0,0.0,0.0,0.0,0.0,0.0,0.0,0.0,0.0,0.0,0.0,0.0,0.0,0.0,0.0,0.0,0.0,0.0,0.0,0.0,0.0,0.0,0.0,0.0,0.0,0.0,0.0,0.0,0.0,0.0,0.0,-1.3768,-1.4132,-1.5133,-1.6702,-1.5211,-1.4357,0.0,0.0,0.0,0.0,0.0,0.0,0.0,0.0,0.0,0.0,0.0,0.0,0.0,0.0,0.0,0.0,0.0,0.0,0.0,0.0,0.0,0.0,0.0,0.0,0.0,0.0,0.0,0.0,0.0,0.0,0.0,0.0,0.0,0.0,0.0,0.0,0.0,0.0,0.0,0.0,0.0,0.0,0.0,0.0,0.0,0.0,0.0,0.0,0.0,0.0,0.0,0.0,0.0,0.0,0.0,0.0,0.0,0.0,0.0,0.0,0.0,0.0,0.0,0.0,0.0,0.0,0.0,0.0,0.0,0.0,0.0,0.0,0.0,0.0,0.0,0.0,0.0,0.0,0.0,0.0,0.0,0.0,0.0,0.0,0.0,0.0,0.0,0.0,0.0,0.0,0.0,0.0,0.0,0.0,0.0,0.0,0.0,0.0,0.0,0.0,0.0,0.0,0.0,0.0,0.0,0.0,0.0,0.0,0.0,-1.3696,0.0,-1.58,0.0,-1.5175,-1.4132,0.0,0.0,0.0,0.0,0.0,0.0,0.0,0.0,0.0,0.0,0.0,0.0,0.0,0.0,0.0,0.0,0.0,0.0,0.0,0.0,0.0,0.0,0.0,0.0,0.0,0.0,0.0,0.0,0.0,0.0,0.0,0.0,0.0,0.0,0.0,0.0,0.0,0.0,0.0,0.0,0.0,0.0,0.0,0.0,0.0,0.0,0.0,0.0,0.0,0.0,0.0,0.0,0.0,0.0,0.0,0.0,0.0,0.0,0.0,0.0,0.0,0.0,0.0,0.0,0.0,0.0,0.0,0.0,0.0,0.0,0.0,0.0,0.0,0.0,0.0,0.0,0.0,0.0,0.0,0.0,0.0,0.0,0.0,0.0,0.0,0.0,0.0,0.0,0.0,0.0,0.0,0.0,0.0,0.0,0.0,0.0,0.0,0.0,0.0,0.0,0.0,0.0,0.0,0.0,0.0,0.0,0.0,0.0,-1.3746,-1.5704,-1.6738,-1.6798,-1.5876,-1.574,-1.4417,0.0,0.0,0.0,0.0,0.0,0.0,0.0,0.0,0.0,0.0,0.0,0.0,0.0,0.0,0.0,0.0,0.0,0.0,0.0,0.0,0.0,0.0,0.0,0.0,0.0,0.0,0.0,0.0,0.0,0.0,0.0,0.0,0.0,0.0,0.0,0.0,0.0,0.0,0.0,0.0,0.0,0.0,0.0,0.0,0.0,0.0,0.0,0.0,0.0,0.0,0.0,0.0,0.0,0.0,0.0,0.0,0.0,0.0,0.0,0.0,0.0,0.0,0.0,0.0,0.0,0.0,0.0,0.0,0.0,0.0,0.0,0.0,0.0,0.0,0.0,0.0,0.0,0.0,0.0,0.0,0.0,0.0,0.0,0.0,0.0,0.0,0.0,0.0,0.0,0.0,0.0,0.0,0.0,0.0,0.0,0.0,0.0,0.0,0.0,0.0,0.0,0.0,0.0,0.0,0.0,0.0,0.0,0.0,0.0,-1.511,-1.5514,-1.6272,-1.7327,-1.5208,-1.4274,0.0,0.0,0.0,0.0,0.0,0.0,0.0,0.0,0.0,0.0,0.0,0.0,0.0,0.0,0.0,0.0,0.0,0.0,0.0,0.0,0.0,0.0,0.0,0.0,0.0,0.0,0.0,0.0,0.0,0.0,0.0,0.0,0.0,0.0,0.0,0.0,0.0,0.0,0.0,0.0,0.0,0.0,0.0,0.0,0.0,0.0,0.0,0.0,0.0,0.0,0.0,0.0,0.0,0.0,0.0,0.0,0.0,0.0,0.0,0.0,0.0,0.0,0.0,0.0,0.0,0.0,0.0,0.0,0.0,0.0,0.0,0.0,0.0,0.0,0.0,0.0,0.0,0.0,0.0,0.0,0.0,0.0,0.0,0.0,0.0,0.0,0.0,0.0,0.0,0.0,0.0,0.0,0.0,0.0,0.0,0.0,0.0,0.0,0.0,0.0,0.0,0.0,0.0,0.0,0.0,0.0,0.0,0.0,0.0,-1.6995,-1.7237,-1.7884,-1.8796,-1.6376,-1.5312,-1.5865,0.0,0.0,0.0,0.0,0.0,0.0,0.0,0.0,0.0,0.0,0.0,0.0,0.0,0.0,0.0,0.0,0.0,0.0,0.0,0.0,0.0,0.0,0.0,0.0,0.0,0.0,0.0,0.0,0.0,0.0,0.0,0.0,0.0,0.0,0.0,0.0,0.0,0.0,0.0,0.0,0.0,0.0,0.0,0.0,0.0,0.0,0.0,0.0,0.0,0.0,0.0,0.0,0.0,0.0,0.0,0.0,0.0,0.0,0.0,0.0,0.0,0.0,0.0,0.0,0.0,0.0,0.0,0.0,0.0,0.0,0.0,0.0,0.0,0.0,0.0,0.0,0.0,0.0,0.0,0.0,0.0,0.0,0.0,0.0,0.0,0.0,0.0,0.0,0.0,0.0,0.0,0.0,0.0,0.0,0.0,0.0,0.0,0.0,0.0,0.0,0.0,0.0,0.0,0.0,0.0,0.0,0.0,0.0,-2.0788,-2.1483,-2.1233,-2.0088,-1.8811,-1.7288,0.0,0.0,0.0,0.0,0.0,0.0,0.0,0.0,0.0,0.0,0.0,0.0,0.0,0.0,0.0,0.0,0.0,0.0,0.0,0.0,0.0,0.0,0.0,0.0,0.0,0.0,0.0,0.0,0.0,0.0,0.0,0.0,0.0,0.0,0.0,0.0,0.0,0.0,0.0,0.0,0.0,0.0,0.0,0.0,0.0,0.0,0.0,0.0,0.0,0.0,0.0,0.0,0.0,0.0,0.0,0.0,0.0,0.0,0.0,0.0,0.0,0.0,0.0,0.0,0.0,0.0,0.0,0.0,0.0,0.0,0.0,0.0,0.0,0.0,0.0,0.0,0.0,0.0,0.0,0.0,0.0,0.0,0.0,0.0,0.0,0.0,0.0,0.0,0.0,0.0,0.0,0.0,0.0,0.0,0.0,0.0,0.0,0.0,0.0,0.0,0.0,0.0,0.0,0.0,0.0,0.0,0.0,0.0,0.0,-2.3142,-2.4664,-2.4395,-2.2351,-1.9914,-1.8326,0.0,0.0,0.0,0.0,0.0,0.0,0.0,0.0,0.0,0.0,0.0,0.0,0.0,0.0,0.0,0.0,0.0,0.0,0.0,0.0,0.0,0.0,0.0,0.0,0.0,0.0,0.0,0.0,0.0,0.0,0.0,0.0,0.0,0.0,0.0,0.0,0.0,0.0,0.0,0.0,0.0,0.0,0.0,0.0,0.0,0.0,0.0,0.0,0.0,0.0,0.0,0.0,0.0,0.0,0.0,0.0,0.0,0.0,0.0,0.0,0.0,0.0,0.0,0.0,0.0,0.0,0.0,0.0,0.0,0.0,0.0,0.0,0.0,0.0,0.0,0.0,0.0,0.0,0.0,0.0,0.0,0.0,0.0,0.0,0.0,0.0,0.0,0.0,0.0,0.0,0.0,0.0,0.0,0.0,0.0,0.0,0.0,0.0,0.0,0.0,0.0,0.0,0.0,0.0,0.0,0.0,0.0,0.0,-2.2244,-2.4507,-2.6288,-2.6578,-2.5165,-2.2748,-2.0771,0.0,0.0,0.0,0.0,0.0,0.0,0.0,0.0,0.0,0.0,0.0,0.0,0.0,0.0,0.0,0.0,0.0,0.0,0.0,0.0,0.0,0.0,0.0,0.0,0.0,0.0,0.0,0.0,0.0,0.0,0.0,0.0,0.0,0.0,0.0,0.0,0.0,0.0,0.0,0.0,0.0,0.0,0.0,0.0,0.0,0.0,0.0,0.0,0.0,0.0,0.0,0.0,0.0,0.0,0.0,0.0,0.0,0.0,0.0,0.0,0.0,0.0,0.0,0.0,0.0,0.0,0.0,0.0,0.0,0.0,0.0,0.0,0.0,0.0,0.0,0.0,0.0,0.0,0.0,0.0,0.0,0.0,0.0,0.0,0.0,0.0,0.0,0.0,0.0,0.0,0.0,0.0,0.0,0.0,0.0,0.0,0.0,0.0,0.0,0.0,0.0,0.0,0.0,0.0,0.0,0.0,0.0,0.0,-2.332,-2.523,-2.7039,-2.7945,-2.7818,-2.5936,-2.354,0.0,0.0,0.0,0.0,0.0,0.0,0.0,0.0,0.0,0.0,0.0,0.0,0.0,0.0,0.0,0.0,0.0,0.0,0.0,0.0,0.0,0.0,0.0,0.0,0.0,0.0,0.0,0.0,0.0,0.0,0.0,0.0,0.0,0.0,0.0,0.0,0.0,0.0,0.0,0.0,0.0,0.0,0.0,0.0,0.0,0.0,0.0,0.0,0.0,0.0,0.0,0.0,0.0,0.0,0.0,0.0,0.0,0.0,0.0,0.0,0.0,0.0,0.0,0.0,0.0,0.0,0.0,0.0,0.0,0.0,0.0,0.0,0.0,0.0,0.0,0.0,0.0,0.0,0.0,0.0,0.0,0.0,0.0,0.0,0.0,0.0,0.0,0.0,0.0,0.0,0.0,0.0,0.0,0.0,0.0,0.0,0.0,0.0,0.0,0.0,0.0,0.0,0.0,0.0,0.0,0.0,0.0,0.0,-2.4563,-2.6399,-2.825,-2.8984,-2.8507,-2.5807,-2.3378,0.0,0.0,0.0,0.0,0.0,0.0,0.0,0.0,0.0,0.0,0.0,0.0,0.0,0.0,0.0,0.0,0.0,0.0,0.0,0.0,0.0,0.0,0.0,0.0,0.0,0.0,0.0,0.0,0.0,0.0,0.0,0.0,0.0,0.0,0.0,0.0,0.0,0.0,0.0,0.0,0.0,0.0,0.0,0.0,0.0,0.0,0.0,0.0,-1.7531,0.0,0.0,0.0,0.0,0.0,0.0,0.0,0.0,0.0,0.0,0.0,0.0,0.0,0.0,0.0,0.0,0.0,0.0,0.0,0.0,0.0,0.0,0.0,0.0,0.0,0.0,0.0,0.0,0.0,0.0,0.0,0.0,0.0,0.0,0.0,0.0,0.0,0.0,0.0,0.0,0.0,0.0,0.0,0.0,0.0,0.0,0.0,0.0,0.0,0.0,0.0,0.0,0.0,0.0,0.0,0.0,0.0,0.0,0.0,-2.5427,-2.7328,-2.8862,-2.951,-2.9148,-2.6778,-2.4515,0.0,0.0,0.0,0.0,0.0,0.0,0.0,0.0,0.0,0.0,0.0,0.0,0.0,0.0,0.0,0.0,0.0,0.0,0.0,0.0,0.0,0.0,0.0,0.0,0.0,0.0,0.0,0.0,0.0,0.0,0.0,0.0,0.0,0.0,0.0,0.0,0.0,0.0,0.0,0.0,0.0,0.0,0.0,0.0,0.0,0.0,0.0,0.0,0.0,0.0,0.0,0.0,0.0,0.0,0.0,0.0,0.0,0.0,0.0,0.0,0.0,0.0,0.0,0.0,0.0,0.0,0.0,0.0,0.0,0.0,0.0,0.0,0.0,0.0,0.0,0.0,0.0,0.0,0.0,0.0,0.0,0.0,0.0,0.0,0.0,0.0,0.0,0.0,0.0,0.0,0.0,0.0,0.0,0.0,0.0,0.0,0.0,0.0,0.0,0.0,0.0,0.0,0.0,0.0,0.0,0.0,0.0,-2.3611,-2.5932,-2.8037,-2.912,-2.9713,-2.978,-2.8023,-2.5952,-2.3664,0.0,0.0,0.0,0.0,0.0,0.0,0.0,0.0,0.0,0.0,0.0,0.0,0.0,0.0,0.0,0.0,0.0,0.0,0.0,0.0,0.0,0.0,0.0,0.0,0.0,0.0,0.0,0.0,0.0,0.0,0.0,0.0,0.0,0.0,0.0,0.0,0.0,0.0,-1.5624,-1.7196,0.0,0.0,0.0,0.0,0.0,0.0,0.0,0.0,-1.8038,0.0,0.0,0.0,0.0,0.0,0.0,0.0,0.0,0.0,0.0,0.0,0.0,0.0,0.0,0.0,0.0,0.0,0.0,0.0,0.0,0.0,0.0,0.0,0.0,0.0,0.0,0.0,0.0,0.0,0.0,0.0,0.0,0.0,0.0,0.0,0.0,0.0,0.0,0.0,0.0,0.0,0.0,0.0,0.0,0.0,0.0,0.0,0.0,0.0,0.0,0.0,0.0,0.0,0.0,0.0,0.0,-2.2969,-2.3886,-2.5774,-2.8661,-2.944,-2.9761,-2.9752,-2.8139,-2.6379,-2.4396,0.0,0.0,0.0,0.0,0.0,0.0,0.0,0.0,0.0,0.0,0.0,0.0,0.0,0.0,0.0,0.0,0.0,0.0,0.0,0.0,0.0,0.0,0.0,0.0,0.0,0.0,0.0,0.0,0.0,0.0,0.0,0.0,0.0,0.0,0.0,0.0,0.0,0.0,0.0,-1.9661,-2.061,0.0,0.0,0.0,0.0,0.0,0.0,0.0,0.0,-1.706,0.0,0.0,0.0,0.0,0.0,0.0,0.0,0.0,0.0,0.0,0.0,0.0,0.0,0.0,0.0,0.0,0.0,0.0,0.0,0.0,0.0,0.0,0.0,0.0,0.0,0.0,0.0,0.0,0.0,0.0,0.0,0.0,0.0,0.0,0.0,0.0,0.0,0.0,0.0,0.0,0.0,0.0,0.0,0.0,0.0,0.0,0.0,0.0,0.0,0.0,0.0,0.0,0.0,0.0,0.0,-2.2958,-2.4875,-2.7029,-2.9419,-2.9476,-2.9462,-2.954,-2.7524,-2.5724,0.0,0.0,0.0,0.0,0.0,0.0,0.0,0.0,0.0,0.0,0.0,0.0,0.0,0.0,0.0,0.0,0.0,0.0,0.0,0.0,0.0,0.0,0.0,0.0,0.0,0.0,0.0,0.0,0.0,0.0,0.0,0.0,0.0,0.0,0.0,0.0,0.0,0.0,0.0,0.0,-2.0977,-2.1617,-2.1589,0.0,0.0,0.0,0.0,0.0,0.0,-1.8998,-1.8303,0.0,0.0,0.0,0.0,0.0,0.0,0.0,0.0,0.0,0.0,0.0,0.0,0.0,0.0,0.0,0.0,0.0,0.0,0.0,0.0,0.0,0.0,0.0,0.0,0.0,0.0,0.0,0.0,0.0,0.0,0.0,0.0,0.0,0.0,0.0,0.0,0.0,0.0,0.0,0.0,0.0,0.0,0.0,0.0,0.0,0.0,0.0,0.0,0.0,0.0,0.0,0.0,0.0,0.0,0.0,-2.2766,-2.5515,-2.7939,-2.9857,-2.954,-2.9387,-2.9347,-2.7173,-2.5387,0.0,0.0,0.0,0.0,0.0,0.0,0.0,0.0,0.0,0.0,0.0,0.0,0.0,0.0,0.0,0.0,0.0,0.0,0.0,0.0,0.0,0.0,0.0,0.0,0.0,0.0,0.0,0.0,0.0,0.0,0.0,0.0,0.0,0.0,0.0,0.0,0.0,0.0,0.0,0.0,0.0,-2.2891,-2.2907,-2.2642,0.0,0.0,0.0,0.0,-2.1566,-2.1102,0.0,0.0,0.0,0.0,0.0,0.0,0.0,0.0,0.0,0.0,0.0,0.0,0.0,0.0,0.0,0.0,0.0,0.0,0.0,0.0,0.0,0.0,0.0,0.0,0.0,0.0,0.0,0.0,0.0,0.0,0.0,0.0,0.0,0.0,0.0,0.0,0.0,0.0,0.0,0.0,0.0,0.0,0.0,0.0,0.0,0.0,0.0,0.0,0.0,0.0,0.0,0.0,0.0,0.0,0.0,0.0,-2.283,-2.4797,-2.6975,-2.9376,-2.9906,-2.9892,-2.939,-2.8134,-2.6321,0.0,0.0,0.0,0.0,0.0,0.0,0.0,0.0,0.0,0.0,0.0,0.0,0.0,0.0,0.0,0.0,0.0,0.0,0.0,0.0,0.0,0.0,0.0,0.0,0.0,0.0,0.0,0.0,0.0,0.0,0.0,0.0,0.0,0.0,0.0,0.0,0.0,0.0,0.0,0.0,0.0,-2.5723,-2.3238,-2.3951,-2.4431,0.0,0.0,-2.3851,-2.4497,-2.453,0.0,0.0,0.0,0.0,0.0,0.0,0.0,0.0,0.0,0.0,0.0,0.0,0.0,0.0,0.0,0.0,0.0,0.0,0.0,0.0,0.0,0.0,0.0,0.0,0.0,0.0,0.0,0.0,0.0,0.0,0.0,0.0,0.0,0.0,0.0,0.0,0.0,0.0,0.0,0.0,0.0,0.0,0.0,0.0,0.0,0.0,0.0,0.0,0.0,0.0,0.0,0.0,0.0,0.0,0.0,-2.0587,-2.3256,-2.598,-2.8206,-2.9837,-2.9896,-2.9609,-2.8973,-2.7089,-2.5052,0.0,0.0,0.0,0.0,0.0,0.0,0.0,0.0,0.0,0.0,0.0,0.0,0.0,0.0,0.0,0.0,0.0,0.0,0.0,0.0,0.0,0.0,0.0,0.0,0.0,0.0,0.0,0.0,0.0,0.0,0.0,0.0,0.0,0.0,0.0,0.0,0.0,0.0,0.0,0.0,0.0,0.0,-2.4315,-2.5408,0.0,0.0,0.0,-2.5673,-2.6783,0.0,0.0,0.0,0.0,0.0,0.0,0.0,0.0,0.0,0.0,0.0,0.0,0.0,0.0,0.0,0.0,0.0,0.0,0.0,0.0,0.0,0.0,0.0,0.0,0.0,0.0,0.0,0.0,0.0,0.0,0.0,0.0,0.0,0.0,0.0,0.0,0.0,0.0,0.0,0.0,0.0,0.0,0.0,0.0,0.0,0.0,0.0,0.0,0.0,0.0,0.0,0.0,0.0,0.0,0.0,0.0,0.0,-2.3673,-2.6987,-2.916,-3.0098,-2.9957,-2.9479,-2.8681,-2.6489,0.0,0.0,0.0,0.0,0.0,0.0,0.0,0.0,0.0,0.0,0.0,0.0,0.0,0.0,0.0,0.0,0.0,0.0,0.0,0.0,0.0,0.0,0.0,0.0,0.0,0.0,0.0,0.0,0.0,0.0,0.0,0.0,0.0,0.0,0.0,0.0,0.0,0.0,0.0,0.0,0.0,0.0,-2.5806,-2.5441,-2.6932,-2.7628,0.0,0.0,-2.7611,-2.8506,-2.7114,-2.5723,0.0,0.0,0.0,0.0,0.0,0.0,0.0,0.0,0.0,0.0,0.0,0.0,0.0,0.0,0.0,0.0,0.0,0.0,0.0,0.0,0.0,0.0,0.0,0.0,0.0,0.0,0.0,0.0,0.0,0.0,0.0,0.0,0.0,0.0,0.0,0.0,0.0,0.0,0.0,0.0,0.0,0.0,0.0,0.0,0.0,0.0,0.0,0.0,0.0,0.0,0.0,0.0,0.0,0.0,0.0,-2.3891,-2.7041,-2.9015,-2.9624,-3.0234,-2.9929,-2.871,-2.7374,-2.5168,0.0,0.0,0.0,0.0,0.0,0.0,0.0,0.0,0.0,0.0,0.0,0.0,0.0,0.0,0.0,0.0,0.0,0.0,0.0,0.0,0.0,0.0,0.0,0.0,0.0,0.0,0.0,0.0,0.0,0.0,0.0,0.0,0.0,0.0,0.0,0.0,0.0,0.0,0.0,0.0,0.0,-2.7661,-2.6336,-2.8522,-3.0013,0.0,0.0,-3.0029,-2.9433,-3.0328,-2.9707,-2.5756,0.0,0.0,0.0,0.0,0.0,0.0,0.0,0.0,0.0,0.0,0.0,0.0,0.0,0.0,0.0,0.0,0.0,0.0,0.0,0.0,0.0,0.0,0.0,0.0,0.0,0.0,0.0,0.0,0.0,0.0,0.0,0.0,0.0,0.0,0.0,0.0,0.0,0.0,0.0,0.0,0.0,0.0,0.0,0.0,0.0,0.0,0.0,0.0,0.0,0.0,0.0,0.0,0.0,-2.1133,-2.4442,-2.7244,-2.9174,-3.0161,-3.0451,-2.9958,-2.8695,-2.7447,-2.5284,0.0,0.0,0.0,0.0,0.0,0.0,0.0,0.0,0.0,0.0,0.0,0.0,0.0,0.0,0.0,0.0,0.0,0.0,0.0,0.0,0.0,0.0,0.0,0.0,0.0,0.0,0.0,0.0,-1.4608,-1.4939,-1.4311,0.0,0.0,0.0,0.0,0.0,0.0,0.0,0.0,0.0,0.0,-2.8323,-2.8207,-2.9914,0.0,0.0,-2.9963,-3.0212,-3.1272,-3.0029,-2.8671,-2.7876,-2.5292,0.0,0.0,0.0,0.0,0.0,0.0,0.0,0.0,0.0,0.0,0.0,0.0,0.0,0.0,0.0,0.0,0.0,0.0,0.0,0.0,0.0,0.0,0.0,0.0,0.0,0.0,0.0,0.0,0.0,0.0,0.0,0.0,0.0,0.0,0.0,0.0,0.0,0.0,0.0,0.0,0.0,0.0,0.0,0.0,0.0,0.0,0.0,0.0,0.0,0.0,0.0,0.0,-2.1191,-2.4757,-2.736,-2.929,-3.0613,-3.0642,-3.006,-2.8985,-2.7723,-2.5647,0.0,0.0,0.0,0.0,0.0,0.0,0.0,0.0,0.0,0.0,0.0,0.0,0.0,0.0,0.0,0.0,0.0,0.0,0.0,0.0,0.0,0.0,0.0,0.0,0.0,0.0,0.0,0.0,-1.565,-1.5867,-1.4789,0.0,0.0,0.0,0.0,0.0,0.0,0.0,0.0,0.0,0.0,-2.8704,-2.9632,-3.0824,-3.152,-3.1205,-3.0361,-3.0294,-3.1802,-3.0079,-2.8572,-2.8472,0.0,0.0,0.0,0.0,0.0,0.0,0.0,0.0,0.0,0.0,0.0,0.0,0.0,0.0,0.0,0.0,0.0,0.0,0.0,0.0,0.0,0.0,0.0,0.0,0.0,0.0,0.0,0.0,0.0,0.0,-1.7156,0.0,0.0,0.0,0.0,0.0,0.0,0.0,0.0,0.0,0.0,0.0,0.0,0.0,0.0,0.0,0.0,0.0,0.0,0.0,0.0,0.0,0.0,-2.1641,-2.4757,-2.7389,-2.9348,-3.0584,-3.0642,-3.0263,-2.9595,-2.8361,-2.6474,-2.3862,0.0,0.0,0.0,0.0,0.0,0.0,0.0,0.0,0.0,0.0,0.0,0.0,0.0,0.0,0.0,0.0,0.0,0.0,0.0,0.0,0.0,0.0,0.0,0.0,0.0,0.0,-1.4554,-1.4229,-1.3718,0.0,0.0,0.0,0.0,0.0,0.0,0.0,0.0,0.0,0.0,-2.6535,-2.892,-3.0328,-3.1113,-3.1885,-3.2531,-3.1437,-3.0501,-3.0642,-3.1073,-3.0328,0.0,0.0,0.0,0.0,0.0,0.0,0.0,0.0,0.0,0.0,0.0,0.0,0.0,0.0,0.0,0.0,0.0,0.0,0.0,0.0,0.0,0.0,0.0,0.0,0.0,0.0,0.0,-2.2746,-2.212,0.0,0.0,0.0,0.0,0.0,0.0,0.0,0.0,0.0,0.0,0.0,-2.5358,-2.5488,0.0,0.0,0.0,0.0,0.0,0.0,0.0,0.0,0.0,0.0,0.0,0.0,-2.1873,-2.5371,-2.7592,-2.9305,-3.0584,-3.0642,-3.0277,-2.9624,-2.8335,-2.6112,-2.273,0.0,0.0,0.0,0.0,0.0,0.0,0.0,0.0,0.0,0.0,0.0,0.0,0.0,0.0,0.0,0.0,0.0,0.0,0.0,0.0,0.0,0.0,0.0,0.0,0.0,-1.5763,0.0,0.0,0.0,0.0,0.0,0.0,0.0,0.0,0.0,0.0,0.0,-2.2708,-2.5143,-2.7959,-3.0328,-3.1752,-3.2166,-3.258,0.0,0.0,0.0,0.0,0.0,0.0,0.0,0.0,0.0,0.0,0.0,0.0,0.0,0.0,-2.7878,-2.3102,-2.1454,-2.1194,-2.2412,0.0,0.0,0.0,0.0,0.0,0.0,0.0,0.0,0.0,0.0,0.0,0.0,0.0,0.0,-2.552,0.0,-2.4312,0.0,0.0,0.0,0.0,0.0,0.0,0.0,0.0,-2.5697,-2.7039,-2.8279,-2.8598,-2.8353,0.0,-2.6443,-2.4278,0.0,0.0,0.0,0.0,0.0,0.0,0.0,0.0,-2.2875,-2.5734,-2.7911,-2.9523,-3.0524,-3.0642,-3.0379,-2.9943,-2.8507,-2.6242,-2.3107,-2.1351,-1.9754,0.0,0.0,0.0,0.0,0.0,0.0,0.0,0.0,0.0,0.0,0.0,0.0,0.0,0.0,0.0,0.0,0.0,0.0,0.0,0.0,0.0,0.0,0.0,-1.6886,0.0,0.0,0.0,0.0,0.0,0.0,0.0,0.0,0.0,-2.0042,-2.2145,-2.4663,-2.7346,-2.9334,-3.1139,-3.2829,0.0,0.0,0.0,0.0,0.0,0.0,0.0,-3.1288,-3.1196,-3.051,-3.0021,-3.0203,-3.099,-3.1447,-3.0767,0.0,0.0,-2.6926,-2.5291,-2.505,-2.6251,-2.6779,-2.7313,-2.8188,-2.9549,-3.0492,0.0,0.0,0.0,0.0,0.0,0.0,0.0,0.0,-2.7988,-2.7815,0.0,-2.6576,0.0,0.0,0.0,0.0,0.0,-2.5445,0.0,0.0,-2.9865,-3.0729,-2.9795,-3.1043,-3.0957,-2.9827,-3.017,-2.9117,-2.6721,-2.1917,0.0,0.0,0.0,0.0,0.0,0.0,-2.4573,-2.5981,-2.8405,-2.9972,-3.0657,-3.0611,-3.0582,-3.048,-2.8768,-2.691,-2.5009,-2.3688,-2.1526,-1.8535,-1.8303,0.0,0.0,0.0,0.0,0.0,0.0,0.0,0.0,0.0,0.0,0.0,0.0,0.0,0.0,0.0,0.0,0.0,0.0,0.0,0.0,-1.6939,0.0,0.0,0.0,0.0,0.0,0.0,0.0,0.0,0.0,0.0,-2.3156,-2.4381,-2.6551,-3.0063,0.0,0.0,0.0,0.0,-3.3292,-3.4767,-3.4352,-3.3657,-3.2945,-3.3955,-3.3905,-3.1205,0.0,0.0,-3.2254,-3.3006,-3.3333,-3.159,-3.2488,-3.3232,-3.3148,-3.183,-3.1207,-3.1941,-3.1336,-3.1112,-3.1733,-3.2633,-3.3255,-3.3517,0.0,0.0,0.0,0.0,-3.1747,-3.2347,-3.3223,-3.3143,-3.2349,-3.109,-3.0263,0.0,0.0,0.0,0.0,0.0,0.0,-2.9435,-3.0855,-3.2217,-3.3144,-3.3665,-3.4408,-3.4297,-3.3503,-3.2768,-3.1536,-2.9954,-2.7712,-2.4675,-2.0988,0.0,0.0,0.0,0.0,-2.5865,-2.8419,-2.9697,-3.0611,-3.1235,-3.125,-3.0814,-2.9914,-2.9377,-2.8187,-2.63,-2.5415,-2.392,-2.1642,-2.0291,0.0,0.0,0.0,0.0,0.0,0.0,0.0,0.0,0.0,0.0,0.0,0.0,0.0,0.0,0.0,0.0,0.0,0.0,0.0,-1.7675,-1.8621,-1.8969,0.0,0.0,0.0,0.0,0.0,0.0,0.0,0.0,0.0,-2.7346,-2.7909,-2.8953,0.0,0.0,-3.268,-3.4352,-3.4402,-3.4783,-3.6241,0.0,0.0,0.0,-3.4965,-3.48,-3.4468,-3.5578,-3.6257,-3.5644,-3.5876,-3.5991,-3.5549,-3.5897,-3.6276,-3.6202,-3.3963,-3.2408,-3.2923,-3.3471,-3.415,-3.4893,-3.6447,-3.7791,-3.8339,-3.5331,-3.411,-3.3833,-3.4237,-3.4653,-3.5295,-3.6045,-3.6093,-3.5619,-3.4719,-3.3804,-3.2077,-2.974,-2.8579,0.0,0.0,0.0,-3.2048,-3.3674,-3.4298,-3.4994,-3.5764,-3.6245,-3.6216,-3.5551,-3.4568,-3.3556,-3.2479,-3.1579,-2.9203,-2.5487,0.0,0.0,-2.4814,-2.6046,-2.781,-2.9914,-3.0901,-3.1526,-3.1903,-3.1656,-3.1032,-3.006,-2.9755,-2.8956,-2.7578,-2.6663,-2.5415,-2.3714,-2.2077,-2.0422,0.0,0.0,0.0,0.0,0.0,0.0,0.0,0.0,0.0,0.0,0.0,-1.3745,0.0,0.0,0.0,0.0,-1.6042,-1.796,-1.9952,-2.0797,0.0,0.0,0.0,0.0,0.0,0.0,0.0,-2.6154,-2.7561,-2.9069,-3.0891,-3.1404,-3.1918,-3.2812,-3.3541,-3.4435,-3.5611,0.0,-3.6092,-3.6986,-3.735,-3.7284,-3.6572,-3.6307,-3.6373,-3.6804,-3.7235,-3.7533,-3.7549,-3.7533,-3.7484,-3.7403,-3.7418,-3.7582,-3.7745,-3.5966,-3.4624,-3.5081,-3.6053,-3.688,-3.7197,-3.8712,-4.0052,-4.2451,-4.1569,-3.8165,-3.665,-3.668,-3.7434,-3.7709,-3.7622,-3.7665,-3.7912,-3.8188,-3.7056,-3.5836,-3.453,-3.2788,0.0,-3.2991,-3.363,-3.4588,-3.5764,-3.6344,-3.6577,-3.6562,-3.7172,-3.7114,-3.6446,-3.5822,-3.5227,-3.4632,-3.3993,-3.2745,-3.0872,-2.9131,-2.8117,-2.8028,-2.9145,-3.0118,-3.0814,-3.1975,-3.2585,-3.2585,-3.1888,-3.1235,-3.0655,-2.9972,-2.9334,-2.8681,-2.7505,-2.6257,-2.4916,-2.3656,-2.1874,-1.9551,0.0,0.0,0.0,0.0,0.0,0.0,0.0,0.0,0.0,0.0,0.0,0.0,0.0,0.0,0.0,-1.8997,0.0,-2.2307,-2.3143,0.0,0.0,0.0,-2.4133,-2.3553,-2.5905,-2.7848,-2.8555,0.0,0.0,-3.3707,0.0,-3.5164,-3.5164,-3.5694,-3.6357,-3.7102,-3.7168,-3.7218,-3.7334,-3.7864,-3.8046,-3.7483,-3.7814,-3.8162,-3.8195,-3.8295,-3.8295,-3.8295,-3.8295,-3.81,-3.782,-3.7668,-3.78,-3.8043,-3.8024,-3.8075,-3.8007,-3.8594,-3.9041,-3.8755,-3.9722,-4.0616,-4.3994,-4.3357,-4.2451,-4.1528,-4.0712,-4.1389,-4.1091,-4.0263,-4.0742,-4.0205,-3.8957,-3.8638,-3.781,-3.6591,-3.6141,-3.6272,-3.6881,-3.7535,-3.8246,-3.8957,-3.9117,-3.8942,-3.8536,-3.8681,-3.8405,-3.7738,-3.7128,-3.6765,-3.6591,-3.5952,-3.4907,-3.3543,-3.3035,-3.1845,-3.0001,-3.0669,-3.1627,-3.2838,-3.3093,-3.3238,-3.3209,-3.2121,-3.1453,-3.1293,-3.0219,-2.9334,-2.8695,-2.7926,-2.691,-2.5618,-2.4341,-2.3165,-2.2019,-1.9411,0.0,0.0,0.0,0.0,0.0,0.0,0.0,0.0,0.0,-1.7239,-1.4659,0.0,-1.8305,0.0,-1.9943,-2.1729,-2.3368,-2.4007,0.0,0.0,-2.7077,-2.7694,-2.8605,-2.9317,-3.0029,-3.0758,-3.2282,-3.3624,-3.4535,-3.6257,-3.7417,-3.7417,-3.7085,-3.7119,-3.7831,-3.7947,-3.8146,-3.8626,-3.8874,-3.8957,-3.8758,-3.8891,-3.9007,-3.9023,-3.9023,-3.9023,-3.9023,-3.9129,-3.9168,-3.9192,-3.9261,-3.9362,-3.9512,-3.9563,-3.9529,-3.9579,-3.9603,-3.9541,-3.9468,-4.0704,-4.1765,-4.5387,-4.4835,-4.485,-4.4429,-4.3776,-4.3544,-4.3036,-4.2426,-4.2774,-4.2339,-4.1308,-4.0742,-3.977,-3.858,-3.8551,-3.8739,-3.9059,-3.9436,-3.9784,-4.0089,-4.0104,-3.9915,-3.961,-3.9596,-3.9262,-3.8638,-3.8318,-3.7854,-3.7302,-3.6939,-3.6228,-3.5285,-3.5256,-3.4399,-3.2774,-3.2498,-3.289,-3.3862,-3.3891,-3.3761,-3.3456,-3.2469,-3.17,-3.1105,-3.0408,-2.9479,-2.8303,-2.7926,-2.7128,-2.5836,-2.4573,-2.3601,-2.2902,-2.0686,-1.9188,0.0,0.0,0.0,0.0,0.0,0.0,0.0,0.0,0.0,0.0,0.0,-1.9824,0.0,-2.273,-2.4601,-2.567,-2.6944,-2.8162,-2.9234,-2.9914,-3.0626,-3.1404,-3.2067,-3.2746,-3.3491,-3.4568,-3.5545,-3.6307,-3.745,-3.8328,-3.8626,-3.8328,-3.8228,-3.8576,-3.8692,-3.8841,-3.9206,-3.9288,-3.9288,-3.9288,-3.9288,-3.9288,-3.9288,-3.9288,-3.9288,-3.9288,-3.9379,-3.9484,-3.9625,-3.9781,-3.9884,-4.007,-4.0087,-4.0087,-4.012,-4.0175,-4.0262,-4.0485,-4.1563,-4.2498,-4.6577,-4.6011,-4.5996,-4.5967,-4.5808,-4.469,-4.4182,-4.411,-4.411,-4.4066,-4.3921,-4.2818,-4.1686,-4.0612,-4.051,-4.0466,-4.0466,-4.0394,-4.035,-4.035,-4.035,-4.0307,-4.022,-4.0234,-3.9915,-3.9334,-3.9247,-3.8638,-3.7564,-3.7476,-3.7085,-3.646,-3.6431,-3.6127,-3.5459,-3.437,-3.4022,-3.4399,-3.4414,-3.4138,-3.3667,-3.2977,-3.2063,-3.0901,-3.0582,-2.9595,-2.7824,-2.765,-2.7041,-2.5836,-2.4733,-2.3847,-2.3149,-2.1946,-2.0669,0.0,-1.8854,0.0,0.0,0.0,0.0,0.0,0.0,0.0,0.0,-2.0688,-2.1879,-2.3266,-2.6243,-2.8214,-2.8586,-3.05,-3.162,-3.1262,-3.2348,-3.3143,-3.3292,-3.4402,-3.5429,-3.6075,-3.6787,-3.7516,-3.8046,-3.8278,-3.8609,-3.9272,-3.9388,-3.9437,-3.952,-3.9371,-3.9239,-3.9288,-3.9288,-3.9288,-3.9288,-3.9288,-3.9288,-3.9288,-3.9288,-3.9288,-3.9288,-3.9325,-3.9415,-3.9625,-3.9729,-3.9833,-4.007,-4.0087,-4.0087,-4.0138,-4.0497,-4.0967,-4.1251,-4.1919,-4.2711,-4.723,-4.6664,-4.665,-4.6359,-4.5866,-4.5634,-4.5213,-4.4719,-4.4719,-4.4458,-4.3979,-4.3732,-4.3485,-4.321,-4.2673,-4.244,-4.2411,-4.1932,-4.1715,-4.1729,-4.1715,-4.1424,-4.0916,-4.0902,-4.0568,-3.9929,-3.9436,-3.9088,-3.8826,-3.8289,-3.7723,-3.7128,-3.7128,-3.678,-3.6156,0.0,0.0,0.0,-3.4414,-3.4356,-3.4225,-3.3616,-3.2933,-3.215,-3.0626,0.0,-2.7755,-2.7244,-2.6591,-2.5836,-2.5546,0.0,0.0,0.0,0.0,0.0,0.0,0.0,0.0,0.0,0.0,0.0,-2.4051,-2.3433,-2.134,-2.4122,-2.639,-2.7198,-2.8624,-3.0027,-3.1248,-3.2032,-3.316,-3.4767,-3.5197,-3.5595,-3.6191,-3.6522,-3.6754,-3.6887,-3.7549,-3.8063,-3.8261,-3.8709,-3.9338,-4.005,-4.0166,-4.0415,-4.0895,-4.0034,-3.9338,-3.9288,-3.9388,-3.9322,-3.9288,-3.9338,-3.9355,-3.9288,-3.9288,-3.9288,-3.9342,-3.9468,-3.9642,-3.9729,-3.9884,-4.002,-4.007,-4.0087,-4.0087,-4.0087,-4.0737,-4.1276,-4.1019,-4.1348,-4.1888,-4.8599,0.0,-4.7474,-4.7114,0.0,-4.649,-4.6156,-4.5822,-4.5518,-4.5024,-4.4429,-4.4429,-4.4284,-4.3964,-4.3631,-4.3485,-4.3456,-4.2832,-4.2528,-4.2528,-4.2237,-4.1918,-4.1584,-4.1584,-4.125,-4.0583,-4.0278,-3.9813,-3.9204,-3.887,-3.8376,-3.7767,-3.7738,-3.7433,-3.6809,-3.6475,-3.5836,-3.4878,-3.4878,-3.4719,-3.4414,-3.379,-3.3006,-3.2048,0.0,0.0,0.0,0.0,0.0,0.0,0.0,0.0,0.0,0.0,0.0,-2.3876,-2.3862,-2.3862,-2.3876,-2.4471,-2.5125,-2.5763,-2.6805,-2.6513,-2.4427,-2.7063,-2.9007,-2.9407,-3.1198,-3.2772,-3.3584,-3.4396,-3.5313,-3.6406,-3.6539,-3.6837,-3.7516,-3.7665,-3.7781,-3.8146,-3.851,-3.8858,-3.9239,-3.957,-4.0083,-4.0763,-4.0895,-4.1028,-4.1293,-4.0812,-4.0348,-4.0332,-4.0332,-4.0332,-4.0282,-4.0017,-3.9818,-3.9856,-3.952,-3.9305,-3.9288,-3.9484,-3.9642,-3.9677,-3.9884,-4.0037,-4.0087,-4.0087,-4.0087,-4.0121,-4.0483,-4.0832,-4.0802,-4.1543,-4.2239,-4.9593,-4.9087,-4.8302,-4.7883,-4.7738,-4.7216,-4.6998,-4.694,0.0,0.0,0.0,-4.5053,-4.4792,-4.4313,-4.4197,-4.4153,-4.4095,-4.3471,-4.3166,-4.3137,-4.2542,-4.2252,-4.2252,-4.215,-4.1802,-4.1279,-4.1033,-4.0394,-3.9378,-3.9146,-3.8754,-3.826,-3.8202,-3.7955,-3.7462,-3.6925,-3.633,-3.5735,-3.559,-3.5227,-3.4588,-3.4066,-3.318,-3.1903,-3.1758,-3.0858,-2.9087,-2.8405,-2.7766,-2.7128,-2.6126,-2.5734,-2.6112,-2.6242,-2.6489,-2.691,-2.7171,-2.7287,-2.7302,-2.749,-2.7679,-2.7781,-2.9019,-2.9289,-2.8269,-2.9841,-3.1041,-3.1462,-3.3734,-3.5331,-3.5801,-3.6701,-3.7367,-3.7466,-3.7483,-3.7748,-3.8311,-3.8526,-3.8841,-3.9355,-3.9587,-3.9868,-4.0448,-4.0547,-4.0812,-4.1425,-4.1624,-4.169,-4.174,-4.1558,-4.1293,-4.1293,-4.1226,-4.1359,-4.1309,-4.0779,-4.0431,-4.0299,-3.979,-3.9305,-3.9325,-3.9432,-3.959,-3.9677,-3.9849,-3.9986,-4.0087,-4.0087,-4.0121,-4.0221,-4.0303,-4.0483,-4.0926,-4.1955,-4.2806,-4.8843,-4.877,-4.858,-4.8275,-4.7782,-4.768,-4.7637,-4.755,-4.6403,-4.5837,-4.575,-4.5735,-4.5706,-4.5576,-4.5024,-4.4748,-4.4719,-4.4124,-4.3848,0.0,-4.3166,-4.2861,-4.2832,-4.2339,-4.2049,-4.1874,-4.08,-4.0147,-3.9871,-3.8884,-3.8289,-3.8231,-3.8202,-3.8159,-3.8072,-3.7984,-3.7636,-3.7041,-3.6475,-3.5865,-3.5241,-3.5209,-3.4486,-3.3253,-3.2658,-3.1729,-3.035,-2.9697,-2.9058,-2.8448,-2.8245,-2.794,-2.752,-2.7984,-2.8071,-2.7694,-2.8623,-2.9218,-2.9247,-3.0234,-3.1105,-3.1656,-3.1984,-3.2165,-3.2158,-3.2634,-3.359,-3.5107,-3.569,-3.6462,-3.7626,-3.7961,-3.8344,-3.8891,-3.8974,-3.9023,-3.9189,-3.9686,-4.0083,-4.0216,-4.0763,-4.1077,-4.1226,-4.1276,-4.1541,-4.217,-4.2369,-4.2568,-4.285,-4.2204,-4.1508,-4.1425,-4.1425,-4.1425,-4.1425,-4.0845,-4.0481,-4.0382,-3.9769,-3.9288,-3.9288,-3.9468,-3.9625,-3.9677,-3.9884,-4.0037,-4.0087,-4.0087,-4.0204,-4.0531,-4.0849,-4.1168,-4.1303,-4.2098,-4.2729,-4.9001,-4.8909,-4.8377,-4.8246,-4.829,-4.829,-4.8101,-4.7738,-4.7172,-4.6708,-4.6374,-4.604,-4.588,-4.5851,-4.5561,-4.543,-4.5401,-4.4763,-4.4472,-4.44,-4.3456,-4.2992,-4.2934,-4.2368,-4.1903,-4.1526,-4.0945,-4.0292,-3.9625,-3.9334,-3.9059,-3.8768,-3.8739,-3.8565,-3.8231,-3.8202,-3.8057,-3.7781,-3.7172,-3.6533,-3.5909,-3.588,-3.527,-3.4022,-3.3674,-3.2948,-3.1671,-3.1003,-3.051,-3.0234,-2.99,-2.974,-2.9798,-3.006,-3.0248,-3.0335,-3.0872,-3.1192,-3.1192,-3.1729,-3.2338,-3.2977,-3.3279,-3.3711,-3.448,-3.444,-3.4891,-3.6159,-3.6844,-3.7867,-3.9235,-3.9388,-3.9686,-4.0365,-4.0431,-4.0431,-4.0464,-4.0713,-4.0945,-4.0961,-4.121,-4.1558,-4.1955,-4.2021,-4.2286,-4.2965,-4.3098,-4.3247,-4.3545,-4.2989,-4.2601,-4.2618,-4.2618,-4.2419,-4.2071,-4.1409,-4.0862,-4.0464,-3.9823,-3.9338,-3.9342,-3.9484,-3.959,-3.9694,-3.9884,-3.9986,-4.0087,-4.0087,-4.0221,-4.0353,-4.0802,-4.1065,-4.123,-4.1656,-4.2098,-4.8774,-4.8817,-4.8126,-4.8159,-4.8711,-4.8725,-4.8522,-4.8188,-4.7912,-4.7506,-4.6998,-4.6374,-4.5938,-4.5677,-4.5822,-4.5793,-4.5619,-4.5285,-4.5126,-4.4995,-4.395,-4.3355,-4.3166,-4.26,-4.1889,-4.1149,-4.0945,-4.0365,-3.9538,-3.9741,-3.9755,-3.9436,-3.9392,-3.9073,-3.8434,-3.842,-3.8347,-3.8188,-3.7752,-3.7186,-3.6562,-3.6533,-3.5981,-3.4951,-3.4835,-3.4312,-3.3224,-3.2527,-3.2106,-3.1946,-3.1351,-3.125,-3.17,-3.1888,-3.2179,-3.2672,-3.2861,-3.3006,-3.3137,-3.3166,-3.3427,-3.4051,-3.4442,-3.5001,-3.5946,-3.5959,-3.6122,-3.6864,-3.7721,-3.885,-4.0041,-4.0358,-4.0661,-4.1302,-4.1425,-4.1342,-4.1409,-4.1541,-4.1657,-4.1674,-4.1657,-4.1905,-4.2336,-4.2369,-4.2419,-4.285,-4.3131,-4.3131,-4.3131,-4.3115,-4.3148,-4.3363,-4.3495,-4.3247,-4.2634,-4.1872,-4.116,-4.0498,-3.9769,-3.9371,-3.9342,-3.9395,-3.9537,-3.9694,-3.9798,-3.9935,-4.0087,-4.0087,-4.0171,-4.037,-4.0754,-4.1065,-4.123,-4.1366,-4.1674,-4.7415,-4.7911,-4.7817,-4.8145,-4.8653,-4.8696,-4.8957,-4.9233,-4.829,-4.7767,-4.7564,-4.7013,-4.6069,-4.5155,-4.5605,-4.5576,-4.5097,-4.5561,-4.5779,-4.5692,-4.5039,-4.4429,-4.3834,-4.321,-4.2266,-4.1149,-4.0539,-4.0205,-3.9958,-3.9567,-3.9581,-3.9958,-4.0017,-3.9712,-3.9175,-3.9088,-3.8812,-3.8217,-3.8144,-3.7825,-3.7259,-3.7215,-3.6881,-3.617,-3.6127,-3.5807,-3.5053,-3.4486,-3.3877,-3.3311,-3.2716,-3.2382,-3.2513,-3.2977,-3.3325,-3.3427,-3.392,-3.4486,-3.5009,-3.5111,-3.5314,-3.5967,-3.6164,-3.6447,-3.6792,-3.7436,-3.7943,-3.8188,-3.8314,-3.9015,-4.0183,-4.0426,-4.0802,-4.1517,-4.1574,-4.1425,-4.1541,-4.2005,-4.2419,-4.2419,-4.2237,-4.2435,-4.2353,-4.1955,-4.164,-4.1823,-4.1905,-4.1889,-4.1872,-4.1856,-4.2038,-4.2568,-4.3131,-4.3181,-4.2551,-4.1889,-4.1127,-4.0448,-3.9752,-3.9371,-3.9342,-3.9395,-3.9554,-3.9677,-3.9798,-3.9952,-4.0037,-4.0121,-4.0254,-4.05,-4.0926,-4.1499,-4.1846,-4.176,-4.17,-4.717,-4.7421,-4.6909,-4.7013,-4.7608,-4.7999,-4.8304,-4.8464,-4.8014,-4.7579,-4.7216,-4.694,-4.6113,-4.4951,-4.559,-4.5518,-4.4951,-4.5576,-4.588,-4.5822,-4.5198,-4.4574,-4.3964,-4.3297,-4.2324,-4.1178,-4.0815,-4.0481,-4.0176,-4.0249,-4.0452,-4.067,-4.0684,-4.0365,-3.9755,-3.9378,-3.9073,-3.8783,-3.8405,-3.8072,-3.7868,-3.7825,-3.7535,-3.6983,-3.6896,-3.6591,-3.5981,-3.5662,-3.5415,-3.5154,-3.4907,-3.4762,-3.4762,-3.5009,-3.5154,-3.5154,-3.5386,-3.5648,-3.5894,-3.5923,-3.6025,-3.6286,-3.6458,-3.6831,-3.7441,-3.8235,-3.8968,-3.9477,-3.9237,-3.9519,-4.08,-4.1019,-4.1482,-4.2409,-4.2717,-4.2551,-4.2121,-4.2319,-4.2386,-4.1955,-4.1856,-4.1872,-4.1823,-4.1607,-4.1442,-4.1425,-4.1409,-4.1342,-4.1392,-4.1425,-4.1541,-4.1806,-4.2154,-4.2187,-4.1889,-4.1657,-4.0945,-4.005,-3.9504,-3.9288,-3.9325,-3.9325,-3.9432,-3.9677,-3.9729,-3.9884,-4.007,-4.007,-4.0171,-4.0531,-4.0802,-4.123,-4.1656,-4.1613,-4.163,-4.7204,-4.7031,-4.6299,-4.6243,-4.6853,-4.7317,-4.7622,-4.7753,-4.7608,-4.7259,-4.6838,-4.665,-4.5953,-4.5082,-4.559,-4.5518,-4.5024,-4.5576,-4.588,-4.5837,-4.5372,-4.4748,-4.3993,-4.35,-4.2498,-4.1323,-4.1294,-4.112,-4.0728,-4.1105,-4.1366,-4.1366,-4.1366,-4.1033,-4.0394,-3.9915,-3.9538,-3.9189,-3.8696,-3.8391,-3.8231,-3.8202,-3.7999,-3.7593,-3.7549,-3.7244,-3.662,-3.6577,-3.6489,-3.6315,-3.6286,-3.6286,-3.6286,-3.6286,-3.6286,-3.6286,-3.6286,-3.6388,-3.6562,-3.6577,-3.6649,-3.6881,-3.7111,-3.7474,-3.8216,-3.9067,-3.9803,-4.0346,-4.0138,-4.0468,-4.1555,-4.1792,-4.2358,-4.3443,-4.3645,-4.333,-4.2618,-4.2535,-4.2237,-4.1541,-4.1276,-4.1028,-4.0878,-4.0779,-4.0729,-4.0729,-4.0779,-4.0829,-4.0829,-4.0796,-4.0829,-4.1077,-4.1143,-4.1143,-4.1127,-4.1077,-4.0514,-3.9802,-3.9288,-3.9288,-3.9288,-3.9288,-3.9379,-3.9625,-3.9677,-3.9781,-4.002,-4.007,-4.0254,-4.0483,-4.0784,-4.1185,-4.17,-4.1613,-4.1569,-4.7204,-4.7031,-4.6299,-4.6229,-4.6824,-4.6867,-4.7201,-4.7608,-4.7114,-4.6838,-4.6708,-4.62,-4.5561,-4.498,-4.5605,-4.5532,-4.5039,-4.5619,-4.588,-4.5822,-4.5779,-4.5155,-4.4052,-4.3935,-4.2948,-4.141,-4.1802,-4.202,-4.1976,-4.202,-4.2049,-4.2034,-4.199,-4.17,-4.1134,-4.0945,-4.0394,-3.9436,-3.9175,-3.8855,-3.8304,-3.8231,-3.8188,-3.813,-3.8144,-3.7839,-3.7346,-3.7259,-3.6983,-3.6373,-3.6388,-3.6359,-3.6344,-3.6359,-3.6388,-3.6373,-3.6359,-3.662,-3.7172,-3.7259,-3.755,-3.8178,-3.8414,-3.8737,-3.8941,-3.9783,-4.0385,-4.0531,-4.1037,-4.1661,-4.2377,-4.2453,-4.2766,-4.3459,-4.3535,-4.323,-4.2551,-4.2336,-4.2154,-4.1409,-4.0763,-4.0233,-3.9624,-3.9371,-3.952,-3.9537,-3.9454,-3.9504,-3.9603,-3.9574,-3.9785,-4.0233,-4.0415,-4.0415,-4.0415,-4.058,-4.0199,-3.957,-3.9288,-3.9288,-3.9288,-3.9342,-3.9484,-3.9573,-3.9677,-3.9781,-4.0037,-4.0254,-4.0531,-4.0832,-4.1122,-4.1525,-4.1743,-4.1674,-4.1656,-4.6872,-4.6373,-4.606,-4.6026,-4.6214,-4.6229,-4.6359,-4.6534,-4.6345,-4.6229,-4.6185,-4.5982,-4.5735,-4.5547,-4.5779,-4.5518,-4.5024,-4.5996,-4.6055,-4.5329,-4.5256,-4.4574,-4.3456,-4.3355,-4.3065,-4.2469,-4.2557,-4.2658,-4.2673,-4.2673,-4.2469,-4.2136,-4.2092,-4.1961,-4.1715,-4.1294,-4.0844,-4.0379,-3.9639,-3.9073,-3.8826,-3.842,-3.8202,-3.8202,-3.8202,-3.8101,-3.7897,-3.7883,-3.7767,-3.752,-3.7535,-3.752,-3.752,-3.752,-3.752,-3.752,-3.752,-3.7636,-3.7839,-3.7883,-3.8044,-3.8397,-3.859,-3.8826,-3.9177,-3.9864,-4.0547,-4.1158,-4.1803,-4.2522,-4.2974,-4.2851,-4.2834,-4.3383,-4.3197,-4.2651,-4.1922,-4.1425,-4.0862,-4.0216,-3.9785,-3.9553,-3.9388,-3.9288,-3.9288,-3.9288,-3.9288,-3.9338,-3.9288,-3.9288,-3.9487,-3.9587,-3.9669,-3.9669,-3.9669,-4.015,-4.0183,-3.962,-3.9288,-3.9288,-3.9288,-3.9288,-3.9432,-3.9625,-3.9677,-3.9833,-4.0037,-4.0121,-4.0483,-4.0832,-4.1213,-4.1569,-4.1717,-4.1803,-4.1871,-4.6711,-4.597,-4.588,-4.588,-4.588,-4.588,-4.588,-4.588,-4.588,-4.588,-4.588,-4.588,-4.588,-4.5938,-4.6098,-4.5822,-4.5329,-4.6113,-4.604,-4.5242,-4.498,-4.4327,-4.3456,-4.3311,-4.3195,-4.3065,-4.3224,-4.3398,-4.3515,-4.3181,-4.2774,-4.2411,-4.2208,-4.2092,-4.2005,-4.1628,-4.1337,-4.0974,-4.0249,-3.9726,-3.9479,-3.9059,-3.871,-3.8551,-3.8522,-3.8405,-3.8217,-3.8202,-3.8202,-3.8202,-3.8202,-3.8337,-3.856,-3.8546,-3.8546,-3.856,-3.8337,-3.8202,-3.8202,-3.8202,-3.8277,-3.8604,-3.8795,-3.9121,-3.9854,-4.072,-4.1647,-4.2439,-4.2927,-4.3502,-4.3652,-4.3321,-4.3113,-4.341,-4.2965,-4.222,-4.1491,-4.0812,-4.0117,-3.9537,-3.9355,-3.9305,-3.9322,-3.9504,-3.9636,-3.9636,-3.9785,-3.9967,-3.9967,-3.9967,-3.9835,-3.9686,-3.9736,-3.962,-3.9504,-3.9736,-3.9934,-3.9471,-3.9288,-3.9288,-3.9288,-3.9288,-3.9379,-3.9642,-3.9781,-3.9884,-3.9986,-4.0087,-4.0353,-4.0707,-4.1185,-4.1569,-4.1785,-4.2056,-4.2015,-4.6711,-4.597,-4.588,-4.588,-4.588,-4.588,-4.588,-4.588,-4.588,-4.588,-4.588,-4.588,-4.588,-4.5982,-4.6388,-4.6388,-4.5909,-4.5938,-4.588,-4.5648,-4.514,-4.4516,-4.3834,-4.3761,-4.3558,-4.3152,-4.3732,-4.4298,-4.4647,-4.3703,-4.3108,-4.289,-4.2411,-4.2165,-4.2092,-4.2005,-4.1729,-4.1265,-4.0989,-4.0684,-4.0191,-4.0002,-3.9683,-3.9262,-3.9204,-3.8942,-3.8333,-3.8246,-3.8202,-3.8202,-3.8202,-3.8546,-3.9045,-3.9175,-3.9247,-3.9177,-3.8679,-3.8381,-3.8379,-3.8498,-3.872,-3.9136,-3.9535,-4.0352,-4.1484,-4.2606,-4.3611,-4.4252,-4.4458,-4.461,-4.4462,-4.4015,-4.3558,-4.3562,-4.2965,-4.2237,-4.1574,-4.0845,-4.015,-3.962,-3.9574,-3.9408,-3.9487,-3.9967,-4.0348,-4.0464,-4.0812,-4.1127,-4.1077,-4.1061,-4.0994,-4.058,-4.0365,-4.0216,-3.9752,-3.9338,-3.9371,-3.9392,-3.9305,-3.9288,-3.9288,-3.9342,-3.9432,-3.9625,-3.9816,-3.9918,-4.0037,-4.0121,-4.0271,-4.0611,-4.1094,-4.1525,-4.1785,-4.1973,-4.2015,-4.6711,-4.597,-4.588,-4.588,-4.588,-4.588,-4.588,-4.588,-4.588,-4.588,-4.588,-4.588,-4.588,-4.5909,-4.6113,-4.6084,-4.5895,-4.5866,-4.5648,-4.5242,-4.4995,-4.4342,-4.3515,-4.334,-4.3427,-4.3819,-4.4792,-4.5126,-4.485,-4.4458,-4.3892,-4.3108,-4.2832,-4.2484,-4.2136,-4.2078,-4.1961,-4.1773,-4.1323,-4.0989,-4.0742,-4.0336,-4.0017,-3.9842,-3.9813,-3.9697,-3.9479,-3.8667,-3.8231,-3.8231,-3.8202,-3.8337,-3.8634,-3.9045,-3.9529,-3.9991,-4.0341,-4.0452,-4.0427,-4.0382,-4.0487,-4.083,-4.1158,-4.1821,-4.2848,-4.3416,-4.4086,-4.4689,-4.4772,-4.4767,-4.4648,-4.4522,-4.4125,-4.3602,-4.2982,-4.2435,-4.2054,-4.1475,-4.1061,-4.0829,-4.0746,-4.0746,-4.0746,-4.1028,-4.1077,-4.1094,-4.1342,-4.1524,-4.1491,-4.1591,-4.1392,-4.111,-4.1044,-4.0961,-4.0547,-4.0166,-4.0034,-3.9785,-3.9553,-3.9305,-3.9288,-3.9342,-3.9484,-3.9625,-3.9816,-3.9969,-4.007,-4.0121,-4.0254,-4.0531,-4.1001,-4.1348,-4.1656,-4.1888,-4.2015,-4.6872,-4.6373,-4.606,-4.588,-4.588,-4.588,-4.588,-4.588,-4.588,-4.588,-4.588,-4.588,-4.588,-4.588,-4.588,-4.588,-4.588,-4.588,-4.5663,-4.5242,-4.4966,-4.4414,-4.3747,-4.3703,-4.3877,-4.4414,-4.5372,-4.5663,-4.5256,-4.498,-4.4472,-4.379,-4.3471,-4.305,-4.2484,-4.2426,-4.2353,-4.2078,-4.1686,-4.1468,-4.1395,-4.1062,-4.0728,-4.0589,-4.0754,-4.0637,-4.0153,-3.9598,-3.9203,-3.9127,-3.9415,-3.9788,-3.9847,-4.0592,-4.1158,-4.1551,-4.1776,-4.1889,-4.1847,-4.1802,-4.201,-4.2303,-4.2648,-4.3292,-4.4283,-4.4617,-4.5198,-4.5798,-4.5767,-4.5437,-4.5189,-4.4804,-4.439,-4.3678,-4.2965,-4.2452,-4.2137,-4.1707,-4.1442,-4.1342,-4.1359,-4.1425,-4.1425,-4.1723,-4.1789,-4.1823,-4.2054,-4.2237,-4.2237,-4.2286,-4.2121,-4.1939,-4.1806,-4.164,-4.1375,-4.1077,-4.0796,-4.0348,-3.9901,-3.9537,-3.9288,-3.9395,-3.9484,-3.9729,-3.9918,-4.002,-4.0087,-4.0121,-4.0204,-4.0563,-4.0955,-4.1455,-4.1846,-4.2157,-4.2279,-4.7204,-4.7031,-4.6225,-4.588,-4.588,-4.588,-4.588,-4.588,-4.588,-4.588,-4.588,-4.588,-4.588,-4.588,-4.588,-4.588,-4.588,-4.588,-4.5866,-4.5663,-4.53,-4.4879,-4.469,-4.4545,-4.4531,-4.4763,-4.5343,-4.5677,-4.5561,-4.5126,-4.4879,-4.469,-4.4226,-4.3645,-4.3036,-4.3047,-4.2727,-4.215,-4.2131,-4.217,-4.202,-4.202,-4.1758,-4.1258,-4.1794,-4.1715,-4.0689,-4.0967,-4.0988,-4.0388,-4.128,-4.1858,-4.2417,-4.3192,-4.3431,-4.3504,-4.3098,-4.2947,-4.2875,-4.3133,-4.3214,-4.3521,-4.4086,-4.4881,-4.5805,-4.638,-4.6825,-4.749,-4.7143,-4.6579,-4.5914,-4.5251,-4.4522,-4.3694,-4.3081,-4.2469,-4.1723,-4.1674,-4.1806,-4.174,-4.1591,-4.1591,-4.1773,-4.2253,-4.2502,-4.2667,-4.3048,-4.3247,-4.3346,-4.3164,-4.3164,-4.2932,-4.2601,-4.2452,-4.2237,-4.1773,-4.1508,-4.1243,-4.0663,-4.0067,-3.9574,-3.9581,-3.9554,-3.9781,-3.9986,-4.0087,-4.007,-4.0121,-4.0303,-4.0659,-4.1111,-4.163,-4.2032,-4.2297,-4.2297,-4.7448,-4.621,-4.5956,-4.588,-4.588,-4.588,-4.588,-4.588,-4.588,-4.588,-4.588,-4.588,-4.588,-4.588,-4.588,-4.588,-4.588,-4.588,-4.588,-4.5851,-4.5735,-4.5314,-4.4864,-4.4443,-4.4255,-4.44,-4.4647,-4.4705,-4.5111,-4.5157,-4.4952,-4.4879,-4.4763,-4.4138,-4.3251,-4.3549,-4.321,-4.2344,-4.2688,-4.2607,-4.216,-4.2092,-4.202,-4.1957,-4.2619,-4.253,-4.1718,-4.2396,-4.1878,-4.0319,-4.1097,-4.17,-4.1999,-4.3145,-4.4082,-4.4446,-4.4819,-4.4888,-4.4914,-4.5009,-4.5223,-4.538,-4.5671,-4.6383,-4.7342,-4.7572,-4.7787,-4.7968,-4.7769,-4.7388,-4.6659,-4.5881,-4.4953,-4.386,-4.338,-4.3181,-4.3015,-4.3048,-4.3048,-4.3048,-4.2982,-4.2916,-4.2949,-4.3081,-4.328,-4.333,-4.3462,-4.3645,-4.3645,-4.3628,-4.3429,-4.3495,-4.3313,-4.3247,-4.3048,-4.2568,-4.2237,-4.2104,-4.1558,-4.0845,-4.0325,-3.9971,-3.9895,-3.9884,-3.9986,-4.0087,-4.0087,-4.007,-4.0451,-4.0754,-4.1185,-4.1656,-4.2115,-4.2458,-4.2239,-4.7347,-4.6373,-4.6046,-4.588,-4.588,-4.588,-4.588,-4.588,-4.588,-4.588,-4.588,-4.588,-4.588,-4.588,-4.588,-4.588,-4.588,-4.588,-4.588,-4.588,-4.5866,-4.5488,-4.4995,-4.4705,-4.469,-4.4508,-4.4728,-4.5132,-4.562,-4.5828,-4.5658,-4.5238,-4.5329,-4.477,-4.3622,-4.3834,-4.37,-4.2887,-4.3061,-4.2915,-4.216,-4.2092,-4.231,-4.2607,-4.3364,-4.3536,-4.322,-4.3284,-4.2644,-4.1986,-4.2515,-4.3192,-4.3325,-4.4354,-4.5192,-4.5645,-4.6039,-4.6233,-4.6384,-4.6512,-4.6722,-4.6811,-4.7033,-4.7404,-4.7836,-4.8001,-4.8001,-4.8001,-4.8001,-4.7636,-4.6908,-4.5963,-4.487,-4.386,-4.3645,-4.3645,-4.3645,-4.3578,-4.3628,-4.3645,-4.3645,-4.3645,-4.3645,-4.3645,-4.3645,-4.3628,-4.3578,-4.3645,-4.3645,-4.3645,-4.3645,-4.3645,-4.3645,-4.3512,-4.3446,-4.3081,-4.2899,-4.2767,-4.2484,-4.1754,-4.125,-4.0695,-4.0436,-4.0339,-4.0223,-4.0087,-4.0087,-4.0221,-4.0514,-4.0879,-4.1258,-4.1743,-4.2279,-4.2595,-4.2378,-4.7178,-4.7031,-4.6225,-4.588,-4.588,-4.588,-4.5953,-4.5996,-4.5924,-4.5953,-4.5996,-4.5938,-4.588,-4.588,-4.588,-4.588,-4.588,-4.588,-4.606,-4.6135,-4.6091,-4.5917,-4.577,-4.5727,-4.5693,-4.5559,-4.5957,-4.6033,-4.6194,-4.6773,-4.6371,-4.5499,-4.5744,-4.5296,-4.4385,-4.4404,-4.4043,-4.3434,-4.3593,-4.3334,-4.2805,-4.2728,-4.3227,-4.3878,-4.4232,-4.4496,-4.4251,-4.3974,-4.3509,-4.3412,-4.4871,-4.5337,-4.5602,-4.6378,-4.6742,-4.671,-4.6779,-4.6965,-4.7167,-4.7251,-4.7521,-4.7571,-4.7787,-4.8001,-4.8001,-4.8001,-4.8001,-4.8001,-4.8001,-4.757,-4.6709,-4.5549,-4.4622,-4.3876,-4.3645,-4.3645,-4.3645,-4.3645,-4.3645,-4.3645,-4.3645,-4.3645,-4.3645,-4.3645,-4.3645,-4.3645,-4.3645,-4.3645,-4.3645,-4.3645,-4.3645,-4.3645,-4.3645,-4.3645,-4.3611,-4.3562,-4.3495,-4.3396,-4.3174,-4.2722,-4.2261,-4.1774,-4.1298,-4.1034,-4.073,-4.0375,-4.0087,-4.0303,-4.0597,-4.1001,-4.1393,-4.2015,-4.2577,-4.2729,-4.2634,-4.7274,-4.6135,-4.597,-4.588,-4.588,-4.5895,-4.6171,-4.6563,-4.6098,-4.6185,-4.6432,-4.6127,-4.5909,-4.588,-4.588,-4.588,-4.588,-4.597,-4.6225,-4.6872,-4.6944,-4.7302,-4.7256,-4.6881,-4.653,-4.6722,-4.6058,-4.5984,-4.6293,-4.5852,-4.5131,-4.538,-4.5447,-4.5035,-4.4494,-4.5325,-4.5126,-4.3874,-4.4352,-4.4516,-4.4056,-4.4251,-4.4854,-4.5596,-4.5541,-4.5018,-4.477,-4.4946,-4.4871,-4.4662,-4.5184,-4.5769,-4.5913,-4.6512,-4.6876,-4.6961,-4.703,-4.7183,-4.7251,-4.7437,-4.7654,-4.7721,-4.7869,-4.8001,-4.8001,-4.8001,-4.8001,-4.8001,-4.7984,-4.7454,-4.6278,-4.5781,-4.4887,-4.4009,-4.3645,-4.3645,-4.3645,-4.3645,-4.3645,-4.3645,-4.3645,-4.3645,-4.3645,-4.3645,-4.3645,-4.3645,-4.3645,-4.3645,-4.3645,-4.3645,-4.3645,-4.3645,-4.3645,-4.3645,-4.3645,-4.3645,-4.3645,-4.3645,-4.3539,-4.3514,-4.3109,-4.2718,-4.221,-4.1675,-4.1136,-4.0781,-4.046,-4.0307,-4.0573,-4.1059,-4.1525,-4.2015,-4.244,-4.2673,-4.2673,-4.734,-4.6345,-4.633,-4.6156,-4.5909,-4.5895,-4.6243,-4.6693,-4.649,-4.6505,-4.6708,-4.6446,-4.6171,-4.5895,-4.588,-4.588,-4.6046,-4.6373,-4.6697,-4.7189,-4.7603,-4.8263,-4.8907,-4.8403,-4.8109,-4.8136,-4.7528,-4.7246,-4.7022,-4.6608,-4.6345,-4.5525,-4.5723,-4.5649,-4.5049,-4.5869,-4.5506,-4.4833,-4.5434,-4.5618,-4.5046,-4.548,-4.6031,-4.6559,-4.6532,-4.6128,-4.5126,-4.5743,-4.5719,-4.5515,-4.5801,-4.6301,-4.6301,-4.6668,-4.6876,-4.6945,-4.7098,-4.7251,-4.7386,-4.7571,-4.7787,-4.7853,-4.7935,-4.8001,-4.8001,-4.8001,-4.8001,-4.8001,-4.7885,-4.7421,-4.6013,-4.5781,-4.5086,-4.4042,-4.3645,-4.3645,-4.3645,-4.3645,-4.3645,-4.3645,-4.3645,-4.3645,-4.3645,-4.3645,-4.3645,-4.3645,-4.3645,-4.3645,-4.3645,-4.3645,-4.3645,-4.3645,-4.3645,-4.3645,-4.3645,-4.3645,-4.3645,-4.3704,-4.3739,-4.3756,-4.3729,-4.3356,-4.3036,-4.2449,-4.1897,-4.1339,-4.1001,-4.0832,-4.0709,-4.1198,-4.163,-4.1973,-4.2239,-4.2458,-4.232,-4.7585,-4.7022,-4.7119,-4.6708,-4.6127,-4.6287,-4.6722,-4.71,-4.6896,-4.6853,-4.6882,-4.6824,-4.6258,-4.5967,-4.588,-4.597,-4.6299,-4.6784,-4.7276,-4.7958,-4.8444,-4.9278,-4.9837,-4.9915,-4.9615,-4.917,-4.8885,-4.869,-4.853,-4.8345,-4.722,-4.6329,-4.6471,-4.6469,-4.6129,-4.6222,-4.6276,-4.5989,-4.6682,-4.6903,-4.633,-4.6819,-4.7245,-4.7512,-4.7788,-4.741,-4.6481,-4.6611,-4.6808,-4.6133,-4.6667,-4.6985,-4.7022,-4.6909,-4.6961,-4.6961,-4.7167,-4.7319,-4.7521,-4.7654,-4.7853,-4.8001,-4.8001,-4.8001,-4.8001,-4.8001,-4.8001,-4.8001,-4.7885,-4.7404,-4.603,-4.5798,-4.5069,-4.4042,-4.3645,-4.3645,-4.3645,-4.3645,-4.3645,-4.3645,-4.3645,-4.3645,-4.3645,-4.3645,-4.3645,-4.3645,-4.3645,-4.3645,-4.3645,-4.3645,-4.3645,-4.3645,-4.3645,-4.3645,-4.3645,-4.3645,-4.3645,-4.3687,-4.3747,-4.3923,-4.4097,-4.3967,-4.363,-4.3263,-4.2726,-4.2151,-4.1576,-4.1153,-4.1184,-4.1509,-4.1648,-4.1846,-4.2015,-4.2239,-4.2086,-4.8322,-4.8119,-4.8316,-4.7738,-4.6925,-4.7767,-4.8203,-4.8203,-4.7274,-4.7158,-4.7433,-4.6548,-4.6084,-4.5985,-4.588,-4.6299,-4.6944,-4.7448,-4.8111,-4.905,-4.9614,-5.012,-5.0679,-5.0848,-5.0751,-5.0634,-5.0247,-4.9805,-4.9183,-4.8141,-4.769,-4.7379,-4.6988,-4.6967,-4.7448,-4.794,-4.778,-4.7334,-4.7925,-4.8103,-4.8279,-4.8718,-4.9078,-4.9174,-4.9427,-4.8727,-4.7902,-4.8057,-4.832,-4.7596,-4.7734,-4.7793,-4.7718,-4.7367,-4.7176,-4.7115,-4.7319,-4.7537,-4.7654,-4.7869,-4.7935,-4.8001,-4.8001,-4.8001,-4.8001,-4.8001,-4.8001,-4.8001,-4.7901,-4.7404,-4.598,-4.5798,-4.5086,-4.4125,-4.3645,-4.3645,-4.3645,-4.3645,-4.3645,-4.3645,-4.3645,-4.3645,-4.3645,-4.3645,-4.3645,-4.3645,-4.3645,-4.3645,-4.3645,-4.3645,-4.3645,-4.3645,-4.3645,-4.3645,-4.3645,-4.3645,-4.3645,-4.3687,-4.3805,-4.3981,-4.4155,-4.44,-4.4193,-4.3792,-4.3403,-4.2946,-4.2354,-4.1762,-4.1833,-4.2183,-4.1971,-4.1719,-4.2114,-4.2526,-4.2567,-4.9498,-4.8216,-4.9222,-4.8798,-4.7651,-4.8319,-4.8725,-4.858,-4.7753,-4.7477,-4.7433,-4.6795,-4.6427,-4.655,-4.6535,-4.7031,-4.7773,-4.8444,-4.9116,-4.9868,-5.037,-5.0695,-5.1183,-5.1183,-5.1183,-5.1086,-5.0811,-5.0422,-5.0082,-4.9174,-4.8285,-4.7846,-4.7501,-4.7638,-4.7862,-4.8167,-4.8496,-4.8358,-4.8763,-4.9098,-4.9455,-5.0149,-5.0406,-5.0185,-5.0344,-4.9796,-4.8767,-4.9106,-4.9151,-4.8634,-4.8586,-4.8615,-4.854,-4.8367,-4.7916,-4.7463,-4.7519,-4.7687,-4.7721,-4.7853,-4.8001,-4.8001,-4.8034,-4.8001,-4.8001,-4.8001,-4.8084,-4.8017,-4.7951,-4.7404,-4.598,-4.5847,-4.5069,-4.4026,-4.3678,-4.3694,-4.3661,-4.3661,-4.3661,-4.3661,-4.3645,-4.3645,-4.3645,-4.3645,-4.3645,-4.3645,-4.3645,-4.3645,-4.3645,-4.3645,-4.3645,-4.3645,-4.3645,-4.3645,-4.3645,-4.3645,-4.3645,-4.3687,-4.3805,-4.3981,-4.4155,-4.4344,-4.4429,-4.4215,-4.3876,-4.3589,-4.3308,-4.2838,-4.2859,-4.2822,-4.276,-4.2682,-4.2682,-4.2756,-4.2829,-5.0609,-4.8413,-5.0304,-4.9857,-4.829,-4.8957,-4.9074,-4.8653,-4.8043,-4.7838,-4.7756,-4.7234,-4.7052,-4.7381,-4.7518,-4.7927,-4.8743,-4.9534,-4.9868,-5.0276,-5.0771,-5.1183,-5.1183,-5.1183,-5.1183,-5.1183,-5.1135,-5.0876,-5.0455,-4.9976,-4.9467,-4.899,-4.8521,-4.8463,-4.8754,-4.8812,-4.8823,-4.916,-4.9363,-4.9684,-5.0237,-5.0771,-5.0924,-5.0276,-5.0848,-5.0542,-4.9649,-4.9995,-5.0082,-4.9694,-4.9515,-4.9512,-4.9551,-4.9594,-4.9059,-4.8057,-4.8031,-4.8149,-4.8265,-4.8398,-4.868,-4.8713,-4.8531,-4.8498,-4.8531,-4.868,-4.8514,-4.8282,-4.8233,-4.7669,-4.6444,-4.6063,-4.5417,-4.4589,-4.4175,-4.4026,-4.3976,-4.391,-4.381,-4.3777,-4.3678,-4.3645,-4.3645,-4.3645,-4.3645,-4.3645,-4.3645,-4.3645,-4.3645,-4.3645,-4.3645,-4.3645,-4.3645,-4.3645,-4.3645,-4.3645,-4.3645,-4.3645,-4.3805,-4.4039,-4.4172,-4.4286,-4.4356,-4.4418,-4.4401,-4.4169,-4.4011,-4.3797,-4.3563,-4.3469,-4.3607,-4.3506,-4.3255,-4.3203,-4.3272,-5.124,-5.0009,-5.1681,-5.0902,-4.9059,-5.0409,-5.0206,-4.8725,-4.8152,-4.7988,-4.8209,-4.7596,-4.7639,-4.8194,-4.8429,-4.8922,-4.9534,-4.9947,-5.0354,-5.0848,-5.1092,-5.1183,-5.1183,-5.1183,-5.1183,-5.1183,-5.1183,-5.1151,-5.0859,-5.0406,-5.0374,-5.0228,-4.9451,-4.9402,-5.0082,-4.9742,-5.0219,-5.0725,-5.0833,-5.0865,-5.0935,-5.1059,-5.1108,-5.1032,-5.1092,-5.1043,-5.0682,-5.0833,-5.0902,-5.1002,-5.0505,-5.0406,-5.0451,-5.0084,-4.9875,-4.9628,-4.9648,-4.9717,-4.9738,-4.9622,-4.9674,-4.9657,-4.9756,-4.9906,-4.9723,-4.9674,-4.9475,-4.9011,-4.8945,-4.8282,-4.7106,-4.6758,-4.6278,-4.5748,-4.5218,-4.4953,-4.4721,-4.4257,-4.4141,-4.3876,-4.3794,-4.3694,-4.3645,-4.3645,-4.3645,-4.3645,-4.3645,-4.3645,-4.3645,-4.3645,-4.3645,-4.3645,-4.3645,-4.3645,-4.3645,-4.3645,-4.3645,-4.3645,-4.3822,-4.4039,-4.4212,-4.4344,-4.4457,-4.4536,-4.457,-4.457,-4.4359,-4.4187,-4.4078,-4.4044,-4.4073,-4.392,-4.3705,-4.3728,-4.3829,-5.1001,-4.9486,-5.1291,-5.0975,-4.9524,-5.0598,-5.0471,-4.9557,-4.8854,-4.8716,-4.8758,-4.8247,-4.8444,-4.9197,-4.9773,-5.026,-5.0618,-5.0618,-5.0771,-5.1092,-5.1183,-5.1183,-5.1183,-5.1183,-5.1183,-5.1183,-5.1183,-5.1183,-5.1054,-5.0908,-5.0778,-5.0487,-5.0017,-4.9807,-5.0811,-5.0325,-5.0552,-5.094,-5.1135,-5.0957,-5.0795,-5.094,-5.1183,-5.1183,-5.1183,-5.1183,-5.1258,-5.1333,-5.1424,-5.1369,-5.0872,-5.0926,-5.1169,-5.1015,-5.0707,-5.1289,-5.1272,-5.0962,-5.0353,-5.0286,-5.0303,-5.0253,-5.0253,-5.0154,-5.022,-5.0253,-5.0187,-4.979,-4.9326,-4.8597,-4.7669,-4.7156,-4.6527,-4.6096,-4.603,-4.5748,-4.5351,-4.4837,-4.4489,-4.4191,-4.3926,-4.3893,-4.3843,-4.3777,-4.3744,-4.3645,-4.3645,-4.3645,-4.3645,-4.3645,-4.3645,-4.3645,-4.3645,-4.3645,-4.3645,-4.3645,-4.3704,-4.3763,-4.3939,-4.4114,-4.427,-4.4384,-4.4514,-4.457,-4.457,-4.4609,-4.4609,-4.461,-4.4593,-4.4508,-4.4544,-4.4421,-4.4344,-4.4605,-4.4759,-5.0846,-4.9501,-5.0973,-5.0959,-5.0101,-5.0584,-5.0603,-5.0186,-4.9433,-4.9311,-4.948,-4.9319,-4.9599,-5.0198,-5.0771,-5.1016,-5.1183,-5.1183,-5.1183,-5.1183,-5.1183,-5.1183,-5.1183,-5.1183,-5.1183,-5.1183,-5.1183,-5.1183,-5.1232,-5.128,-5.1183,-5.0617,-5.0552,-5.073,-5.0859,-5.0908,-5.1086,-5.1442,-5.1297,-5.0957,-5.0665,-5.0957,-5.1135,-5.1183,-5.1275,-5.1275,-5.1258,-5.1483,-5.1573,-5.1279,-5.1024,-5.0988,-5.1234,-5.1173,-5.1173,-5.1761,-5.1943,-5.1827,-5.1214,-5.0949,-5.0767,-5.075,-5.075,-5.0966,-5.0883,-5.075,-5.0419,-5.0204,-4.979,-4.9011,-4.815,-4.7471,-4.7139,-4.6775,-4.6527,-4.6295,-4.6046,-4.5649,-4.5251,-4.497,-4.4671,-4.4291,-4.4191,-4.4026,-4.3876,-4.3694,-4.3645,-4.3645,-4.3645,-4.3645,-4.3645,-4.3645,-4.3645,-4.3645,-4.3628,-4.3628,-4.3763,-4.3881,-4.4056,-4.4155,-4.4327,-4.444,-4.457,-4.457,-4.457,-4.457,-4.4609,-4.4835,-4.5054,-4.4902,-4.4835,-4.5007,-4.5077,-4.5372,-4.5662,-5.1031,-5.0981,-5.1403,-5.138,-5.1016,-5.0981,-5.0834,-5.0641,-4.9818,-4.9792,-5.0105,-5.0589,-5.0928,-5.1092,-5.1092,-5.1183,-5.1183,-5.1183,-5.1183,-5.1183,-5.1183,-5.1183,-5.1183,-5.1183,-5.1183,-5.1183,-5.1183,-5.1183,-5.1329,-5.175,-5.1928,-5.1993,-5.1507,-5.2058,-5.23,-5.2122,-5.1847,-5.1912,-5.1572,-5.1264,-5.1054,-5.1135,-5.1167,-5.1275,-5.135,-5.1515,-5.1499,-5.1565,-5.1467,-5.107,-5.0747,-5.062,-5.0644,-5.0826,-5.1144,-5.1545,-5.2108,-5.2125,-5.1926,-5.1877,-5.2108,-5.2191,-5.2092,-5.186,-5.1645,-5.1993,-5.1578,-5.0369,-4.9889,-4.9309,-4.8514,-4.7901,-4.7636,-4.7504,-4.7239,-4.7106,-4.6891,-4.6626,-4.6228,-4.5847,-4.5417,-4.497,-4.4787,-4.4671,-4.4009,-4.3777,-4.3645,-4.3645,-4.3645,-4.3645,-4.3645,-4.3645,-4.3645,-4.3628,-4.3628,-4.3687,-4.3822,-4.3981,-4.4155,-4.427,-4.431,-4.444,-4.457,-4.457,-4.457,-4.457,-4.4626,-4.4759,-4.4889,-4.5089,-4.5125,-4.5089,-4.5546,-4.6017,-4.6358,-5.1577,-5.2002,-5.2163,-5.2166,-5.2002,-5.1516,-5.1348,-5.1334,-5.1142,-5.1132,-5.1289,-5.1629,-5.1572,-5.1297,-5.1183,-5.1183,-5.1183,-5.1183,-5.1183,-5.1183,-5.1183,-5.1183,-5.1183,-5.1183,-5.1183,-5.1183,-5.1183,-5.1183,-5.1264,-5.1944,-5.2511,-5.2592,-5.2543,-5.277,-5.3029,-5.3062,-5.2721,-5.2252,-5.1944,-5.1669,-5.1216,-5.1183,-5.1183,-5.1258,-5.1441,-5.1515,-5.1524,-5.1336,-5.1152,-5.0725,-5.0122,-4.9981,-5.0033,-5.0364,-5.0797,-5.1297,-5.1976,-5.2291,-5.2324,-5.234,-5.2373,-5.2373,-5.2324,-5.2175,-5.1794,-5.1694,-5.1231,-5.0436,-4.979,-4.916,-4.8895,-4.8282,-4.7934,-4.7984,-4.7934,-4.7769,-4.757,-4.7255,-4.7007,-4.6543,-4.603,-4.5549,-4.545,-4.5384,-4.4589,-4.3876,-4.3744,-4.3645,-4.3645,-4.3645,-4.3645,-4.3645,-4.3645,-4.3704,-4.3747,-4.3805,-4.3939,-4.4097,-4.427,-4.4327,-4.4423,-4.4497,-4.457,-4.457,-4.457,-4.457,-4.457,-4.457,-4.472,-4.4852,-4.4998,-4.5052,-4.5683,-4.6566,-4.6908,-5.2104,-5.2797,-5.309,-5.3199,-5.2968,-5.2073,-5.2072,-5.2552,-5.2268,-5.2124,-5.2187,-5.2171,-5.1815,-5.1329,-5.1183,-5.1183,-5.1183,-5.1183,-5.1183,-5.1183,-5.1183,-5.1183,-5.1183,-5.1183,-5.1183,-5.1183,-5.1183,-5.1183,-5.1232,-5.209,-5.2738,-5.3256,-5.3742,-5.3952,-5.3952,-5.3693,-5.3369,-5.2964,-5.2317,-5.2058,-5.1523,-5.1372,-5.1275,-5.1333,-5.1499,-5.1573,-5.1639,-5.149,-5.1092,-5.0484,-4.9912,-4.9519,-4.9634,-4.9931,-5.0446,-5.1231,-5.186,-5.2258,-5.2125,-5.2274,-5.2241,-5.2026,-5.1976,-5.1612,-5.1181,-5.0932,-5.0568,-4.9922,-4.9359,-4.9028,-4.8895,-4.8266,-4.8017,-4.8001,-4.8001,-4.7885,-4.7819,-4.7603,-4.7471,-4.7206,-4.6792,-4.6477,-4.5997,-4.5864,-4.5135,-4.4307,-4.381,-4.3694,-4.3645,-4.3645,-4.3645,-4.3645,-4.3645,-4.3704,-4.3822,-4.3939,-4.4039,-4.4212,-4.4327,-4.4457,-4.4514,-4.457,-4.457,-4.457,-4.457,-4.457,-4.4665,-4.4759,-4.472,-4.4609,-4.4961,-4.5494,-4.6084,-4.6908,-4.7258,-5.2448,-5.3382,-5.4213,-5.4405,-5.3983,-5.2724,-5.3038,-5.3983,-5.3104,-5.2442,-5.2394,-5.2329,-5.1907,-5.1388,-5.1258,-5.1258,-5.1258,-5.1258,-5.1258,-5.1258,-5.1275,-5.1258,-5.1183,-5.1183,-5.1183,-5.1183,-5.1275,-5.1291,-5.1388,-5.2572,-5.3159,-5.3742,-5.4454,-5.5053,-5.5247,-5.4697,-5.4373,-5.4114,-5.2883,-5.2426,-5.2037,-5.1733,-5.1548,-5.1573,-5.1704,-5.1794,-5.1802,-5.1717,-5.1163,-5.0192,-4.9951,-4.954,-4.911,-4.9705,-5.0369,-5.1098,-5.1794,-5.1877,-5.1429,-5.1993,-5.1843,-5.1413,-5.1297,-5.0966,-5.0419,-5.0171,-4.9922,-4.921,-4.8995,-4.8663,-4.8349,-4.8034,-4.8017,-4.8001,-4.8001,-4.7984,-4.7918,-4.7885,-4.7719,-4.7636,-4.7736,-4.7636,-4.6908,-4.6278,-4.5616,-4.487,-4.4092,-4.3827,-4.3926,-4.3843,-4.391,-4.381,-4.381,-4.3763,-4.3881,-4.3998,-4.4155,-4.4327,-4.444,-4.4514,-4.457,-4.457,-4.457,-4.457,-4.4626,-4.4626,-4.4814,-4.4998,-4.5159,-4.5354,-4.5734,-4.6213,-4.6753,-4.7151,-4.745,-5.2808,-5.3756,-5.4558,-5.4607,-5.414,-5.3607,-5.3669,-5.386,-5.347,-5.3165,-5.3051,-5.2769,-5.2134,-5.1603,-5.1424,-5.1424,-5.1424,-5.1424,-5.1424,-5.1424,-5.1424,-5.1258,-5.1258,-5.1258,-5.1258,-5.1258,-5.1291,-5.1733,-5.2189,-5.3055,-5.3737,-5.4354,-5.4972,-5.5442,-5.5556,-5.5183,-5.4907,-5.4468,-5.3652,-5.2937,-5.2449,-5.1981,-5.1737,-5.1737,-5.1868,-5.1941,-5.1908,-5.1861,-5.1086,-5.0076,-4.9885,-4.9242,-4.8746,-4.9176,-4.9856,-5.0402,-5.0949,-5.085,-5.0634,-5.0833,-5.0817,-5.0618,-5.0518,-5.0237,-4.9607,-4.9491,-4.9061,-4.863,-4.8498,-4.8249,-4.805,-4.8017,-4.8001,-4.8001,-4.8001,-4.8001,-4.7968,-4.7984,-4.7918,-4.7901,-4.7951,-4.7951,-4.7487,-4.7007,-4.6378,-4.6063,-4.5433,-4.5036,-4.5019,-4.4589,-4.4423,-4.4208,-4.4059,-4.3955,-4.3923,-4.4039,-4.4212,-4.444,-4.4497,-4.457,-4.457,-4.457,-4.457,-4.457,-4.4626,-4.4682,-4.5106,-4.5477,-4.5885,-4.6231,-4.6454,-4.6595,-4.6908,-4.7302,-4.7597,-5.28,-5.3656,-5.4115,-5.4349,-5.4277,-5.4322,-5.4268,-5.4207,-5.4113,-5.3938,-5.3547,-5.297,-5.2284,-5.1736,-5.1499,-5.1573,-5.1573,-5.1499,-5.1573,-5.1573,-5.1499,-5.1424,-5.135,-5.1333,-5.1408,-5.1408,-5.1564,-5.1916,-5.2492,-5.3242,-5.4043,-5.4809,-5.5264,-5.5539,-5.5588,-5.5491,-5.5296,-5.4905,-5.4365,-5.3632,-5.3117,-5.2597,-5.2114,-5.2023,-5.2013,-5.2102,-5.1971,-5.1663,-5.1173,-5.0377,-4.9752,-4.9192,-4.886,-4.8911,-4.9541,-4.9955,-4.9939,-4.9906,-4.9856,-4.9475,-4.9442,-4.9375,-4.9641,-4.9442,-4.8912,-4.8746,-4.8514,-4.8199,-4.8034,-4.8001,-4.8001,-4.8001,-4.8001,-4.8001,-4.8001,-4.8001,-4.8001,-4.8001,-4.8001,-4.8001,-4.8001,-4.8001,-4.7984,-4.7703,-4.7222,-4.704,-4.6841,-4.6444,-4.598,-4.5467,-4.497,-4.4705,-4.4434,-4.4238,-4.4148,-4.4138,-4.4327,-4.457,-4.457,-4.457,-4.457,-4.457,-4.457,-4.457,-4.4626,-4.4869,-4.5477,-4.5968,-4.6376,-4.6724,-4.7089,-4.7151,-4.7151,-4.7407,-4.7657,-5.2318,-5.3025,-5.3091,-5.3667,-5.437,-5.483,-5.515,-5.5232,-5.4984,-5.4497,-5.3858,-5.2937,-5.2277,-5.1876,-5.1647,-5.1647,-5.1794,-5.1647,-5.1721,-5.1721,-5.1647,-5.1573,-5.1573,-5.1631,-5.1631,-5.1647,-5.1761,-5.2162,-5.259,-5.3819,-5.4691,-5.5134,-5.5442,-5.5604,-5.5685,-5.5588,-5.5523,-5.5375,-5.4995,-5.4322,-5.3678,-5.3264,-5.2662,-5.23,-5.2175,-5.2175,-5.2125,-5.1993,-5.1581,-5.1003,-5.0446,-5.0201,-4.9906,-4.9458,-4.9707,-4.969,-4.9342,-4.9293,-4.9011,-4.8547,-4.8365,-4.8498,-4.8796,-4.8547,-4.8349,-4.8216,-4.8133,-4.8084,-4.8001,-4.8001,-4.8001,-4.8001,-4.8001,-4.8001,-4.8001,-4.8001,-4.8001,-4.8001,-4.8001,-4.8001,-4.8001,-4.8001,-4.8001,-4.7835,-4.7686,-4.7636,-4.7404,-4.7123,-4.6659,-4.6162,-4.5682,-4.5235,-4.4915,-4.4597,-4.4432,-4.4339,-4.4253,-4.444,-4.457,-4.457,-4.457,-4.457,-4.457,-4.4626,-4.4626,-4.4961,-4.5477,-4.6116,-4.6771,-4.7107,-4.7107,-4.745,-4.7363,-4.7468,-4.7699,-5.2201,-5.2633,-5.3129,-5.3195,-5.3202,-5.4254,-5.4956,-5.5199,-5.4711,-5.43,-5.4086,-5.291,-5.2244,-5.203,-5.1957,-5.1941,-5.1957,-5.1957,-5.1957,-5.1957,-5.1868,-5.1794,-5.1794,-5.1778,-5.1778,-5.1778,-5.1925,-5.2458,-5.378,-5.4755,-5.5257,-5.5701,-5.5685,-5.5685,-5.5685,-5.5523,-5.575,-5.573,-5.5332,-5.4705,-5.4119,-5.3511,-5.2907,-5.2484,-5.2236,-5.2236,-5.2302,-5.2252,-5.1855,-5.131,-5.1098,-5.0651,-4.9392,-4.9193,-4.921,-4.868,-4.8763,-4.8945,-4.8415,-4.8133,-4.8001,-4.8001,-4.8266,-4.8216,-4.805,-4.8001,-4.8001,-4.8001,-4.8001,-4.8001,-4.8001,-4.8001,-4.8001,-4.8001,-4.8001,-4.8001,-4.8001,-4.8001,-4.8001,-4.8001,-4.8001,-4.8001,-4.8001,-4.7984,-4.7868,-4.7968,-4.7885,-4.762,-4.7338,-4.6841,-4.6361,-4.5897,-4.5374,-4.498,-4.4623,-4.444,-4.4363,-4.4327,-4.4497,-4.457,-4.457,-4.457,-4.457,-4.4665,-4.4759,-4.4981,-4.5355,-4.6,-4.6613,-4.6613,-4.6707,-4.7169,-4.7572,-4.7615,-4.7699,-5.2318,-5.244,-5.2821,-5.2904,-5.3019,-5.403,-5.4717,-5.489,-5.4484,-5.4303,-5.4138,-5.2891,-5.2247,-5.2247,-5.2086,-5.2086,-5.2247,-5.2102,-5.2102,-5.2175,-5.2208,-5.203,-5.1941,-5.1997,-5.1997,-5.1997,-5.2211,-5.2794,-5.4244,-5.5312,-5.5943,-5.5766,-5.5782,-5.5846,-5.5846,-5.591,-5.599,-5.5903,-5.5505,-5.4936,-5.4204,-5.3476,-5.2821,-5.2407,-5.2175,-5.2075,-5.2258,-5.2175,-5.1777,-5.1396,-5.1247,-5.0286,-4.926,-4.9094,-4.8614,-4.8183,-4.8349,-4.8415,-4.8133,-4.805,-4.8001,-4.8001,-4.8001,-4.8017,-4.8034,-4.8001,-4.8001,-4.8001,-4.8001,-4.8001,-4.8001,-4.8001,-4.8001,-4.8001,-4.8001,-4.8001,-4.8001,-4.8001,-4.8001,-4.8001,-4.8001,-4.8001,-4.8001,-4.8001,-4.8001,-4.8001,-4.8001,-4.7901,-4.7752,-4.752,-4.704,-4.656,-4.5922,-4.5407,-4.5033,-4.4624,-4.4471,-4.444,-4.4514,-4.457,-4.457,-4.457,-4.457,-4.4759,-4.4981,-4.5161,-4.5267,-4.5767,-4.6262,-4.6262,-4.6406,-4.6908,-4.732,-4.7554,-4.7597,-5.2302,-5.2373,-5.2373,-5.2754,-5.3367,-5.4063,-5.4411,-5.4411,-5.4204,-5.4345,-5.4022,-5.2858,-5.2247,-5.2318,-5.223,-5.2247,-5.2401,-5.2379,-5.2379,-5.2423,-5.2478,-5.2373,-5.2191,-5.2302,-5.223,-5.223,-5.2373,-5.29,-5.4185,-5.539,-5.6086,-5.5846,-5.5846,-5.6006,-5.6086,-5.6165,-5.6211,-5.6204,-5.5303,-5.4399,-5.3932,-5.3185,-5.2258,-5.2125,-5.1761,-5.1462,-5.1843,-5.1794,-5.1479,-5.1231,-5.0767,-4.979,-4.9375,-4.8845,-4.8216,-4.805,-4.8133,-4.81,-4.805,-4.8001,-4.8001,-4.8001,-4.8001,-4.8001,-4.8001,-4.8001,-4.8001,-4.8001,-4.8001,-4.8001,-4.8001,-4.8001,-4.8001,-4.8001,-4.8001,-4.8001,-4.8001,-4.8001,-4.8001,-4.8001,-4.8001,-4.8001,-4.8001,-4.8001,-4.8001,-4.8001,-4.8001,-4.8001,-4.7968,-4.7901,-4.7603,-4.709,-4.6304,-4.5707,-4.53,-4.4976,-4.4603,-4.4514,-4.457,-4.457,-4.457,-4.457,-4.457,-4.4703,-4.4852,-4.5035,-4.5232,-4.5528,-4.5767,-4.595,-4.6213,-4.6707,-4.7062,-4.7389,-4.7597,-5.1818,-5.239,-5.2373,-5.2489,-5.2705,-5.3367,-5.3649,-5.3616,-5.3102,-5.3169,-5.3434,-5.2715,-5.2269,-5.2291,-5.2285,-5.2373,-5.2456,-5.2616,-5.2754,-5.2705,-5.2699,-5.2583,-5.2368,-5.2373,-5.2373,-5.2318,-5.2461,-5.295,-5.4227,-5.5496,-5.6369,-5.6228,-5.6228,-5.6228,-5.6323,-5.6323,-5.6319,-5.6178,-5.4682,-5.3667,-5.3261,-5.239,-5.1512,-5.133,-5.0982,-5.0899,-5.1065,-5.0899,-5.0651,-5.0452,-5.0303,-4.9806,-4.9342,-4.8481,-4.8084,-4.8001,-4.8001,-4.8001,-4.8001,-4.8001,-4.8001,-4.8001,-4.8001,-4.8001,-4.8001,-4.8001,-4.8001,-4.8001,-4.8001,-4.8001,-4.8001,-4.8001,-4.8001,-4.8001,-4.8001,-4.8001,-4.8001,-4.8001,-4.8001,-4.8001,-4.8001,-4.8001,-4.8001,-4.8001,-4.8001,-4.8001,-4.8001,-4.8001,-4.8001,-4.7968,-4.7934,-4.7469,-4.6583,-4.5974,-4.5628,-4.5236,-4.4845,-4.4564,-4.457,-4.457,-4.457,-4.457,-4.457,-4.4626,-4.472,-4.4852,-4.4906,-4.4852,-4.5089,-4.5563,-4.6147,-4.666,-4.6999,-4.7345,-4.7554,-5.198,-5.2373,-5.2373,-5.2373,-5.239,-5.2456,-5.2456,-5.2324,-5.1728,-5.1628,-5.2009,-5.191,-5.1893,-5.2009,-5.2208,-5.239,-5.2456,-5.2738,-5.2638,-5.2605,-5.2788,-5.2622,-5.2489,-5.239,-5.2373,-5.2407,-5.2732,-5.3353,-5.4336,-5.5259,-5.6002,-5.6303,-5.6385,-5.6447,-5.6463,-5.6414,-5.6084,-5.5636,-5.3717,-5.2749,-5.2191,-5.1048,-5.0601,-5.0419,-5.0303,-5.0237,-5.0303,-5.0187,-5.0055,-4.9955,-4.9872,-4.926,-4.8746,-4.8233,-4.8034,-4.8001,-4.8001,-4.8001,-4.8001,-4.8001,-4.8001,-4.8001,-4.8001,-4.8001,-4.8001,-4.8001,-4.8001,-4.8001,-4.8001,-4.8001,-4.8001,-4.8001,-4.8001,-4.8001,-4.8001,-4.8001,-4.8001,-4.8001,-4.8001,-4.8001,-4.8001,-4.8001,-4.8001,-4.8001,-4.8001,-4.8001,-4.8001,-4.8001,-4.8001,-4.8066,-4.8066,-4.7915,-4.7078,-4.648,-4.6116,-4.5639,-4.5014,-4.4801,-4.453,-4.457,-4.457,-4.457,-4.457,-4.4626,-4.4626,-4.4626,-4.4609,-4.4703,-4.4889,-4.5355,-4.6,-4.6613,-4.6954,-4.7345,-4.7554,-5.2115,-5.2373,-5.2373,-5.2373,-5.2274,-5.1612,-5.1347,-5.1197,-5.0469,-5.0104,-5.027,-5.075,-5.1032,-5.1512,-5.1893,-5.2241,-5.2638,-5.3102,-5.287,-5.2837,-5.2887,-5.2904,-5.2738,-5.2456,-5.2407,-5.2622,-5.2947,-5.3552,-5.4319,-5.5144,-5.5897,-5.6331,-5.6447,-5.6508,-5.652,-5.6382,-5.5935,-5.4527,-5.2914,-5.1612,-5.0502,-4.9442,-4.9591,-4.9574,-4.9475,-4.9425,-4.9607,-4.9574,-4.9458,-4.9375,-4.9243,-4.8763,-4.8382,-4.8067,-4.805,-4.8001,-4.8001,-4.8001,-4.8001,-4.8001,-4.8001,-4.8001,-4.8001,-4.8001,-4.8001,-4.8001,-4.8001,-4.8001,-4.8001,-4.8001,-4.8001,-4.8001,-4.8001,-4.8001,-4.8001,-4.8001,-4.8001,-4.8001,-4.8001,-4.8001,-4.8001,-4.8001,-4.8001,-4.8001,-4.8001,-4.8001,-4.8001,-4.8001,-4.8001,-4.8131,-4.8115,-4.8144,-4.7851,-4.7256,-4.6623,-4.5967,-4.5291,-4.4823,-4.457,-4.457,-4.457,-4.457,-4.457,-4.457,-4.457,-4.4665,-4.4797,-4.4981,-4.5161,-4.5494,-4.6116,-4.6817,-4.7169,-4.745,-4.7597,-5.1205,-5.2373,-5.2373,-5.2373,-5.2258,-5.1578,-5.128,-5.1048,-4.9872,-4.9326,-4.9359,-4.9491,-5.0055,-5.1264,-5.138,-5.1943,-5.3119,-5.3549,-5.3997,-5.4146,-5.3682,-5.35,-5.3119,-5.2506,-5.2407,-5.2688,-5.3169,-5.3741,-5.4526,-5.5203,-5.5891,-5.6569,-5.6569,-5.6321,-5.5809,-5.562,-5.5073,-5.3599,-5.2324,-5.1032,-5.0055,-4.9243,-4.8812,-4.8713,-4.863,-4.8812,-4.8912,-4.8564,-4.8398,-4.8315,-4.8382,-4.8199,-4.8084,-4.8001,-4.8001,-4.8001,-4.8001,-4.8001,-4.8001,-4.8001,-4.8001,-4.8001,-4.8001,-4.8001,-4.8001,-4.8001,-4.8001,-4.8001,-4.8001,-4.8001,-4.8001,-4.8001,-4.8001,-4.8001,-4.8001,-4.8001,-4.8001,-4.8001,-4.8001,-4.8001,-4.8001,-4.8001,-4.8001,-4.8001,-4.8001,-4.8001,-4.8001,-4.8001,-4.8001,-4.8131,-4.8244,-4.8256,-4.8329,-4.7631,-4.6784,-4.6212,-4.5602,-4.501,-4.457,-4.457,-4.457,-4.457,-4.457,-4.457,-4.472,-4.4814,-4.4981,-4.532,-4.58,-4.6147,-4.6501,-4.6972,-4.7363,-4.7572,-4.7657]}]]